<?xml version="1.0" encoding="UTF-8" standalone="no" ?>
<gpx xmlns="http://www.topografix.com/GPX/1/1" xmlns:xsi="http://www.w3.org/2001/XMLSchema-instance" xsi:schemaLocation="http://www.topografix.com/GPX/1/1 http://www.topografix.com/GPX/1/1/gpx.xsd" version="1.1" creator="VisuGPX - https://www.visugpx.com">
  <metadata>
    <name>Balade sympathique  au près du bois de Hérique </name>
  </metadata>
  <trk>
    <name><![CDATA[Balade sympathique  au près du bois de Hérique _1]]></name>
    <trkseg>
      <trkpt lat="49.39045" lon="-1.61655">
        <ele>50</ele>
        <time>2021-12-18T13:21:07Z</time>
      </trkpt>
      <trkpt lat="49.3905" lon="-1.61655">
        <ele>50.2</ele>
        <time>2021-12-18T13:21:11Z</time>
      </trkpt>
      <trkpt lat="49.39055" lon="-1.61657">
        <ele>50.4</ele>
        <time>2021-12-18T13:21:16Z</time>
      </trkpt>
      <trkpt lat="49.3906" lon="-1.61659">
        <ele>50.6</ele>
        <time>2021-12-18T13:21:25Z</time>
      </trkpt>
      <trkpt lat="49.39064" lon="-1.61663">
        <ele>50.7</ele>
        <time>2021-12-18T13:21:29Z</time>
      </trkpt>
      <trkpt lat="49.39069" lon="-1.61664">
        <ele>50.4</ele>
        <time>2021-12-18T13:21:33Z</time>
      </trkpt>
      <trkpt lat="49.39074" lon="-1.61666">
        <ele>49.6</ele>
        <time>2021-12-18T13:21:37Z</time>
      </trkpt>
      <trkpt lat="49.39079" lon="-1.61666">
        <ele>48.5</ele>
        <time>2021-12-18T13:21:40Z</time>
      </trkpt>
      <trkpt lat="49.39084" lon="-1.61667">
        <ele>47.2</ele>
        <time>2021-12-18T13:21:45Z</time>
      </trkpt>
      <trkpt lat="49.39089" lon="-1.61668">
        <ele>46.3</ele>
        <time>2021-12-18T13:21:51Z</time>
      </trkpt>
      <trkpt lat="49.39095" lon="-1.61669">
        <ele>45.2</ele>
        <time>2021-12-18T13:21:56Z</time>
      </trkpt>
      <trkpt lat="49.39102" lon="-1.61673">
        <ele>43.8</ele>
        <time>2021-12-18T13:22:01Z</time>
      </trkpt>
      <trkpt lat="49.39106" lon="-1.61674">
        <ele>43.1</ele>
        <time>2021-12-18T13:22:05Z</time>
      </trkpt>
      <trkpt lat="49.39112" lon="-1.61674">
        <ele>42.4</ele>
        <time>2021-12-18T13:22:09Z</time>
      </trkpt>
      <trkpt lat="49.39118" lon="-1.61675">
        <ele>41.9</ele>
        <time>2021-12-18T13:22:15Z</time>
      </trkpt>
      <trkpt lat="49.39123" lon="-1.61678">
        <ele>41.7</ele>
        <time>2021-12-18T13:22:20Z</time>
      </trkpt>
      <trkpt lat="49.39129" lon="-1.61678">
        <ele>42.1</ele>
        <time>2021-12-18T13:22:24Z</time>
      </trkpt>
      <trkpt lat="49.39134" lon="-1.61679">
        <ele>43.3</ele>
        <time>2021-12-18T13:22:31Z</time>
      </trkpt>
      <trkpt lat="49.39139" lon="-1.61679">
        <ele>43.8</ele>
        <time>2021-12-18T13:22:38Z</time>
      </trkpt>
      <trkpt lat="49.39143" lon="-1.61682">
        <ele>43.8</ele>
        <time>2021-12-18T13:22:43Z</time>
      </trkpt>
      <trkpt lat="49.39148" lon="-1.61685">
        <ele>43.3</ele>
        <time>2021-12-18T13:22:47Z</time>
      </trkpt>
      <trkpt lat="49.39153" lon="-1.61687">
        <ele>42.9</ele>
        <time>2021-12-18T13:22:51Z</time>
      </trkpt>
      <trkpt lat="49.39158" lon="-1.61688">
        <ele>42.4</ele>
        <time>2021-12-18T13:22:56Z</time>
      </trkpt>
      <trkpt lat="49.39163" lon="-1.61689">
        <ele>42.1</ele>
        <time>2021-12-18T13:23:00Z</time>
      </trkpt>
      <trkpt lat="49.3917" lon="-1.61689">
        <ele>42.1</ele>
        <time>2021-12-18T13:23:04Z</time>
      </trkpt>
      <trkpt lat="49.39175" lon="-1.6169">
        <ele>42.3</ele>
        <time>2021-12-18T13:23:07Z</time>
      </trkpt>
      <trkpt lat="49.3918" lon="-1.61691">
        <ele>42.6</ele>
        <time>2021-12-18T13:23:10Z</time>
      </trkpt>
      <trkpt lat="49.39185" lon="-1.61692">
        <ele>42.8</ele>
        <time>2021-12-18T13:23:14Z</time>
      </trkpt>
      <trkpt lat="49.39191" lon="-1.61693">
        <ele>42.6</ele>
        <time>2021-12-18T13:23:26Z</time>
      </trkpt>
      <trkpt lat="49.39197" lon="-1.61694">
        <ele>42.2</ele>
        <time>2021-12-18T13:23:29Z</time>
      </trkpt>
      <trkpt lat="49.39201" lon="-1.61696">
        <ele>41.7</ele>
        <time>2021-12-18T13:23:33Z</time>
      </trkpt>
      <trkpt lat="49.39207" lon="-1.61697">
        <ele>40.8</ele>
        <time>2021-12-18T13:23:38Z</time>
      </trkpt>
      <trkpt lat="49.39212" lon="-1.61699">
        <ele>39.9</ele>
        <time>2021-12-18T13:23:42Z</time>
      </trkpt>
      <trkpt lat="49.39217" lon="-1.61699">
        <ele>39.4</ele>
        <time>2021-12-18T13:23:46Z</time>
      </trkpt>
      <trkpt lat="49.39222" lon="-1.617">
        <ele>39.2</ele>
        <time>2021-12-18T13:23:49Z</time>
      </trkpt>
      <trkpt lat="49.39227" lon="-1.61701">
        <ele>38.8</ele>
        <time>2021-12-18T13:23:52Z</time>
      </trkpt>
      <trkpt lat="49.39232" lon="-1.61701">
        <ele>38.6</ele>
        <time>2021-12-18T13:23:56Z</time>
      </trkpt>
      <trkpt lat="49.39238" lon="-1.61704">
        <ele>38.5</ele>
        <time>2021-12-18T13:24:01Z</time>
      </trkpt>
      <trkpt lat="49.39242" lon="-1.61706">
        <ele>38.6</ele>
        <time>2021-12-18T13:24:04Z</time>
      </trkpt>
      <trkpt lat="49.39248" lon="-1.61706">
        <ele>38.5</ele>
        <time>2021-12-18T13:24:08Z</time>
      </trkpt>
      <trkpt lat="49.39254" lon="-1.61706">
        <ele>39.5</ele>
        <time>2021-12-18T13:24:19Z</time>
      </trkpt>
      <trkpt lat="49.39258" lon="-1.61706">
        <ele>39.7</ele>
        <time>2021-12-18T13:24:22Z</time>
      </trkpt>
      <trkpt lat="49.39264" lon="-1.61706">
        <ele>38.1</ele>
        <time>2021-12-18T13:24:37Z</time>
      </trkpt>
      <trkpt lat="49.39269" lon="-1.61706">
        <ele>37.9</ele>
        <time>2021-12-18T13:24:41Z</time>
      </trkpt>
      <trkpt lat="49.39274" lon="-1.61709">
        <ele>37.4</ele>
        <time>2021-12-18T13:24:45Z</time>
      </trkpt>
      <trkpt lat="49.39279" lon="-1.6171">
        <ele>36.9</ele>
        <time>2021-12-18T13:24:48Z</time>
      </trkpt>
      <trkpt lat="49.39284" lon="-1.61711">
        <ele>35.8</ele>
        <time>2021-12-18T13:24:53Z</time>
      </trkpt>
      <trkpt lat="49.3929" lon="-1.61714">
        <ele>35.1</ele>
        <time>2021-12-18T13:24:58Z</time>
      </trkpt>
      <trkpt lat="49.39295" lon="-1.61717">
        <ele>34.6</ele>
        <time>2021-12-18T13:25:02Z</time>
      </trkpt>
      <trkpt lat="49.393" lon="-1.61718">
        <ele>34.1</ele>
        <time>2021-12-18T13:25:07Z</time>
      </trkpt>
      <trkpt lat="49.39305" lon="-1.6172">
        <ele>34.4</ele>
        <time>2021-12-18T13:25:13Z</time>
      </trkpt>
      <trkpt lat="49.3931" lon="-1.6172">
        <ele>35.1</ele>
        <time>2021-12-18T13:25:18Z</time>
      </trkpt>
      <trkpt lat="49.39316" lon="-1.61721">
        <ele>36.4</ele>
        <time>2021-12-18T13:25:27Z</time>
      </trkpt>
      <trkpt lat="49.39321" lon="-1.61724">
        <ele>36.6</ele>
        <time>2021-12-18T13:25:32Z</time>
      </trkpt>
      <trkpt lat="49.39327" lon="-1.61725">
        <ele>36.2</ele>
        <time>2021-12-18T13:25:37Z</time>
      </trkpt>
      <trkpt lat="49.39333" lon="-1.61726">
        <ele>35.7</ele>
        <time>2021-12-18T13:25:41Z</time>
      </trkpt>
      <trkpt lat="49.39339" lon="-1.61726">
        <ele>35.3</ele>
        <time>2021-12-18T13:25:45Z</time>
      </trkpt>
      <trkpt lat="49.39345" lon="-1.61727">
        <ele>34.8</ele>
        <time>2021-12-18T13:25:49Z</time>
      </trkpt>
      <trkpt lat="49.3935" lon="-1.61728">
        <ele>34.5</ele>
        <time>2021-12-18T13:25:53Z</time>
      </trkpt>
      <trkpt lat="49.39356" lon="-1.61732">
        <ele>34.3</ele>
        <time>2021-12-18T13:25:58Z</time>
      </trkpt>
      <trkpt lat="49.39362" lon="-1.61733">
        <ele>34.2</ele>
        <time>2021-12-18T13:26:02Z</time>
      </trkpt>
      <trkpt lat="49.39367" lon="-1.61735">
        <ele>33.9</ele>
        <time>2021-12-18T13:26:07Z</time>
      </trkpt>
      <trkpt lat="49.39372" lon="-1.61735">
        <ele>34</ele>
        <time>2021-12-18T13:26:12Z</time>
      </trkpt>
      <trkpt lat="49.39377" lon="-1.61737">
        <ele>33.6</ele>
        <time>2021-12-18T13:26:17Z</time>
      </trkpt>
      <trkpt lat="49.39381" lon="-1.61735">
        <ele>32.8</ele>
        <time>2021-12-18T13:26:22Z</time>
      </trkpt>
      <trkpt lat="49.39386" lon="-1.61739">
        <ele>32.3</ele>
        <time>2021-12-18T13:26:27Z</time>
      </trkpt>
      <trkpt lat="49.39392" lon="-1.6174">
        <ele>31.9</ele>
        <time>2021-12-18T13:26:31Z</time>
      </trkpt>
      <trkpt lat="49.39397" lon="-1.61741">
        <ele>31.4</ele>
        <time>2021-12-18T13:26:36Z</time>
      </trkpt>
      <trkpt lat="49.39402" lon="-1.61744">
        <ele>30.7</ele>
        <time>2021-12-18T13:26:40Z</time>
      </trkpt>
      <trkpt lat="49.39406" lon="-1.61745">
        <ele>30.2</ele>
        <time>2021-12-18T13:26:43Z</time>
      </trkpt>
      <trkpt lat="49.39411" lon="-1.61746">
        <ele>30</ele>
        <time>2021-12-18T13:26:47Z</time>
      </trkpt>
      <trkpt lat="49.39416" lon="-1.61746">
        <ele>30</ele>
        <time>2021-12-18T13:26:50Z</time>
      </trkpt>
      <trkpt lat="49.39421" lon="-1.61745">
        <ele>29.8</ele>
        <time>2021-12-18T13:26:54Z</time>
      </trkpt>
      <trkpt lat="49.39427" lon="-1.61745">
        <ele>29.7</ele>
        <time>2021-12-18T13:27:00Z</time>
      </trkpt>
      <trkpt lat="49.39431" lon="-1.61748">
        <ele>29.3</ele>
        <time>2021-12-18T13:27:05Z</time>
      </trkpt>
      <trkpt lat="49.39436" lon="-1.61752">
        <ele>28.7</ele>
        <time>2021-12-18T13:27:13Z</time>
      </trkpt>
      <trkpt lat="49.39442" lon="-1.61752">
        <ele>28.4</ele>
        <time>2021-12-18T13:27:18Z</time>
      </trkpt>
      <trkpt lat="49.39448" lon="-1.61753">
        <ele>28.2</ele>
        <time>2021-12-18T13:27:22Z</time>
      </trkpt>
      <trkpt lat="49.39453" lon="-1.61754">
        <ele>28</ele>
        <time>2021-12-18T13:27:26Z</time>
      </trkpt>
      <trkpt lat="49.39458" lon="-1.61755">
        <ele>27.9</ele>
        <time>2021-12-18T13:27:29Z</time>
      </trkpt>
      <trkpt lat="49.39464" lon="-1.61756">
        <ele>27.5</ele>
        <time>2021-12-18T13:27:33Z</time>
      </trkpt>
      <trkpt lat="49.39469" lon="-1.61757">
        <ele>27</ele>
        <time>2021-12-18T13:27:36Z</time>
      </trkpt>
      <trkpt lat="49.39474" lon="-1.6176">
        <ele>26.7</ele>
        <time>2021-12-18T13:27:40Z</time>
      </trkpt>
      <trkpt lat="49.39479" lon="-1.61759">
        <ele>26.6</ele>
        <time>2021-12-18T13:27:44Z</time>
      </trkpt>
      <trkpt lat="49.39485" lon="-1.61758">
        <ele>26.4</ele>
        <time>2021-12-18T13:27:48Z</time>
      </trkpt>
      <trkpt lat="49.3949" lon="-1.61758">
        <ele>26</ele>
        <time>2021-12-18T13:27:51Z</time>
      </trkpt>
      <trkpt lat="49.39495" lon="-1.61757">
        <ele>25.4</ele>
        <time>2021-12-18T13:27:55Z</time>
      </trkpt>
      <trkpt lat="49.395" lon="-1.61755">
        <ele>24.9</ele>
        <time>2021-12-18T13:27:59Z</time>
      </trkpt>
      <trkpt lat="49.39505" lon="-1.61754">
        <ele>24.4</ele>
        <time>2021-12-18T13:28:04Z</time>
      </trkpt>
      <trkpt lat="49.39511" lon="-1.61758">
        <ele>24.1</ele>
        <time>2021-12-18T13:28:10Z</time>
      </trkpt>
      <trkpt lat="49.39515" lon="-1.61763">
        <ele>23.8</ele>
        <time>2021-12-18T13:28:16Z</time>
      </trkpt>
      <trkpt lat="49.39522" lon="-1.61759">
        <ele>23.5</ele>
        <time>2021-12-18T13:28:19Z</time>
      </trkpt>
      <trkpt lat="49.39528" lon="-1.61758">
        <ele>23.3</ele>
        <time>2021-12-18T13:28:23Z</time>
      </trkpt>
      <trkpt lat="49.39533" lon="-1.61756">
        <ele>23</ele>
        <time>2021-12-18T13:28:26Z</time>
      </trkpt>
      <trkpt lat="49.39537" lon="-1.61753">
        <ele>22.8</ele>
        <time>2021-12-18T13:28:29Z</time>
      </trkpt>
      <trkpt lat="49.39542" lon="-1.61751">
        <ele>23</ele>
        <time>2021-12-18T13:28:33Z</time>
      </trkpt>
      <trkpt lat="49.39547" lon="-1.61749">
        <ele>23.4</ele>
        <time>2021-12-18T13:28:37Z</time>
      </trkpt>
      <trkpt lat="49.39551" lon="-1.61745">
        <ele>23.9</ele>
        <time>2021-12-18T13:28:41Z</time>
      </trkpt>
      <trkpt lat="49.39545" lon="-1.61744">
        <ele>23.1</ele>
        <time>2021-12-18T13:29:20Z</time>
      </trkpt>
      <trkpt lat="49.3954" lon="-1.61743">
        <ele>23.4</ele>
        <time>2021-12-18T13:29:25Z</time>
      </trkpt>
      <trkpt lat="49.39535" lon="-1.61744">
        <ele>23.4</ele>
        <time>2021-12-18T13:29:29Z</time>
      </trkpt>
      <trkpt lat="49.39529" lon="-1.61743">
        <ele>23</ele>
        <time>2021-12-18T13:29:35Z</time>
      </trkpt>
      <trkpt lat="49.39524" lon="-1.61745">
        <ele>22.5</ele>
        <time>2021-12-18T13:29:40Z</time>
      </trkpt>
      <trkpt lat="49.3952" lon="-1.61749">
        <ele>22.1</ele>
        <time>2021-12-18T13:29:44Z</time>
      </trkpt>
      <trkpt lat="49.39515" lon="-1.61752">
        <ele>21.5</ele>
        <time>2021-12-18T13:29:49Z</time>
      </trkpt>
      <trkpt lat="49.3951" lon="-1.61752">
        <ele>20.8</ele>
        <time>2021-12-18T13:29:57Z</time>
      </trkpt>
      <trkpt lat="49.39506" lon="-1.61756">
        <ele>20.8</ele>
        <time>2021-12-18T13:30:02Z</time>
      </trkpt>
      <trkpt lat="49.39501" lon="-1.61758">
        <ele>23.1</ele>
        <time>2021-12-18T13:30:10Z</time>
      </trkpt>
      <trkpt lat="49.39497" lon="-1.61758">
        <ele>24.9</ele>
        <time>2021-12-18T13:30:16Z</time>
      </trkpt>
      <trkpt lat="49.39492" lon="-1.61757">
        <ele>25.7</ele>
        <time>2021-12-18T13:30:26Z</time>
      </trkpt>
      <trkpt lat="49.39488" lon="-1.61754">
        <ele>26.1</ele>
        <time>2021-12-18T13:30:32Z</time>
      </trkpt>
      <trkpt lat="49.39483" lon="-1.61754">
        <ele>26.1</ele>
        <time>2021-12-18T13:30:36Z</time>
      </trkpt>
      <trkpt lat="49.39478" lon="-1.61754">
        <ele>25.9</ele>
        <time>2021-12-18T13:30:40Z</time>
      </trkpt>
      <trkpt lat="49.39473" lon="-1.61753">
        <ele>26</ele>
        <time>2021-12-18T13:30:44Z</time>
      </trkpt>
      <trkpt lat="49.39468" lon="-1.61753">
        <ele>25.9</ele>
        <time>2021-12-18T13:30:47Z</time>
      </trkpt>
      <trkpt lat="49.39463" lon="-1.61751">
        <ele>26.8</ele>
        <time>2021-12-18T13:30:53Z</time>
      </trkpt>
      <trkpt lat="49.39457" lon="-1.6175">
        <ele>27.7</ele>
        <time>2021-12-18T13:30:58Z</time>
      </trkpt>
      <trkpt lat="49.39452" lon="-1.61748">
        <ele>27.9</ele>
        <time>2021-12-18T13:31:01Z</time>
      </trkpt>
      <trkpt lat="49.39447" lon="-1.61749">
        <ele>27.9</ele>
        <time>2021-12-18T13:31:05Z</time>
      </trkpt>
      <trkpt lat="49.39443" lon="-1.61749">
        <ele>28</ele>
        <time>2021-12-18T13:31:08Z</time>
      </trkpt>
      <trkpt lat="49.39438" lon="-1.61747">
        <ele>28.1</ele>
        <time>2021-12-18T13:31:12Z</time>
      </trkpt>
      <trkpt lat="49.39433" lon="-1.61742">
        <ele>28.6</ele>
        <time>2021-12-18T13:31:16Z</time>
      </trkpt>
      <trkpt lat="49.39427" lon="-1.6174">
        <ele>28.8</ele>
        <time>2021-12-18T13:31:21Z</time>
      </trkpt>
      <trkpt lat="49.39422" lon="-1.61741">
        <ele>28.8</ele>
        <time>2021-12-18T13:31:27Z</time>
      </trkpt>
      <trkpt lat="49.39417" lon="-1.61742">
        <ele>29.1</ele>
        <time>2021-12-18T13:31:33Z</time>
      </trkpt>
      <trkpt lat="49.39412" lon="-1.61742">
        <ele>29.1</ele>
        <time>2021-12-18T13:31:37Z</time>
      </trkpt>
      <trkpt lat="49.39407" lon="-1.61741">
        <ele>29</ele>
        <time>2021-12-18T13:31:41Z</time>
      </trkpt>
      <trkpt lat="49.39401" lon="-1.61738">
        <ele>29</ele>
        <time>2021-12-18T13:31:46Z</time>
      </trkpt>
      <trkpt lat="49.39397" lon="-1.61738">
        <ele>29.1</ele>
        <time>2021-12-18T13:31:50Z</time>
      </trkpt>
      <trkpt lat="49.39391" lon="-1.61736">
        <ele>29.2</ele>
        <time>2021-12-18T13:31:55Z</time>
      </trkpt>
      <trkpt lat="49.39386" lon="-1.61732">
        <ele>29.6</ele>
        <time>2021-12-18T13:32:01Z</time>
      </trkpt>
      <trkpt lat="49.39381" lon="-1.61731">
        <ele>29.8</ele>
        <time>2021-12-18T13:32:04Z</time>
      </trkpt>
      <trkpt lat="49.39375" lon="-1.61732">
        <ele>30</ele>
        <time>2021-12-18T13:32:08Z</time>
      </trkpt>
      <trkpt lat="49.39369" lon="-1.61731">
        <ele>30</ele>
        <time>2021-12-18T13:32:13Z</time>
      </trkpt>
      <trkpt lat="49.39364" lon="-1.61729">
        <ele>30.5</ele>
        <time>2021-12-18T13:32:17Z</time>
      </trkpt>
      <trkpt lat="49.39359" lon="-1.61726">
        <ele>30.8</ele>
        <time>2021-12-18T13:32:21Z</time>
      </trkpt>
      <trkpt lat="49.39355" lon="-1.61723">
        <ele>31.1</ele>
        <time>2021-12-18T13:32:25Z</time>
      </trkpt>
      <trkpt lat="49.3935" lon="-1.61722">
        <ele>31.5</ele>
        <time>2021-12-18T13:32:29Z</time>
      </trkpt>
      <trkpt lat="49.39344" lon="-1.6172">
        <ele>31.9</ele>
        <time>2021-12-18T13:32:34Z</time>
      </trkpt>
      <trkpt lat="49.39339" lon="-1.61719">
        <ele>32.4</ele>
        <time>2021-12-18T13:32:39Z</time>
      </trkpt>
      <trkpt lat="49.39334" lon="-1.61719">
        <ele>32.8</ele>
        <time>2021-12-18T13:32:43Z</time>
      </trkpt>
      <trkpt lat="49.39329" lon="-1.61718">
        <ele>33</ele>
        <time>2021-12-18T13:32:47Z</time>
      </trkpt>
      <trkpt lat="49.39325" lon="-1.61716">
        <ele>33.4</ele>
        <time>2021-12-18T13:32:51Z</time>
      </trkpt>
      <trkpt lat="49.3932" lon="-1.61714">
        <ele>34.4</ele>
        <time>2021-12-18T13:32:57Z</time>
      </trkpt>
      <trkpt lat="49.39315" lon="-1.61713">
        <ele>35.6</ele>
        <time>2021-12-18T13:33:07Z</time>
      </trkpt>
      <trkpt lat="49.3931" lon="-1.61711">
        <ele>35.5</ele>
        <time>2021-12-18T13:33:12Z</time>
      </trkpt>
      <trkpt lat="49.39305" lon="-1.61709">
        <ele>35.5</ele>
        <time>2021-12-18T13:33:15Z</time>
      </trkpt>
      <trkpt lat="49.39298" lon="-1.61708">
        <ele>35.9</ele>
        <time>2021-12-18T13:33:19Z</time>
      </trkpt>
      <trkpt lat="49.39289" lon="-1.61707">
        <ele>36.4</ele>
        <time>2021-12-18T13:33:23Z</time>
      </trkpt>
      <trkpt lat="49.39284" lon="-1.61706">
        <ele>36.8</ele>
        <time>2021-12-18T13:33:25Z</time>
      </trkpt>
      <trkpt lat="49.39279" lon="-1.61705">
        <ele>37.6</ele>
        <time>2021-12-18T13:33:30Z</time>
      </trkpt>
      <trkpt lat="49.39273" lon="-1.61705">
        <ele>38.8</ele>
        <time>2021-12-18T13:33:40Z</time>
      </trkpt>
      <trkpt lat="49.39267" lon="-1.61704">
        <ele>38.7</ele>
        <time>2021-12-18T13:33:42Z</time>
      </trkpt>
      <trkpt lat="49.39261" lon="-1.61703">
        <ele>38.3</ele>
        <time>2021-12-18T13:33:46Z</time>
      </trkpt>
      <trkpt lat="49.39256" lon="-1.61701">
        <ele>38.2</ele>
        <time>2021-12-18T13:33:49Z</time>
      </trkpt>
      <trkpt lat="49.3925" lon="-1.617">
        <ele>38.4</ele>
        <time>2021-12-18T13:33:53Z</time>
      </trkpt>
      <trkpt lat="49.39245" lon="-1.617">
        <ele>38.7</ele>
        <time>2021-12-18T13:33:56Z</time>
      </trkpt>
      <trkpt lat="49.39239" lon="-1.61699">
        <ele>38.9</ele>
        <time>2021-12-18T13:34:01Z</time>
      </trkpt>
      <trkpt lat="49.39234" lon="-1.61697">
        <ele>39</ele>
        <time>2021-12-18T13:34:05Z</time>
      </trkpt>
      <trkpt lat="49.3923" lon="-1.61694">
        <ele>39.3</ele>
        <time>2021-12-18T13:34:09Z</time>
      </trkpt>
      <trkpt lat="49.39226" lon="-1.61691">
        <ele>40.9</ele>
        <time>2021-12-18T13:34:16Z</time>
      </trkpt>
      <trkpt lat="49.39221" lon="-1.61689">
        <ele>41.8</ele>
        <time>2021-12-18T13:34:22Z</time>
      </trkpt>
      <trkpt lat="49.39215" lon="-1.6169">
        <ele>41.3</ele>
        <time>2021-12-18T13:34:27Z</time>
      </trkpt>
      <trkpt lat="49.3921" lon="-1.6169">
        <ele>41.1</ele>
        <time>2021-12-18T13:34:31Z</time>
      </trkpt>
      <trkpt lat="49.39205" lon="-1.61689">
        <ele>40.9</ele>
        <time>2021-12-18T13:34:36Z</time>
      </trkpt>
      <trkpt lat="49.392" lon="-1.61688">
        <ele>41.2</ele>
        <time>2021-12-18T13:34:39Z</time>
      </trkpt>
      <trkpt lat="49.39195" lon="-1.61686">
        <ele>41.4</ele>
        <time>2021-12-18T13:34:42Z</time>
      </trkpt>
      <trkpt lat="49.3919" lon="-1.61682">
        <ele>41.6</ele>
        <time>2021-12-18T13:34:46Z</time>
      </trkpt>
      <trkpt lat="49.39185" lon="-1.6168">
        <ele>42.1</ele>
        <time>2021-12-18T13:34:51Z</time>
      </trkpt>
      <trkpt lat="49.39181" lon="-1.6168">
        <ele>42.7</ele>
        <time>2021-12-18T13:34:54Z</time>
      </trkpt>
      <trkpt lat="49.39176" lon="-1.61679">
        <ele>43.1</ele>
        <time>2021-12-18T13:34:58Z</time>
      </trkpt>
      <trkpt lat="49.39171" lon="-1.61679">
        <ele>43.1</ele>
        <time>2021-12-18T13:35:03Z</time>
      </trkpt>
      <trkpt lat="49.39166" lon="-1.61678">
        <ele>43</ele>
        <time>2021-12-18T13:35:07Z</time>
      </trkpt>
      <trkpt lat="49.39161" lon="-1.61676">
        <ele>43.1</ele>
        <time>2021-12-18T13:35:13Z</time>
      </trkpt>
      <trkpt lat="49.39156" lon="-1.61674">
        <ele>45.5</ele>
        <time>2021-12-18T13:35:23Z</time>
      </trkpt>
      <trkpt lat="49.39152" lon="-1.61674">
        <ele>46.3</ele>
        <time>2021-12-18T13:35:27Z</time>
      </trkpt>
      <trkpt lat="49.39146" lon="-1.61672">
        <ele>47</ele>
        <time>2021-12-18T13:35:31Z</time>
      </trkpt>
      <trkpt lat="49.3914" lon="-1.61671">
        <ele>47.4</ele>
        <time>2021-12-18T13:35:35Z</time>
      </trkpt>
      <trkpt lat="49.39136" lon="-1.61671">
        <ele>47.4</ele>
        <time>2021-12-18T13:35:37Z</time>
      </trkpt>
      <trkpt lat="49.39131" lon="-1.61671">
        <ele>47.4</ele>
        <time>2021-12-18T13:35:40Z</time>
      </trkpt>
      <trkpt lat="49.39126" lon="-1.61671">
        <ele>47.5</ele>
        <time>2021-12-18T13:35:44Z</time>
      </trkpt>
      <trkpt lat="49.39121" lon="-1.6167">
        <ele>47.5</ele>
        <time>2021-12-18T13:35:47Z</time>
      </trkpt>
      <trkpt lat="49.39116" lon="-1.61668">
        <ele>47.6</ele>
        <time>2021-12-18T13:35:51Z</time>
      </trkpt>
      <trkpt lat="49.39111" lon="-1.61668">
        <ele>47.8</ele>
        <time>2021-12-18T13:35:54Z</time>
      </trkpt>
      <trkpt lat="49.39099" lon="-1.61664">
        <ele>48</ele>
        <time>2021-12-18T13:36:01Z</time>
      </trkpt>
      <trkpt lat="49.39093" lon="-1.61662">
        <ele>48</ele>
        <time>2021-12-18T13:36:05Z</time>
      </trkpt>
      <trkpt lat="49.39087" lon="-1.61661">
        <ele>48</ele>
        <time>2021-12-18T13:36:09Z</time>
      </trkpt>
      <trkpt lat="49.39083" lon="-1.6166">
        <ele>48.1</ele>
        <time>2021-12-18T13:36:13Z</time>
      </trkpt>
      <trkpt lat="49.39078" lon="-1.61658">
        <ele>48.4</ele>
        <time>2021-12-18T13:36:16Z</time>
      </trkpt>
      <trkpt lat="49.39073" lon="-1.61657">
        <ele>48.7</ele>
        <time>2021-12-18T13:36:20Z</time>
      </trkpt>
      <trkpt lat="49.39067" lon="-1.61656">
        <ele>48.9</ele>
        <time>2021-12-18T13:36:25Z</time>
      </trkpt>
      <trkpt lat="49.39061" lon="-1.61653">
        <ele>49.4</ele>
        <time>2021-12-18T13:36:30Z</time>
      </trkpt>
      <trkpt lat="49.39056" lon="-1.61651">
        <ele>49.7</ele>
        <time>2021-12-18T13:36:34Z</time>
      </trkpt>
      <trkpt lat="49.39051" lon="-1.61649">
        <ele>49.8</ele>
        <time>2021-12-18T13:36:39Z</time>
      </trkpt>
      <trkpt lat="49.39046" lon="-1.6165">
        <ele>49.8</ele>
        <time>2021-12-18T13:36:43Z</time>
      </trkpt>
      <trkpt lat="49.39042" lon="-1.61649">
        <ele>52.3</ele>
        <time>2021-12-18T13:36:53Z</time>
      </trkpt>
      <trkpt lat="49.39034" lon="-1.61646">
        <ele>52.8</ele>
        <time>2021-12-18T13:37:01Z</time>
      </trkpt>
      <trkpt lat="49.39027" lon="-1.61644">
        <ele>52.5</ele>
        <time>2021-12-18T13:37:04Z</time>
      </trkpt>
      <trkpt lat="49.3902" lon="-1.61643">
        <ele>52.1</ele>
        <time>2021-12-18T13:37:07Z</time>
      </trkpt>
      <trkpt lat="49.39014" lon="-1.61643">
        <ele>51.3</ele>
        <time>2021-12-18T13:37:11Z</time>
      </trkpt>
      <trkpt lat="49.39009" lon="-1.61646">
        <ele>50.4</ele>
        <time>2021-12-18T13:37:15Z</time>
      </trkpt>
      <trkpt lat="49.39007" lon="-1.61653">
        <ele>50.3</ele>
        <time>2021-12-18T13:37:20Z</time>
      </trkpt>
      <trkpt lat="49.39005" lon="-1.61659">
        <ele>50.3</ele>
        <time>2021-12-18T13:37:23Z</time>
      </trkpt>
      <trkpt lat="49.39004" lon="-1.61667">
        <ele>50</ele>
        <time>2021-12-18T13:37:29Z</time>
      </trkpt>
      <trkpt lat="49.39003" lon="-1.61676">
        <ele>49.2</ele>
        <time>2021-12-18T13:37:34Z</time>
      </trkpt>
      <trkpt lat="49.39002" lon="-1.61683">
        <ele>48.2</ele>
        <time>2021-12-18T13:37:37Z</time>
      </trkpt>
      <trkpt lat="49.39001" lon="-1.6169">
        <ele>47.4</ele>
        <time>2021-12-18T13:37:41Z</time>
      </trkpt>
      <trkpt lat="49.39" lon="-1.61698">
        <ele>46.9</ele>
        <time>2021-12-18T13:37:44Z</time>
      </trkpt>
      <trkpt lat="49.38998" lon="-1.61705">
        <ele>46.7</ele>
        <time>2021-12-18T13:37:47Z</time>
      </trkpt>
      <trkpt lat="49.38995" lon="-1.61711">
        <ele>46.6</ele>
        <time>2021-12-18T13:37:50Z</time>
      </trkpt>
      <trkpt lat="49.38995" lon="-1.61718">
        <ele>46.5</ele>
        <time>2021-12-18T13:37:54Z</time>
      </trkpt>
      <trkpt lat="49.38995" lon="-1.61727">
        <ele>46.3</ele>
        <time>2021-12-18T13:37:58Z</time>
      </trkpt>
      <trkpt lat="49.38994" lon="-1.61735">
        <ele>45.7</ele>
        <time>2021-12-18T13:38:03Z</time>
      </trkpt>
      <trkpt lat="49.38993" lon="-1.61742">
        <ele>45.2</ele>
        <time>2021-12-18T13:38:07Z</time>
      </trkpt>
      <trkpt lat="49.38992" lon="-1.61751">
        <ele>45</ele>
        <time>2021-12-18T13:38:11Z</time>
      </trkpt>
      <trkpt lat="49.38991" lon="-1.61758">
        <ele>45</ele>
        <time>2021-12-18T13:38:14Z</time>
      </trkpt>
      <trkpt lat="49.38991" lon="-1.61768">
        <ele>45.1</ele>
        <time>2021-12-18T13:38:18Z</time>
      </trkpt>
      <trkpt lat="49.38988" lon="-1.61775">
        <ele>45.3</ele>
        <time>2021-12-18T13:38:23Z</time>
      </trkpt>
      <trkpt lat="49.38987" lon="-1.61784">
        <ele>45.3</ele>
        <time>2021-12-18T13:38:26Z</time>
      </trkpt>
      <trkpt lat="49.38987" lon="-1.61794">
        <ele>45.4</ele>
        <time>2021-12-18T13:38:30Z</time>
      </trkpt>
      <trkpt lat="49.38985" lon="-1.61802">
        <ele>45.2</ele>
        <time>2021-12-18T13:38:34Z</time>
      </trkpt>
      <trkpt lat="49.38985" lon="-1.61809">
        <ele>44.9</ele>
        <time>2021-12-18T13:38:37Z</time>
      </trkpt>
      <trkpt lat="49.38984" lon="-1.61818">
        <ele>43.7</ele>
        <time>2021-12-18T13:38:42Z</time>
      </trkpt>
      <trkpt lat="49.38983" lon="-1.61826">
        <ele>42.6</ele>
        <time>2021-12-18T13:38:46Z</time>
      </trkpt>
      <trkpt lat="49.38982" lon="-1.61834">
        <ele>41</ele>
        <time>2021-12-18T13:38:50Z</time>
      </trkpt>
      <trkpt lat="49.38979" lon="-1.61841">
        <ele>40.3</ele>
        <time>2021-12-18T13:38:55Z</time>
      </trkpt>
      <trkpt lat="49.3898" lon="-1.61848">
        <ele>40.1</ele>
        <time>2021-12-18T13:38:59Z</time>
      </trkpt>
      <trkpt lat="49.3898" lon="-1.61857">
        <ele>40.1</ele>
        <time>2021-12-18T13:39:03Z</time>
      </trkpt>
      <trkpt lat="49.38979" lon="-1.61866">
        <ele>40</ele>
        <time>2021-12-18T13:39:07Z</time>
      </trkpt>
      <trkpt lat="49.38979" lon="-1.61875">
        <ele>39.9</ele>
        <time>2021-12-18T13:39:14Z</time>
      </trkpt>
      <trkpt lat="49.38976" lon="-1.61883">
        <ele>39.8</ele>
        <time>2021-12-18T13:39:22Z</time>
      </trkpt>
      <trkpt lat="49.38973" lon="-1.61889">
        <ele>39.9</ele>
        <time>2021-12-18T13:39:28Z</time>
      </trkpt>
      <trkpt lat="49.38973" lon="-1.61897">
        <ele>39.5</ele>
        <time>2021-12-18T13:39:33Z</time>
      </trkpt>
      <trkpt lat="49.38976" lon="-1.61904">
        <ele>37.1</ele>
        <time>2021-12-18T13:39:54Z</time>
      </trkpt>
      <trkpt lat="49.38979" lon="-1.61911">
        <ele>37.2</ele>
        <time>2021-12-18T13:39:58Z</time>
      </trkpt>
      <trkpt lat="49.38982" lon="-1.61917">
        <ele>37.4</ele>
        <time>2021-12-18T13:40:03Z</time>
      </trkpt>
      <trkpt lat="49.38987" lon="-1.6192">
        <ele>37.2</ele>
        <time>2021-12-18T13:40:11Z</time>
      </trkpt>
      <trkpt lat="49.38991" lon="-1.61926">
        <ele>36.8</ele>
        <time>2021-12-18T13:40:18Z</time>
      </trkpt>
      <trkpt lat="49.38992" lon="-1.61933">
        <ele>36</ele>
        <time>2021-12-18T13:40:24Z</time>
      </trkpt>
      <trkpt lat="49.38994" lon="-1.6194">
        <ele>35.3</ele>
        <time>2021-12-18T13:40:30Z</time>
      </trkpt>
      <trkpt lat="49.38998" lon="-1.61946">
        <ele>34.6</ele>
        <time>2021-12-18T13:40:35Z</time>
      </trkpt>
      <trkpt lat="49.39002" lon="-1.61952">
        <ele>34</ele>
        <time>2021-12-18T13:40:39Z</time>
      </trkpt>
      <trkpt lat="49.39005" lon="-1.61958">
        <ele>33.4</ele>
        <time>2021-12-18T13:40:42Z</time>
      </trkpt>
      <trkpt lat="49.39008" lon="-1.61964">
        <ele>33.1</ele>
        <time>2021-12-18T13:40:46Z</time>
      </trkpt>
      <trkpt lat="49.3901" lon="-1.61971">
        <ele>33.5</ele>
        <time>2021-12-18T13:40:50Z</time>
      </trkpt>
      <trkpt lat="49.39013" lon="-1.61977">
        <ele>34.9</ele>
        <time>2021-12-18T13:40:56Z</time>
      </trkpt>
      <trkpt lat="49.39016" lon="-1.61984">
        <ele>35.2</ele>
        <time>2021-12-18T13:41:02Z</time>
      </trkpt>
      <trkpt lat="49.3902" lon="-1.61989">
        <ele>35</ele>
        <time>2021-12-18T13:41:08Z</time>
      </trkpt>
      <trkpt lat="49.39022" lon="-1.61997">
        <ele>34.2</ele>
        <time>2021-12-18T13:41:23Z</time>
      </trkpt>
      <trkpt lat="49.39027" lon="-1.62004">
        <ele>33.9</ele>
        <time>2021-12-18T13:41:27Z</time>
      </trkpt>
      <trkpt lat="49.3903" lon="-1.6201">
        <ele>33.6</ele>
        <time>2021-12-18T13:41:30Z</time>
      </trkpt>
      <trkpt lat="49.39032" lon="-1.62017">
        <ele>33</ele>
        <time>2021-12-18T13:41:34Z</time>
      </trkpt>
      <trkpt lat="49.39036" lon="-1.62024">
        <ele>32.5</ele>
        <time>2021-12-18T13:41:39Z</time>
      </trkpt>
      <trkpt lat="49.39039" lon="-1.6203">
        <ele>31.7</ele>
        <time>2021-12-18T13:41:44Z</time>
      </trkpt>
      <trkpt lat="49.39042" lon="-1.62036">
        <ele>30.9</ele>
        <time>2021-12-18T13:41:47Z</time>
      </trkpt>
      <trkpt lat="49.39046" lon="-1.62041">
        <ele>30.3</ele>
        <time>2021-12-18T13:41:50Z</time>
      </trkpt>
      <trkpt lat="49.3905" lon="-1.6205">
        <ele>29.2</ele>
        <time>2021-12-18T13:41:55Z</time>
      </trkpt>
      <trkpt lat="49.39053" lon="-1.62055">
        <ele>28.7</ele>
        <time>2021-12-18T13:41:59Z</time>
      </trkpt>
      <trkpt lat="49.39056" lon="-1.62061">
        <ele>28.3</ele>
        <time>2021-12-18T13:42:03Z</time>
      </trkpt>
      <trkpt lat="49.39058" lon="-1.62069">
        <ele>28.1</ele>
        <time>2021-12-18T13:42:09Z</time>
      </trkpt>
      <trkpt lat="49.39062" lon="-1.62074">
        <ele>27.5</ele>
        <time>2021-12-18T13:42:14Z</time>
      </trkpt>
      <trkpt lat="49.39066" lon="-1.62078">
        <ele>27.1</ele>
        <time>2021-12-18T13:42:19Z</time>
      </trkpt>
      <trkpt lat="49.3907" lon="-1.6208">
        <ele>26.9</ele>
        <time>2021-12-18T13:42:24Z</time>
      </trkpt>
      <trkpt lat="49.39075" lon="-1.6208">
        <ele>26.8</ele>
        <time>2021-12-18T13:42:27Z</time>
      </trkpt>
      <trkpt lat="49.3908" lon="-1.62082">
        <ele>26.9</ele>
        <time>2021-12-18T13:42:30Z</time>
      </trkpt>
      <trkpt lat="49.39087" lon="-1.62085">
        <ele>27</ele>
        <time>2021-12-18T13:42:34Z</time>
      </trkpt>
      <trkpt lat="49.39092" lon="-1.62087">
        <ele>27.2</ele>
        <time>2021-12-18T13:42:38Z</time>
      </trkpt>
      <trkpt lat="49.39087" lon="-1.62086">
        <ele>27.1</ele>
        <time>2021-12-18T13:43:14Z</time>
      </trkpt>
      <trkpt lat="49.39083" lon="-1.6208">
        <ele>26.9</ele>
        <time>2021-12-18T13:43:21Z</time>
      </trkpt>
      <trkpt lat="49.39088" lon="-1.62081">
        <ele>26.6</ele>
        <time>2021-12-18T13:43:34Z</time>
      </trkpt>
      <trkpt lat="49.39092" lon="-1.62085">
        <ele>26.1</ele>
        <time>2021-12-18T13:43:48Z</time>
      </trkpt>
      <trkpt lat="49.39097" lon="-1.62087">
        <ele>25.8</ele>
        <time>2021-12-18T13:43:53Z</time>
      </trkpt>
      <trkpt lat="49.39102" lon="-1.62091">
        <ele>25.2</ele>
        <time>2021-12-18T13:43:57Z</time>
      </trkpt>
      <trkpt lat="49.39108" lon="-1.62094">
        <ele>24.4</ele>
        <time>2021-12-18T13:44:01Z</time>
      </trkpt>
      <trkpt lat="49.39112" lon="-1.62094">
        <ele>23.9</ele>
        <time>2021-12-18T13:44:04Z</time>
      </trkpt>
      <trkpt lat="49.39117" lon="-1.62095">
        <ele>24.1</ele>
        <time>2021-12-18T13:44:09Z</time>
      </trkpt>
      <trkpt lat="49.39123" lon="-1.62095">
        <ele>24.6</ele>
        <time>2021-12-18T13:44:13Z</time>
      </trkpt>
      <trkpt lat="49.39128" lon="-1.62097">
        <ele>24.8</ele>
        <time>2021-12-18T13:44:18Z</time>
      </trkpt>
      <trkpt lat="49.39134" lon="-1.62097">
        <ele>24.6</ele>
        <time>2021-12-18T13:44:23Z</time>
      </trkpt>
      <trkpt lat="49.39139" lon="-1.62096">
        <ele>24.5</ele>
        <time>2021-12-18T13:44:26Z</time>
      </trkpt>
      <trkpt lat="49.39143" lon="-1.62096">
        <ele>24.3</ele>
        <time>2021-12-18T13:44:29Z</time>
      </trkpt>
      <trkpt lat="49.39148" lon="-1.62096">
        <ele>23.9</ele>
        <time>2021-12-18T13:44:32Z</time>
      </trkpt>
      <trkpt lat="49.39153" lon="-1.62098">
        <ele>23.8</ele>
        <time>2021-12-18T13:44:42Z</time>
      </trkpt>
      <trkpt lat="49.39158" lon="-1.62099">
        <ele>23.5</ele>
        <time>2021-12-18T13:44:55Z</time>
      </trkpt>
      <trkpt lat="49.39164" lon="-1.62099">
        <ele>22.5</ele>
        <time>2021-12-18T13:45:03Z</time>
      </trkpt>
      <trkpt lat="49.39169" lon="-1.62101">
        <ele>22.2</ele>
        <time>2021-12-18T13:45:06Z</time>
      </trkpt>
      <trkpt lat="49.39174" lon="-1.62102">
        <ele>21.6</ele>
        <time>2021-12-18T13:45:10Z</time>
      </trkpt>
      <trkpt lat="49.39179" lon="-1.62104">
        <ele>21.1</ele>
        <time>2021-12-18T13:45:14Z</time>
      </trkpt>
      <trkpt lat="49.39215" lon="-1.62114">
        <ele>19.4</ele>
        <time>2021-12-18T13:45:34Z</time>
      </trkpt>
      <trkpt lat="49.39219" lon="-1.62115">
        <ele>19.5</ele>
        <time>2021-12-18T13:45:36Z</time>
      </trkpt>
      <trkpt lat="49.39224" lon="-1.62116">
        <ele>19.6</ele>
        <time>2021-12-18T13:45:39Z</time>
      </trkpt>
      <trkpt lat="49.3923" lon="-1.62117">
        <ele>19.5</ele>
        <time>2021-12-18T13:45:42Z</time>
      </trkpt>
      <trkpt lat="49.39235" lon="-1.62119">
        <ele>19.4</ele>
        <time>2021-12-18T13:45:46Z</time>
      </trkpt>
      <trkpt lat="49.3924" lon="-1.6212">
        <ele>18.7</ele>
        <time>2021-12-18T13:45:49Z</time>
      </trkpt>
      <trkpt lat="49.39244" lon="-1.62121">
        <ele>18</ele>
        <time>2021-12-18T13:45:53Z</time>
      </trkpt>
      <trkpt lat="49.3925" lon="-1.62122">
        <ele>17.2</ele>
        <time>2021-12-18T13:45:57Z</time>
      </trkpt>
      <trkpt lat="49.39255" lon="-1.62125">
        <ele>16.9</ele>
        <time>2021-12-18T13:46:02Z</time>
      </trkpt>
      <trkpt lat="49.39261" lon="-1.62126">
        <ele>17.2</ele>
        <time>2021-12-18T13:46:05Z</time>
      </trkpt>
      <trkpt lat="49.39269" lon="-1.62127">
        <ele>17.7</ele>
        <time>2021-12-18T13:46:09Z</time>
      </trkpt>
      <trkpt lat="49.39273" lon="-1.62128">
        <ele>18.3</ele>
        <time>2021-12-18T13:46:13Z</time>
      </trkpt>
      <trkpt lat="49.39279" lon="-1.6213">
        <ele>18.2</ele>
        <time>2021-12-18T13:46:17Z</time>
      </trkpt>
      <trkpt lat="49.39283" lon="-1.62132">
        <ele>18.1</ele>
        <time>2021-12-18T13:46:22Z</time>
      </trkpt>
      <trkpt lat="49.39288" lon="-1.62133">
        <ele>18.4</ele>
        <time>2021-12-18T13:46:26Z</time>
      </trkpt>
      <trkpt lat="49.39293" lon="-1.62133">
        <ele>19.8</ele>
        <time>2021-12-18T13:46:32Z</time>
      </trkpt>
      <trkpt lat="49.39299" lon="-1.62134">
        <ele>20.3</ele>
        <time>2021-12-18T13:46:43Z</time>
      </trkpt>
      <trkpt lat="49.39303" lon="-1.62136">
        <ele>19.9</ele>
        <time>2021-12-18T13:46:48Z</time>
      </trkpt>
      <trkpt lat="49.39309" lon="-1.62136">
        <ele>19.7</ele>
        <time>2021-12-18T13:46:52Z</time>
      </trkpt>
      <trkpt lat="49.39314" lon="-1.6214">
        <ele>19.2</ele>
        <time>2021-12-18T13:46:55Z</time>
      </trkpt>
      <trkpt lat="49.39319" lon="-1.62141">
        <ele>18.9</ele>
        <time>2021-12-18T13:46:58Z</time>
      </trkpt>
      <trkpt lat="49.39325" lon="-1.62141">
        <ele>18.6</ele>
        <time>2021-12-18T13:47:00Z</time>
      </trkpt>
      <trkpt lat="49.3933" lon="-1.62142">
        <ele>18.5</ele>
        <time>2021-12-18T13:47:04Z</time>
      </trkpt>
      <trkpt lat="49.39335" lon="-1.62142">
        <ele>18.5</ele>
        <time>2021-12-18T13:47:08Z</time>
      </trkpt>
      <trkpt lat="49.39342" lon="-1.62145">
        <ele>18.4</ele>
        <time>2021-12-18T13:47:13Z</time>
      </trkpt>
      <trkpt lat="49.39347" lon="-1.62146">
        <ele>18.2</ele>
        <time>2021-12-18T13:47:18Z</time>
      </trkpt>
      <trkpt lat="49.39352" lon="-1.62144">
        <ele>18.3</ele>
        <time>2021-12-18T13:47:22Z</time>
      </trkpt>
      <trkpt lat="49.39357" lon="-1.62145">
        <ele>19</ele>
        <time>2021-12-18T13:47:25Z</time>
      </trkpt>
      <trkpt lat="49.39362" lon="-1.62148">
        <ele>19.7</ele>
        <time>2021-12-18T13:47:30Z</time>
      </trkpt>
      <trkpt lat="49.39367" lon="-1.62149">
        <ele>20.1</ele>
        <time>2021-12-18T13:47:34Z</time>
      </trkpt>
      <trkpt lat="49.39373" lon="-1.6215">
        <ele>20.4</ele>
        <time>2021-12-18T13:47:39Z</time>
      </trkpt>
      <trkpt lat="49.39378" lon="-1.62152">
        <ele>20.5</ele>
        <time>2021-12-18T13:47:43Z</time>
      </trkpt>
      <trkpt lat="49.39383" lon="-1.62154">
        <ele>20.7</ele>
        <time>2021-12-18T13:47:48Z</time>
      </trkpt>
      <trkpt lat="49.39388" lon="-1.62157">
        <ele>21.4</ele>
        <time>2021-12-18T13:47:57Z</time>
      </trkpt>
      <trkpt lat="49.39392" lon="-1.62159">
        <ele>22</ele>
        <time>2021-12-18T13:48:03Z</time>
      </trkpt>
      <trkpt lat="49.39399" lon="-1.6216">
        <ele>22.2</ele>
        <time>2021-12-18T13:48:08Z</time>
      </trkpt>
      <trkpt lat="49.39403" lon="-1.62161">
        <ele>22.5</ele>
        <time>2021-12-18T13:48:17Z</time>
      </trkpt>
      <trkpt lat="49.39408" lon="-1.62162">
        <ele>22.4</ele>
        <time>2021-12-18T13:48:21Z</time>
      </trkpt>
      <trkpt lat="49.39413" lon="-1.62164">
        <ele>22.1</ele>
        <time>2021-12-18T13:48:28Z</time>
      </trkpt>
      <trkpt lat="49.39418" lon="-1.62166">
        <ele>21.9</ele>
        <time>2021-12-18T13:48:42Z</time>
      </trkpt>
      <trkpt lat="49.39424" lon="-1.6217">
        <ele>21.6</ele>
        <time>2021-12-18T13:48:45Z</time>
      </trkpt>
      <trkpt lat="49.39429" lon="-1.62173">
        <ele>21.4</ele>
        <time>2021-12-18T13:48:47Z</time>
      </trkpt>
      <trkpt lat="49.39435" lon="-1.62174">
        <ele>21.4</ele>
        <time>2021-12-18T13:48:49Z</time>
      </trkpt>
      <trkpt lat="49.39439" lon="-1.62174">
        <ele>21.3</ele>
        <time>2021-12-18T13:48:50Z</time>
      </trkpt>
      <trkpt lat="49.39445" lon="-1.62174">
        <ele>21.4</ele>
        <time>2021-12-18T13:48:53Z</time>
      </trkpt>
      <trkpt lat="49.39449" lon="-1.62175">
        <ele>21.6</ele>
        <time>2021-12-18T13:48:55Z</time>
      </trkpt>
      <trkpt lat="49.39455" lon="-1.62175">
        <ele>21.9</ele>
        <time>2021-12-18T13:48:58Z</time>
      </trkpt>
      <trkpt lat="49.3946" lon="-1.62173">
        <ele>22.2</ele>
        <time>2021-12-18T13:49:02Z</time>
      </trkpt>
      <trkpt lat="49.39464" lon="-1.6217">
        <ele>22.4</ele>
        <time>2021-12-18T13:49:08Z</time>
      </trkpt>
      <trkpt lat="49.39468" lon="-1.62161">
        <ele>23.6</ele>
        <time>2021-12-18T13:49:12Z</time>
      </trkpt>
      <trkpt lat="49.39473" lon="-1.62161">
        <ele>24</ele>
        <time>2021-12-18T13:49:16Z</time>
      </trkpt>
      <trkpt lat="49.39478" lon="-1.62165">
        <ele>23.7</ele>
        <time>2021-12-18T13:49:20Z</time>
      </trkpt>
      <trkpt lat="49.39488" lon="-1.62174">
        <ele>21.6</ele>
        <time>2021-12-18T13:49:29Z</time>
      </trkpt>
      <trkpt lat="49.39494" lon="-1.62175">
        <ele>22.1</ele>
        <time>2021-12-18T13:49:33Z</time>
      </trkpt>
      <trkpt lat="49.39499" lon="-1.62178">
        <ele>23.6</ele>
        <time>2021-12-18T13:49:37Z</time>
      </trkpt>
      <trkpt lat="49.39503" lon="-1.62182">
        <ele>24.7</ele>
        <time>2021-12-18T13:49:40Z</time>
      </trkpt>
      <trkpt lat="49.39509" lon="-1.62183">
        <ele>24.7</ele>
        <time>2021-12-18T13:49:44Z</time>
      </trkpt>
      <trkpt lat="49.39513" lon="-1.62186">
        <ele>24.4</ele>
        <time>2021-12-18T13:49:48Z</time>
      </trkpt>
      <trkpt lat="49.39518" lon="-1.6219">
        <ele>24.3</ele>
        <time>2021-12-18T13:49:52Z</time>
      </trkpt>
      <trkpt lat="49.39522" lon="-1.62191">
        <ele>24.5</ele>
        <time>2021-12-18T13:49:56Z</time>
      </trkpt>
      <trkpt lat="49.39527" lon="-1.62189">
        <ele>24.8</ele>
        <time>2021-12-18T13:49:59Z</time>
      </trkpt>
      <trkpt lat="49.39532" lon="-1.6219">
        <ele>25.1</ele>
        <time>2021-12-18T13:50:04Z</time>
      </trkpt>
      <trkpt lat="49.39538" lon="-1.62191">
        <ele>25.4</ele>
        <time>2021-12-18T13:50:09Z</time>
      </trkpt>
      <trkpt lat="49.39542" lon="-1.6219">
        <ele>25.8</ele>
        <time>2021-12-18T13:50:13Z</time>
      </trkpt>
      <trkpt lat="49.39548" lon="-1.62192">
        <ele>26.1</ele>
        <time>2021-12-18T13:50:18Z</time>
      </trkpt>
      <trkpt lat="49.39552" lon="-1.62192">
        <ele>26.5</ele>
        <time>2021-12-18T13:50:22Z</time>
      </trkpt>
      <trkpt lat="49.39558" lon="-1.62195">
        <ele>27.2</ele>
        <time>2021-12-18T13:50:27Z</time>
      </trkpt>
      <trkpt lat="49.39563" lon="-1.62197">
        <ele>27.1</ele>
        <time>2021-12-18T13:50:32Z</time>
      </trkpt>
      <trkpt lat="49.39569" lon="-1.622">
        <ele>26.8</ele>
        <time>2021-12-18T13:50:36Z</time>
      </trkpt>
      <trkpt lat="49.39574" lon="-1.62201">
        <ele>26.5</ele>
        <time>2021-12-18T13:50:40Z</time>
      </trkpt>
      <trkpt lat="49.39579" lon="-1.62201">
        <ele>26.2</ele>
        <time>2021-12-18T13:50:44Z</time>
      </trkpt>
      <trkpt lat="49.39583" lon="-1.62203">
        <ele>26</ele>
        <time>2021-12-18T13:50:47Z</time>
      </trkpt>
      <trkpt lat="49.39588" lon="-1.62204">
        <ele>25.8</ele>
        <time>2021-12-18T13:50:52Z</time>
      </trkpt>
      <trkpt lat="49.39593" lon="-1.62206">
        <ele>25.6</ele>
        <time>2021-12-18T13:50:57Z</time>
      </trkpt>
      <trkpt lat="49.39599" lon="-1.62207">
        <ele>25.4</ele>
        <time>2021-12-18T13:51:02Z</time>
      </trkpt>
      <trkpt lat="49.39604" lon="-1.62208">
        <ele>25.3</ele>
        <time>2021-12-18T13:51:06Z</time>
      </trkpt>
      <trkpt lat="49.39609" lon="-1.62209">
        <ele>25.3</ele>
        <time>2021-12-18T13:51:10Z</time>
      </trkpt>
      <trkpt lat="49.39614" lon="-1.62209">
        <ele>25.2</ele>
        <time>2021-12-18T13:51:15Z</time>
      </trkpt>
      <trkpt lat="49.39619" lon="-1.62208">
        <ele>24.8</ele>
        <time>2021-12-18T13:51:20Z</time>
      </trkpt>
      <trkpt lat="49.39624" lon="-1.62212">
        <ele>24.5</ele>
        <time>2021-12-18T13:51:25Z</time>
      </trkpt>
      <trkpt lat="49.39629" lon="-1.62214">
        <ele>24.2</ele>
        <time>2021-12-18T13:51:31Z</time>
      </trkpt>
      <trkpt lat="49.39634" lon="-1.62215">
        <ele>24</ele>
        <time>2021-12-18T13:51:37Z</time>
      </trkpt>
      <trkpt lat="49.3964" lon="-1.62216">
        <ele>23.9</ele>
        <time>2021-12-18T13:51:43Z</time>
      </trkpt>
      <trkpt lat="49.39646" lon="-1.62219">
        <ele>23.6</ele>
        <time>2021-12-18T13:51:48Z</time>
      </trkpt>
      <trkpt lat="49.3965" lon="-1.6222">
        <ele>23.7</ele>
        <time>2021-12-18T13:52:00Z</time>
      </trkpt>
      <trkpt lat="49.39655" lon="-1.62221">
        <ele>23.2</ele>
        <time>2021-12-18T13:52:15Z</time>
      </trkpt>
      <trkpt lat="49.3966" lon="-1.62222">
        <ele>22.2</ele>
        <time>2021-12-18T13:52:25Z</time>
      </trkpt>
      <trkpt lat="49.39666" lon="-1.62222">
        <ele>21.6</ele>
        <time>2021-12-18T13:52:31Z</time>
      </trkpt>
      <trkpt lat="49.39691" lon="-1.62225">
        <ele>18.4</ele>
        <time>2021-12-18T13:52:46Z</time>
      </trkpt>
      <trkpt lat="49.39696" lon="-1.62225">
        <ele>18.1</ele>
        <time>2021-12-18T13:52:49Z</time>
      </trkpt>
      <trkpt lat="49.39728" lon="-1.62247">
        <ele>18.5</ele>
        <time>2021-12-18T13:53:05Z</time>
      </trkpt>
      <trkpt lat="49.39731" lon="-1.62241">
        <ele>18</ele>
        <time>2021-12-18T13:53:13Z</time>
      </trkpt>
      <trkpt lat="49.39734" lon="-1.62235">
        <ele>17.2</ele>
        <time>2021-12-18T13:53:21Z</time>
      </trkpt>
      <trkpt lat="49.39738" lon="-1.62231">
        <ele>16.6</ele>
        <time>2021-12-18T13:53:25Z</time>
      </trkpt>
      <trkpt lat="49.39743" lon="-1.62228">
        <ele>16.2</ele>
        <time>2021-12-18T13:53:28Z</time>
      </trkpt>
      <trkpt lat="49.39746" lon="-1.62222">
        <ele>15.8</ele>
        <time>2021-12-18T13:53:32Z</time>
      </trkpt>
      <trkpt lat="49.3975" lon="-1.62215">
        <ele>15.8</ele>
        <time>2021-12-18T13:53:36Z</time>
      </trkpt>
      <trkpt lat="49.39756" lon="-1.62212">
        <ele>16.2</ele>
        <time>2021-12-18T13:53:40Z</time>
      </trkpt>
      <trkpt lat="49.3976" lon="-1.62209">
        <ele>16.9</ele>
        <time>2021-12-18T13:53:43Z</time>
      </trkpt>
      <trkpt lat="49.39765" lon="-1.62204">
        <ele>17.1</ele>
        <time>2021-12-18T13:53:48Z</time>
      </trkpt>
      <trkpt lat="49.39768" lon="-1.62196">
        <ele>17.1</ele>
        <time>2021-12-18T13:53:53Z</time>
      </trkpt>
      <trkpt lat="49.39771" lon="-1.6219">
        <ele>17.1</ele>
        <time>2021-12-18T13:53:58Z</time>
      </trkpt>
      <trkpt lat="49.39774" lon="-1.62184">
        <ele>17.2</ele>
        <time>2021-12-18T13:54:02Z</time>
      </trkpt>
      <trkpt lat="49.39776" lon="-1.62178">
        <ele>17.5</ele>
        <time>2021-12-18T13:54:06Z</time>
      </trkpt>
      <trkpt lat="49.3978" lon="-1.62171">
        <ele>17.9</ele>
        <time>2021-12-18T13:54:10Z</time>
      </trkpt>
      <trkpt lat="49.39784" lon="-1.62166">
        <ele>18.2</ele>
        <time>2021-12-18T13:54:14Z</time>
      </trkpt>
      <trkpt lat="49.39789" lon="-1.62161">
        <ele>18.3</ele>
        <time>2021-12-18T13:54:19Z</time>
      </trkpt>
      <trkpt lat="49.39793" lon="-1.62155">
        <ele>18.3</ele>
        <time>2021-12-18T13:54:24Z</time>
      </trkpt>
      <trkpt lat="49.39796" lon="-1.62149">
        <ele>18.3</ele>
        <time>2021-12-18T13:54:28Z</time>
      </trkpt>
      <trkpt lat="49.39799" lon="-1.62143">
        <ele>18.1</ele>
        <time>2021-12-18T13:54:33Z</time>
      </trkpt>
      <trkpt lat="49.39802" lon="-1.62137">
        <ele>17.8</ele>
        <time>2021-12-18T13:54:38Z</time>
      </trkpt>
      <trkpt lat="49.39806" lon="-1.62132">
        <ele>17.7</ele>
        <time>2021-12-18T13:54:43Z</time>
      </trkpt>
      <trkpt lat="49.39809" lon="-1.62126">
        <ele>17.7</ele>
        <time>2021-12-18T13:54:49Z</time>
      </trkpt>
      <trkpt lat="49.39812" lon="-1.6212">
        <ele>17.7</ele>
        <time>2021-12-18T13:54:54Z</time>
      </trkpt>
      <trkpt lat="49.39817" lon="-1.62114">
        <ele>17.6</ele>
        <time>2021-12-18T13:54:59Z</time>
      </trkpt>
      <trkpt lat="49.39822" lon="-1.62109">
        <ele>17.6</ele>
        <time>2021-12-18T13:55:04Z</time>
      </trkpt>
      <trkpt lat="49.39826" lon="-1.62104">
        <ele>18</ele>
        <time>2021-12-18T13:55:08Z</time>
      </trkpt>
      <trkpt lat="49.39829" lon="-1.62099">
        <ele>18.5</ele>
        <time>2021-12-18T13:55:12Z</time>
      </trkpt>
      <trkpt lat="49.39831" lon="-1.62093">
        <ele>18.6</ele>
        <time>2021-12-18T13:55:16Z</time>
      </trkpt>
      <trkpt lat="49.39834" lon="-1.62087">
        <ele>18.4</ele>
        <time>2021-12-18T13:55:21Z</time>
      </trkpt>
      <trkpt lat="49.39837" lon="-1.62081">
        <ele>18.5</ele>
        <time>2021-12-18T13:55:25Z</time>
      </trkpt>
      <trkpt lat="49.39841" lon="-1.62075">
        <ele>18.9</ele>
        <time>2021-12-18T13:55:30Z</time>
      </trkpt>
      <trkpt lat="49.39845" lon="-1.62069">
        <ele>18.9</ele>
        <time>2021-12-18T13:55:35Z</time>
      </trkpt>
      <trkpt lat="49.39849" lon="-1.62065">
        <ele>18.9</ele>
        <time>2021-12-18T13:55:39Z</time>
      </trkpt>
      <trkpt lat="49.39852" lon="-1.62059">
        <ele>19</ele>
        <time>2021-12-18T13:55:43Z</time>
      </trkpt>
      <trkpt lat="49.39857" lon="-1.62053">
        <ele>19.1</ele>
        <time>2021-12-18T13:55:47Z</time>
      </trkpt>
      <trkpt lat="49.3986" lon="-1.62047">
        <ele>19</ele>
        <time>2021-12-18T13:55:52Z</time>
      </trkpt>
      <trkpt lat="49.39863" lon="-1.62042">
        <ele>19</ele>
        <time>2021-12-18T13:55:56Z</time>
      </trkpt>
      <trkpt lat="49.39867" lon="-1.62037">
        <ele>19.3</ele>
        <time>2021-12-18T13:56:01Z</time>
      </trkpt>
      <trkpt lat="49.3987" lon="-1.6203">
        <ele>20</ele>
        <time>2021-12-18T13:56:08Z</time>
      </trkpt>
      <trkpt lat="49.39873" lon="-1.62024">
        <ele>20.3</ele>
        <time>2021-12-18T13:56:14Z</time>
      </trkpt>
      <trkpt lat="49.39877" lon="-1.62019">
        <ele>20.6</ele>
        <time>2021-12-18T13:56:18Z</time>
      </trkpt>
      <trkpt lat="49.39878" lon="-1.62013">
        <ele>22.4</ele>
        <time>2021-12-18T13:56:32Z</time>
      </trkpt>
      <trkpt lat="49.39879" lon="-1.62001">
        <ele>15.5</ele>
        <time>2021-12-18T13:56:54Z</time>
      </trkpt>
      <trkpt lat="49.39879" lon="-1.61994">
        <ele>13.1</ele>
        <time>2021-12-18T13:56:58Z</time>
      </trkpt>
      <trkpt lat="49.39886" lon="-1.61986">
        <ele>10</ele>
        <time>2021-12-18T13:57:03Z</time>
      </trkpt>
      <trkpt lat="49.3989" lon="-1.61983">
        <ele>9.6</ele>
        <time>2021-12-18T13:57:04Z</time>
      </trkpt>
      <trkpt lat="49.39907" lon="-1.6197">
        <ele>9.3</ele>
        <time>2021-12-18T13:57:11Z</time>
      </trkpt>
      <trkpt lat="49.3991" lon="-1.61965">
        <ele>10.1</ele>
        <time>2021-12-18T13:57:16Z</time>
      </trkpt>
      <trkpt lat="49.39914" lon="-1.61962">
        <ele>11.3</ele>
        <time>2021-12-18T13:57:24Z</time>
      </trkpt>
      <trkpt lat="49.39918" lon="-1.61957">
        <ele>11.4</ele>
        <time>2021-12-18T13:57:27Z</time>
      </trkpt>
      <trkpt lat="49.39922" lon="-1.61952">
        <ele>11.2</ele>
        <time>2021-12-18T13:57:30Z</time>
      </trkpt>
      <trkpt lat="49.39926" lon="-1.61947">
        <ele>11.4</ele>
        <time>2021-12-18T13:57:34Z</time>
      </trkpt>
      <trkpt lat="49.39928" lon="-1.61941">
        <ele>12.9</ele>
        <time>2021-12-18T13:57:41Z</time>
      </trkpt>
      <trkpt lat="49.3993" lon="-1.61935">
        <ele>13.7</ele>
        <time>2021-12-18T13:57:44Z</time>
      </trkpt>
      <trkpt lat="49.39933" lon="-1.61926">
        <ele>14.1</ele>
        <time>2021-12-18T13:57:49Z</time>
      </trkpt>
      <trkpt lat="49.39935" lon="-1.61916">
        <ele>14.4</ele>
        <time>2021-12-18T13:57:53Z</time>
      </trkpt>
      <trkpt lat="49.39939" lon="-1.61909">
        <ele>14.6</ele>
        <time>2021-12-18T13:57:58Z</time>
      </trkpt>
      <trkpt lat="49.3994" lon="-1.61902">
        <ele>14.8</ele>
        <time>2021-12-18T13:58:03Z</time>
      </trkpt>
      <trkpt lat="49.3994" lon="-1.61894">
        <ele>15</ele>
        <time>2021-12-18T13:58:08Z</time>
      </trkpt>
      <trkpt lat="49.39939" lon="-1.61886">
        <ele>15</ele>
        <time>2021-12-18T13:58:12Z</time>
      </trkpt>
      <trkpt lat="49.39939" lon="-1.61879">
        <ele>14.8</ele>
        <time>2021-12-18T13:58:16Z</time>
      </trkpt>
      <trkpt lat="49.39939" lon="-1.61871">
        <ele>14.8</ele>
        <time>2021-12-18T13:58:22Z</time>
      </trkpt>
      <trkpt lat="49.39939" lon="-1.61863">
        <ele>15.8</ele>
        <time>2021-12-18T13:58:28Z</time>
      </trkpt>
      <trkpt lat="49.39939" lon="-1.61856">
        <ele>17.2</ele>
        <time>2021-12-18T13:58:38Z</time>
      </trkpt>
      <trkpt lat="49.39941" lon="-1.61848">
        <ele>17.8</ele>
        <time>2021-12-18T13:58:49Z</time>
      </trkpt>
      <trkpt lat="49.39943" lon="-1.61842">
        <ele>16.9</ele>
        <time>2021-12-18T13:59:02Z</time>
      </trkpt>
      <trkpt lat="49.39944" lon="-1.61834">
        <ele>15.8</ele>
        <time>2021-12-18T13:59:23Z</time>
      </trkpt>
      <trkpt lat="49.39948" lon="-1.61829">
        <ele>15.8</ele>
        <time>2021-12-18T13:59:31Z</time>
      </trkpt>
      <trkpt lat="49.39953" lon="-1.61827">
        <ele>15.5</ele>
        <time>2021-12-18T13:59:36Z</time>
      </trkpt>
      <trkpt lat="49.3996" lon="-1.61827">
        <ele>15.1</ele>
        <time>2021-12-18T13:59:46Z</time>
      </trkpt>
      <trkpt lat="49.39966" lon="-1.61828">
        <ele>15.2</ele>
        <time>2021-12-18T13:59:50Z</time>
      </trkpt>
      <trkpt lat="49.39971" lon="-1.61829">
        <ele>15.9</ele>
        <time>2021-12-18T13:59:56Z</time>
      </trkpt>
      <trkpt lat="49.39975" lon="-1.61825">
        <ele>16.3</ele>
        <time>2021-12-18T14:00:09Z</time>
      </trkpt>
      <trkpt lat="49.39981" lon="-1.61823">
        <ele>16.3</ele>
        <time>2021-12-18T14:00:13Z</time>
      </trkpt>
      <trkpt lat="49.39987" lon="-1.61819">
        <ele>16.4</ele>
        <time>2021-12-18T14:00:18Z</time>
      </trkpt>
      <trkpt lat="49.39991" lon="-1.61815">
        <ele>16.5</ele>
        <time>2021-12-18T14:00:22Z</time>
      </trkpt>
      <trkpt lat="49.39994" lon="-1.6181">
        <ele>16.4</ele>
        <time>2021-12-18T14:00:26Z</time>
      </trkpt>
      <trkpt lat="49.39999" lon="-1.61808">
        <ele>17</ele>
        <time>2021-12-18T14:00:45Z</time>
      </trkpt>
      <trkpt lat="49.40004" lon="-1.61807">
        <ele>16.2</ele>
        <time>2021-12-18T14:00:54Z</time>
      </trkpt>
      <trkpt lat="49.40008" lon="-1.61801">
        <ele>15.8</ele>
        <time>2021-12-18T14:01:00Z</time>
      </trkpt>
      <trkpt lat="49.40012" lon="-1.61795">
        <ele>15.7</ele>
        <time>2021-12-18T14:01:04Z</time>
      </trkpt>
      <trkpt lat="49.40018" lon="-1.61792">
        <ele>15.7</ele>
        <time>2021-12-18T14:01:08Z</time>
      </trkpt>
      <trkpt lat="49.40023" lon="-1.61791">
        <ele>15.8</ele>
        <time>2021-12-18T14:01:11Z</time>
      </trkpt>
      <trkpt lat="49.40028" lon="-1.6179">
        <ele>15.8</ele>
        <time>2021-12-18T14:01:13Z</time>
      </trkpt>
      <trkpt lat="49.40033" lon="-1.61787">
        <ele>15.7</ele>
        <time>2021-12-18T14:01:16Z</time>
      </trkpt>
      <trkpt lat="49.40038" lon="-1.61783">
        <ele>15.6</ele>
        <time>2021-12-18T14:01:18Z</time>
      </trkpt>
      <trkpt lat="49.40042" lon="-1.61778">
        <ele>15.2</ele>
        <time>2021-12-18T14:01:21Z</time>
      </trkpt>
      <trkpt lat="49.40046" lon="-1.61772">
        <ele>14.7</ele>
        <time>2021-12-18T14:01:27Z</time>
      </trkpt>
      <trkpt lat="49.40048" lon="-1.61765">
        <ele>14.5</ele>
        <time>2021-12-18T14:01:33Z</time>
      </trkpt>
      <trkpt lat="49.4005" lon="-1.61758">
        <ele>14.2</ele>
        <time>2021-12-18T14:01:37Z</time>
      </trkpt>
      <trkpt lat="49.40052" lon="-1.61751">
        <ele>13.9</ele>
        <time>2021-12-18T14:01:40Z</time>
      </trkpt>
      <trkpt lat="49.40053" lon="-1.61743">
        <ele>13.6</ele>
        <time>2021-12-18T14:01:43Z</time>
      </trkpt>
      <trkpt lat="49.40055" lon="-1.61735">
        <ele>13.7</ele>
        <time>2021-12-18T14:01:48Z</time>
      </trkpt>
      <trkpt lat="49.40058" lon="-1.61743">
        <ele>14.1</ele>
        <time>2021-12-18T14:01:54Z</time>
      </trkpt>
      <trkpt lat="49.40056" lon="-1.61751">
        <ele>14.6</ele>
        <time>2021-12-18T14:01:58Z</time>
      </trkpt>
      <trkpt lat="49.40056" lon="-1.61742">
        <ele>15.5</ele>
        <time>2021-12-18T14:02:15Z</time>
      </trkpt>
      <trkpt lat="49.40059" lon="-1.61735">
        <ele>15.2</ele>
        <time>2021-12-18T14:02:19Z</time>
      </trkpt>
      <trkpt lat="49.4006" lon="-1.61728">
        <ele>15</ele>
        <time>2021-12-18T14:02:23Z</time>
      </trkpt>
      <trkpt lat="49.40062" lon="-1.61721">
        <ele>14.7</ele>
        <time>2021-12-18T14:02:27Z</time>
      </trkpt>
      <trkpt lat="49.40064" lon="-1.61712">
        <ele>14.3</ele>
        <time>2021-12-18T14:02:31Z</time>
      </trkpt>
      <trkpt lat="49.40066" lon="-1.61704">
        <ele>14.1</ele>
        <time>2021-12-18T14:02:34Z</time>
      </trkpt>
      <trkpt lat="49.4007" lon="-1.61698">
        <ele>14</ele>
        <time>2021-12-18T14:02:37Z</time>
      </trkpt>
      <trkpt lat="49.40074" lon="-1.61694">
        <ele>14.2</ele>
        <time>2021-12-18T14:02:41Z</time>
      </trkpt>
      <trkpt lat="49.40079" lon="-1.6169">
        <ele>14.4</ele>
        <time>2021-12-18T14:02:45Z</time>
      </trkpt>
      <trkpt lat="49.40083" lon="-1.61686">
        <ele>14.8</ele>
        <time>2021-12-18T14:02:51Z</time>
      </trkpt>
      <trkpt lat="49.40088" lon="-1.61686">
        <ele>14.3</ele>
        <time>2021-12-18T14:02:56Z</time>
      </trkpt>
      <trkpt lat="49.40096" lon="-1.61688">
        <ele>13.7</ele>
        <time>2021-12-18T14:03:00Z</time>
      </trkpt>
      <trkpt lat="49.40101" lon="-1.61691">
        <ele>13</ele>
        <time>2021-12-18T14:03:04Z</time>
      </trkpt>
      <trkpt lat="49.40108" lon="-1.61689">
        <ele>12.9</ele>
        <time>2021-12-18T14:03:10Z</time>
      </trkpt>
      <trkpt lat="49.40114" lon="-1.61685">
        <ele>12.9</ele>
        <time>2021-12-18T14:03:13Z</time>
      </trkpt>
      <trkpt lat="49.40117" lon="-1.61678">
        <ele>12.9</ele>
        <time>2021-12-18T14:03:16Z</time>
      </trkpt>
      <trkpt lat="49.40119" lon="-1.61664">
        <ele>13</ele>
        <time>2021-12-18T14:03:18Z</time>
      </trkpt>
      <trkpt lat="49.4012" lon="-1.61656">
        <ele>12.9</ele>
        <time>2021-12-18T14:03:20Z</time>
      </trkpt>
      <trkpt lat="49.40121" lon="-1.61647">
        <ele>12.9</ele>
        <time>2021-12-18T14:03:21Z</time>
      </trkpt>
      <trkpt lat="49.4012" lon="-1.6164">
        <ele>12.9</ele>
        <time>2021-12-18T14:03:23Z</time>
      </trkpt>
      <trkpt lat="49.40116" lon="-1.61643">
        <ele>12.9</ele>
        <time>2021-12-18T14:03:30Z</time>
      </trkpt>
      <trkpt lat="49.4012" lon="-1.61635">
        <ele>12.4</ele>
        <time>2021-12-18T14:03:46Z</time>
      </trkpt>
      <trkpt lat="49.40123" lon="-1.6163">
        <ele>12.3</ele>
        <time>2021-12-18T14:03:49Z</time>
      </trkpt>
      <trkpt lat="49.40121" lon="-1.61622">
        <ele>12.2</ele>
        <time>2021-12-18T14:03:55Z</time>
      </trkpt>
      <trkpt lat="49.40119" lon="-1.61613">
        <ele>11.9</ele>
        <time>2021-12-18T14:03:59Z</time>
      </trkpt>
      <trkpt lat="49.40121" lon="-1.61605">
        <ele>11.9</ele>
        <time>2021-12-18T14:04:03Z</time>
      </trkpt>
      <trkpt lat="49.40123" lon="-1.61597">
        <ele>12</ele>
        <time>2021-12-18T14:04:06Z</time>
      </trkpt>
      <trkpt lat="49.40126" lon="-1.6159">
        <ele>12.5</ele>
        <time>2021-12-18T14:04:09Z</time>
      </trkpt>
      <trkpt lat="49.40128" lon="-1.61583">
        <ele>12.6</ele>
        <time>2021-12-18T14:04:13Z</time>
      </trkpt>
      <trkpt lat="49.40132" lon="-1.61575">
        <ele>12.6</ele>
        <time>2021-12-18T14:04:18Z</time>
      </trkpt>
      <trkpt lat="49.40137" lon="-1.6157">
        <ele>12.2</ele>
        <time>2021-12-18T14:04:26Z</time>
      </trkpt>
      <trkpt lat="49.40138" lon="-1.61562">
        <ele>11.9</ele>
        <time>2021-12-18T14:04:29Z</time>
      </trkpt>
      <trkpt lat="49.4014" lon="-1.61555">
        <ele>11.6</ele>
        <time>2021-12-18T14:04:32Z</time>
      </trkpt>
      <trkpt lat="49.40141" lon="-1.61544">
        <ele>11.8</ele>
        <time>2021-12-18T14:04:37Z</time>
      </trkpt>
      <trkpt lat="49.40142" lon="-1.61538">
        <ele>12.1</ele>
        <time>2021-12-18T14:04:45Z</time>
      </trkpt>
      <trkpt lat="49.40145" lon="-1.61531">
        <ele>12</ele>
        <time>2021-12-18T14:04:47Z</time>
      </trkpt>
      <trkpt lat="49.40148" lon="-1.61524">
        <ele>11.9</ele>
        <time>2021-12-18T14:04:50Z</time>
      </trkpt>
      <trkpt lat="49.40151" lon="-1.61518">
        <ele>11.8</ele>
        <time>2021-12-18T14:04:52Z</time>
      </trkpt>
      <trkpt lat="49.40153" lon="-1.61511">
        <ele>11.8</ele>
        <time>2021-12-18T14:04:55Z</time>
      </trkpt>
      <trkpt lat="49.40156" lon="-1.61505">
        <ele>12</ele>
        <time>2021-12-18T14:04:58Z</time>
      </trkpt>
      <trkpt lat="49.4016" lon="-1.61497">
        <ele>12.3</ele>
        <time>2021-12-18T14:05:03Z</time>
      </trkpt>
      <trkpt lat="49.40163" lon="-1.6149">
        <ele>12.2</ele>
        <time>2021-12-18T14:05:07Z</time>
      </trkpt>
      <trkpt lat="49.40165" lon="-1.61483">
        <ele>12.1</ele>
        <time>2021-12-18T14:05:13Z</time>
      </trkpt>
      <trkpt lat="49.40166" lon="-1.61475">
        <ele>12.1</ele>
        <time>2021-12-18T14:05:17Z</time>
      </trkpt>
      <trkpt lat="49.40169" lon="-1.61467">
        <ele>12.1</ele>
        <time>2021-12-18T14:05:20Z</time>
      </trkpt>
      <trkpt lat="49.40172" lon="-1.61459">
        <ele>12.2</ele>
        <time>2021-12-18T14:05:23Z</time>
      </trkpt>
      <trkpt lat="49.40175" lon="-1.61452">
        <ele>12.8</ele>
        <time>2021-12-18T14:05:27Z</time>
      </trkpt>
      <trkpt lat="49.40179" lon="-1.61446">
        <ele>13.6</ele>
        <time>2021-12-18T14:05:31Z</time>
      </trkpt>
      <trkpt lat="49.40182" lon="-1.61439">
        <ele>13.8</ele>
        <time>2021-12-18T14:05:36Z</time>
      </trkpt>
      <trkpt lat="49.40186" lon="-1.61434">
        <ele>13.9</ele>
        <time>2021-12-18T14:05:39Z</time>
      </trkpt>
      <trkpt lat="49.40189" lon="-1.61427">
        <ele>13.9</ele>
        <time>2021-12-18T14:05:43Z</time>
      </trkpt>
      <trkpt lat="49.40192" lon="-1.6142">
        <ele>14</ele>
        <time>2021-12-18T14:05:48Z</time>
      </trkpt>
      <trkpt lat="49.40197" lon="-1.61413">
        <ele>14.3</ele>
        <time>2021-12-18T14:05:53Z</time>
      </trkpt>
      <trkpt lat="49.40201" lon="-1.61409">
        <ele>14.6</ele>
        <time>2021-12-18T14:05:57Z</time>
      </trkpt>
      <trkpt lat="49.40202" lon="-1.614">
        <ele>14.9</ele>
        <time>2021-12-18T14:06:01Z</time>
      </trkpt>
      <trkpt lat="49.40205" lon="-1.61392">
        <ele>15.4</ele>
        <time>2021-12-18T14:06:06Z</time>
      </trkpt>
      <trkpt lat="49.40209" lon="-1.61387">
        <ele>16</ele>
        <time>2021-12-18T14:06:10Z</time>
      </trkpt>
      <trkpt lat="49.40213" lon="-1.6138">
        <ele>16.5</ele>
        <time>2021-12-18T14:06:15Z</time>
      </trkpt>
      <trkpt lat="49.40217" lon="-1.61371">
        <ele>16.7</ele>
        <time>2021-12-18T14:06:19Z</time>
      </trkpt>
      <trkpt lat="49.40219" lon="-1.61361">
        <ele>16.9</ele>
        <time>2021-12-18T14:06:23Z</time>
      </trkpt>
      <trkpt lat="49.40221" lon="-1.61354">
        <ele>17.3</ele>
        <time>2021-12-18T14:06:31Z</time>
      </trkpt>
      <trkpt lat="49.4022" lon="-1.61346">
        <ele>17.3</ele>
        <time>2021-12-18T14:06:36Z</time>
      </trkpt>
      <trkpt lat="49.40218" lon="-1.61338">
        <ele>17.2</ele>
        <time>2021-12-18T14:06:42Z</time>
      </trkpt>
      <trkpt lat="49.40222" lon="-1.61333">
        <ele>17.1</ele>
        <time>2021-12-18T14:06:45Z</time>
      </trkpt>
      <trkpt lat="49.40225" lon="-1.61325">
        <ele>17.1</ele>
        <time>2021-12-18T14:06:48Z</time>
      </trkpt>
      <trkpt lat="49.40227" lon="-1.61318">
        <ele>17.1</ele>
        <time>2021-12-18T14:06:50Z</time>
      </trkpt>
      <trkpt lat="49.40229" lon="-1.61311">
        <ele>17.1</ele>
        <time>2021-12-18T14:06:53Z</time>
      </trkpt>
      <trkpt lat="49.4023" lon="-1.61302">
        <ele>17.1</ele>
        <time>2021-12-18T14:06:56Z</time>
      </trkpt>
      <trkpt lat="49.40231" lon="-1.61294">
        <ele>17.1</ele>
        <time>2021-12-18T14:06:59Z</time>
      </trkpt>
      <trkpt lat="49.40233" lon="-1.61286">
        <ele>17</ele>
        <time>2021-12-18T14:07:03Z</time>
      </trkpt>
      <trkpt lat="49.40235" lon="-1.61279">
        <ele>17</ele>
        <time>2021-12-18T14:07:07Z</time>
      </trkpt>
      <trkpt lat="49.40235" lon="-1.61271">
        <ele>17</ele>
        <time>2021-12-18T14:07:13Z</time>
      </trkpt>
      <trkpt lat="49.40237" lon="-1.61264">
        <ele>17.1</ele>
        <time>2021-12-18T14:07:16Z</time>
      </trkpt>
      <trkpt lat="49.40241" lon="-1.61258">
        <ele>17.1</ele>
        <time>2021-12-18T14:07:20Z</time>
      </trkpt>
      <trkpt lat="49.40241" lon="-1.61251">
        <ele>17.1</ele>
        <time>2021-12-18T14:07:23Z</time>
      </trkpt>
      <trkpt lat="49.40241" lon="-1.61244">
        <ele>17.2</ele>
        <time>2021-12-18T14:07:26Z</time>
      </trkpt>
      <trkpt lat="49.40244" lon="-1.61237">
        <ele>17.2</ele>
        <time>2021-12-18T14:07:30Z</time>
      </trkpt>
      <trkpt lat="49.40248" lon="-1.61232">
        <ele>17.3</ele>
        <time>2021-12-18T14:07:34Z</time>
      </trkpt>
      <trkpt lat="49.4025" lon="-1.61225">
        <ele>17.2</ele>
        <time>2021-12-18T14:07:37Z</time>
      </trkpt>
      <trkpt lat="49.4025" lon="-1.61216">
        <ele>17</ele>
        <time>2021-12-18T14:07:41Z</time>
      </trkpt>
      <trkpt lat="49.40251" lon="-1.61208">
        <ele>16.7</ele>
        <time>2021-12-18T14:07:44Z</time>
      </trkpt>
      <trkpt lat="49.40254" lon="-1.61199">
        <ele>16.6</ele>
        <time>2021-12-18T14:07:48Z</time>
      </trkpt>
      <trkpt lat="49.40257" lon="-1.61189">
        <ele>16.4</ele>
        <time>2021-12-18T14:07:52Z</time>
      </trkpt>
      <trkpt lat="49.40259" lon="-1.61181">
        <ele>16.3</ele>
        <time>2021-12-18T14:07:56Z</time>
      </trkpt>
      <trkpt lat="49.40261" lon="-1.61174">
        <ele>16.3</ele>
        <time>2021-12-18T14:07:59Z</time>
      </trkpt>
      <trkpt lat="49.40263" lon="-1.61166">
        <ele>16.4</ele>
        <time>2021-12-18T14:08:03Z</time>
      </trkpt>
      <trkpt lat="49.40265" lon="-1.61157">
        <ele>16.4</ele>
        <time>2021-12-18T14:08:07Z</time>
      </trkpt>
      <trkpt lat="49.40268" lon="-1.61149">
        <ele>16.5</ele>
        <time>2021-12-18T14:08:11Z</time>
      </trkpt>
      <trkpt lat="49.4027" lon="-1.61143">
        <ele>16.6</ele>
        <time>2021-12-18T14:08:15Z</time>
      </trkpt>
      <trkpt lat="49.40271" lon="-1.61135">
        <ele>16.7</ele>
        <time>2021-12-18T14:08:18Z</time>
      </trkpt>
      <trkpt lat="49.40271" lon="-1.61127">
        <ele>16.5</ele>
        <time>2021-12-18T14:08:22Z</time>
      </trkpt>
      <trkpt lat="49.40273" lon="-1.61121">
        <ele>16.5</ele>
        <time>2021-12-18T14:08:27Z</time>
      </trkpt>
      <trkpt lat="49.40275" lon="-1.61113">
        <ele>16.2</ele>
        <time>2021-12-18T14:08:31Z</time>
      </trkpt>
      <trkpt lat="49.40275" lon="-1.61105">
        <ele>16.1</ele>
        <time>2021-12-18T14:08:36Z</time>
      </trkpt>
      <trkpt lat="49.40276" lon="-1.61098">
        <ele>16</ele>
        <time>2021-12-18T14:08:40Z</time>
      </trkpt>
      <trkpt lat="49.40276" lon="-1.61091">
        <ele>15.9</ele>
        <time>2021-12-18T14:08:44Z</time>
      </trkpt>
      <trkpt lat="49.40274" lon="-1.61083">
        <ele>15.8</ele>
        <time>2021-12-18T14:08:48Z</time>
      </trkpt>
      <trkpt lat="49.40274" lon="-1.61075">
        <ele>15.8</ele>
        <time>2021-12-18T14:08:51Z</time>
      </trkpt>
      <trkpt lat="49.40272" lon="-1.61068">
        <ele>16</ele>
        <time>2021-12-18T14:08:56Z</time>
      </trkpt>
      <trkpt lat="49.40268" lon="-1.61061">
        <ele>16.2</ele>
        <time>2021-12-18T14:09:00Z</time>
      </trkpt>
      <trkpt lat="49.40265" lon="-1.61053">
        <ele>16.2</ele>
        <time>2021-12-18T14:09:05Z</time>
      </trkpt>
      <trkpt lat="49.40259" lon="-1.6105">
        <ele>16.1</ele>
        <time>2021-12-18T14:09:18Z</time>
      </trkpt>
      <trkpt lat="49.40255" lon="-1.61047">
        <ele>15.9</ele>
        <time>2021-12-18T14:09:21Z</time>
      </trkpt>
      <trkpt lat="49.40248" lon="-1.61041">
        <ele>15.2</ele>
        <time>2021-12-18T14:09:36Z</time>
      </trkpt>
      <trkpt lat="49.40242" lon="-1.61035">
        <ele>15.1</ele>
        <time>2021-12-18T14:09:37Z</time>
      </trkpt>
      <trkpt lat="49.40238" lon="-1.61027">
        <ele>15</ele>
        <time>2021-12-18T14:09:38Z</time>
      </trkpt>
      <trkpt lat="49.40233" lon="-1.6102">
        <ele>14.9</ele>
        <time>2021-12-18T14:09:39Z</time>
      </trkpt>
      <trkpt lat="49.40229" lon="-1.61017">
        <ele>14.9</ele>
        <time>2021-12-18T14:09:40Z</time>
      </trkpt>
      <trkpt lat="49.40224" lon="-1.61015">
        <ele>14.9</ele>
        <time>2021-12-18T14:09:41Z</time>
      </trkpt>
      <trkpt lat="49.40217" lon="-1.61014">
        <ele>15.1</ele>
        <time>2021-12-18T14:09:44Z</time>
      </trkpt>
      <trkpt lat="49.40213" lon="-1.61014">
        <ele>15.3</ele>
        <time>2021-12-18T14:09:47Z</time>
      </trkpt>
      <trkpt lat="49.40207" lon="-1.61015">
        <ele>15.3</ele>
        <time>2021-12-18T14:09:53Z</time>
      </trkpt>
      <trkpt lat="49.40201" lon="-1.61019">
        <ele>15.2</ele>
        <time>2021-12-18T14:09:57Z</time>
      </trkpt>
      <trkpt lat="49.40189" lon="-1.61016">
        <ele>15.6</ele>
        <time>2021-12-18T14:10:06Z</time>
      </trkpt>
      <trkpt lat="49.40186" lon="-1.6101">
        <ele>16.1</ele>
        <time>2021-12-18T14:10:09Z</time>
      </trkpt>
      <trkpt lat="49.40184" lon="-1.61002">
        <ele>16.7</ele>
        <time>2021-12-18T14:10:13Z</time>
      </trkpt>
      <trkpt lat="49.40182" lon="-1.60994">
        <ele>17.6</ele>
        <time>2021-12-18T14:10:16Z</time>
      </trkpt>
      <trkpt lat="49.40182" lon="-1.60987">
        <ele>18.2</ele>
        <time>2021-12-18T14:10:20Z</time>
      </trkpt>
      <trkpt lat="49.40181" lon="-1.6098">
        <ele>18</ele>
        <time>2021-12-18T14:10:25Z</time>
      </trkpt>
      <trkpt lat="49.40177" lon="-1.60974">
        <ele>17.3</ele>
        <time>2021-12-18T14:10:29Z</time>
      </trkpt>
      <trkpt lat="49.40177" lon="-1.60967">
        <ele>17</ele>
        <time>2021-12-18T14:10:33Z</time>
      </trkpt>
      <trkpt lat="49.40174" lon="-1.60958">
        <ele>16.6</ele>
        <time>2021-12-18T14:10:36Z</time>
      </trkpt>
      <trkpt lat="49.40172" lon="-1.60951">
        <ele>14.3</ele>
        <time>2021-12-18T14:10:50Z</time>
      </trkpt>
      <trkpt lat="49.4017" lon="-1.60942">
        <ele>14</ele>
        <time>2021-12-18T14:10:54Z</time>
      </trkpt>
      <trkpt lat="49.40166" lon="-1.60934">
        <ele>13.6</ele>
        <time>2021-12-18T14:10:57Z</time>
      </trkpt>
      <trkpt lat="49.40163" lon="-1.60929">
        <ele>13.5</ele>
        <time>2021-12-18T14:11:00Z</time>
      </trkpt>
      <trkpt lat="49.40155" lon="-1.60916">
        <ele>13.8</ele>
        <time>2021-12-18T14:11:06Z</time>
      </trkpt>
      <trkpt lat="49.40151" lon="-1.60908">
        <ele>14.4</ele>
        <time>2021-12-18T14:11:10Z</time>
      </trkpt>
      <trkpt lat="49.40148" lon="-1.60901">
        <ele>14.7</ele>
        <time>2021-12-18T14:11:14Z</time>
      </trkpt>
      <trkpt lat="49.40146" lon="-1.60893">
        <ele>14.9</ele>
        <time>2021-12-18T14:11:18Z</time>
      </trkpt>
      <trkpt lat="49.40142" lon="-1.60887">
        <ele>15.1</ele>
        <time>2021-12-18T14:11:22Z</time>
      </trkpt>
      <trkpt lat="49.4014" lon="-1.60881">
        <ele>15.4</ele>
        <time>2021-12-18T14:11:25Z</time>
      </trkpt>
      <trkpt lat="49.40135" lon="-1.60876">
        <ele>15.8</ele>
        <time>2021-12-18T14:11:30Z</time>
      </trkpt>
      <trkpt lat="49.40132" lon="-1.6087">
        <ele>15.6</ele>
        <time>2021-12-18T14:11:35Z</time>
      </trkpt>
      <trkpt lat="49.40129" lon="-1.60862">
        <ele>15.6</ele>
        <time>2021-12-18T14:11:39Z</time>
      </trkpt>
      <trkpt lat="49.40128" lon="-1.60855">
        <ele>16.1</ele>
        <time>2021-12-18T14:11:43Z</time>
      </trkpt>
      <trkpt lat="49.40125" lon="-1.6085">
        <ele>16.7</ele>
        <time>2021-12-18T14:11:47Z</time>
      </trkpt>
      <trkpt lat="49.40123" lon="-1.60843">
        <ele>17.4</ele>
        <time>2021-12-18T14:11:51Z</time>
      </trkpt>
      <trkpt lat="49.40119" lon="-1.60838">
        <ele>17.8</ele>
        <time>2021-12-18T14:11:56Z</time>
      </trkpt>
      <trkpt lat="49.40115" lon="-1.60831">
        <ele>18.4</ele>
        <time>2021-12-18T14:12:01Z</time>
      </trkpt>
      <trkpt lat="49.40113" lon="-1.60824">
        <ele>19.3</ele>
        <time>2021-12-18T14:12:07Z</time>
      </trkpt>
      <trkpt lat="49.40111" lon="-1.60817">
        <ele>19.8</ele>
        <time>2021-12-18T14:12:12Z</time>
      </trkpt>
      <trkpt lat="49.40108" lon="-1.6081">
        <ele>19.9</ele>
        <time>2021-12-18T14:12:17Z</time>
      </trkpt>
      <trkpt lat="49.40106" lon="-1.60804">
        <ele>19.8</ele>
        <time>2021-12-18T14:12:21Z</time>
      </trkpt>
      <trkpt lat="49.40106" lon="-1.60796">
        <ele>20.1</ele>
        <time>2021-12-18T14:12:26Z</time>
      </trkpt>
      <trkpt lat="49.40104" lon="-1.60789">
        <ele>21.4</ele>
        <time>2021-12-18T14:12:32Z</time>
      </trkpt>
      <trkpt lat="49.40103" lon="-1.60781">
        <ele>23.8</ele>
        <time>2021-12-18T14:12:38Z</time>
      </trkpt>
      <trkpt lat="49.40104" lon="-1.60773">
        <ele>24.4</ele>
        <time>2021-12-18T14:12:42Z</time>
      </trkpt>
      <trkpt lat="49.40104" lon="-1.60764">
        <ele>24.5</ele>
        <time>2021-12-18T14:12:47Z</time>
      </trkpt>
      <trkpt lat="49.40105" lon="-1.60755">
        <ele>24.2</ele>
        <time>2021-12-18T14:12:51Z</time>
      </trkpt>
      <trkpt lat="49.40105" lon="-1.60747">
        <ele>24</ele>
        <time>2021-12-18T14:12:55Z</time>
      </trkpt>
      <trkpt lat="49.40105" lon="-1.60738">
        <ele>23.4</ele>
        <time>2021-12-18T14:12:59Z</time>
      </trkpt>
      <trkpt lat="49.40105" lon="-1.6073">
        <ele>23.3</ele>
        <time>2021-12-18T14:13:03Z</time>
      </trkpt>
      <trkpt lat="49.40105" lon="-1.60721">
        <ele>23.5</ele>
        <time>2021-12-18T14:13:07Z</time>
      </trkpt>
      <trkpt lat="49.40104" lon="-1.60711">
        <ele>24.1</ele>
        <time>2021-12-18T14:13:11Z</time>
      </trkpt>
      <trkpt lat="49.40104" lon="-1.60702">
        <ele>24.5</ele>
        <time>2021-12-18T14:13:15Z</time>
      </trkpt>
      <trkpt lat="49.40105" lon="-1.60695">
        <ele>24.7</ele>
        <time>2021-12-18T14:13:19Z</time>
      </trkpt>
      <trkpt lat="49.40104" lon="-1.60686">
        <ele>24.6</ele>
        <time>2021-12-18T14:13:23Z</time>
      </trkpt>
      <trkpt lat="49.40104" lon="-1.60677">
        <ele>24.8</ele>
        <time>2021-12-18T14:13:28Z</time>
      </trkpt>
      <trkpt lat="49.40103" lon="-1.60669">
        <ele>25.4</ele>
        <time>2021-12-18T14:13:32Z</time>
      </trkpt>
      <trkpt lat="49.40103" lon="-1.60661">
        <ele>25.9</ele>
        <time>2021-12-18T14:13:35Z</time>
      </trkpt>
      <trkpt lat="49.40104" lon="-1.60654">
        <ele>25.8</ele>
        <time>2021-12-18T14:13:40Z</time>
      </trkpt>
      <trkpt lat="49.40105" lon="-1.60647">
        <ele>25.7</ele>
        <time>2021-12-18T14:13:44Z</time>
      </trkpt>
      <trkpt lat="49.40106" lon="-1.60639">
        <ele>25.9</ele>
        <time>2021-12-18T14:13:49Z</time>
      </trkpt>
      <trkpt lat="49.40106" lon="-1.6063">
        <ele>26.1</ele>
        <time>2021-12-18T14:13:54Z</time>
      </trkpt>
      <trkpt lat="49.40104" lon="-1.60623">
        <ele>26.3</ele>
        <time>2021-12-18T14:13:57Z</time>
      </trkpt>
      <trkpt lat="49.40104" lon="-1.60616">
        <ele>26.3</ele>
        <time>2021-12-18T14:14:00Z</time>
      </trkpt>
      <trkpt lat="49.40103" lon="-1.60608">
        <ele>26</ele>
        <time>2021-12-18T14:14:05Z</time>
      </trkpt>
      <trkpt lat="49.40103" lon="-1.60599">
        <ele>25.5</ele>
        <time>2021-12-18T14:14:10Z</time>
      </trkpt>
      <trkpt lat="49.40101" lon="-1.60589">
        <ele>25.1</ele>
        <time>2021-12-18T14:14:15Z</time>
      </trkpt>
      <trkpt lat="49.40101" lon="-1.60581">
        <ele>24.8</ele>
        <time>2021-12-18T14:14:18Z</time>
      </trkpt>
      <trkpt lat="49.40101" lon="-1.60574">
        <ele>24.3</ele>
        <time>2021-12-18T14:14:22Z</time>
      </trkpt>
      <trkpt lat="49.40102" lon="-1.60566">
        <ele>24</ele>
        <time>2021-12-18T14:14:27Z</time>
      </trkpt>
      <trkpt lat="49.40103" lon="-1.60558">
        <ele>23.9</ele>
        <time>2021-12-18T14:14:31Z</time>
      </trkpt>
      <trkpt lat="49.40103" lon="-1.60551">
        <ele>24</ele>
        <time>2021-12-18T14:14:35Z</time>
      </trkpt>
      <trkpt lat="49.40102" lon="-1.60544">
        <ele>24.1</ele>
        <time>2021-12-18T14:14:38Z</time>
      </trkpt>
      <trkpt lat="49.40101" lon="-1.60535">
        <ele>24.3</ele>
        <time>2021-12-18T14:14:42Z</time>
      </trkpt>
      <trkpt lat="49.401" lon="-1.60525">
        <ele>24.5</ele>
        <time>2021-12-18T14:14:47Z</time>
      </trkpt>
      <trkpt lat="49.40101" lon="-1.60516">
        <ele>24.4</ele>
        <time>2021-12-18T14:14:51Z</time>
      </trkpt>
      <trkpt lat="49.40102" lon="-1.60507">
        <ele>24.3</ele>
        <time>2021-12-18T14:14:56Z</time>
      </trkpt>
      <trkpt lat="49.40102" lon="-1.60498">
        <ele>24</ele>
        <time>2021-12-18T14:15:00Z</time>
      </trkpt>
      <trkpt lat="49.40102" lon="-1.60489">
        <ele>23.3</ele>
        <time>2021-12-18T14:15:04Z</time>
      </trkpt>
      <trkpt lat="49.40102" lon="-1.60481">
        <ele>22.5</ele>
        <time>2021-12-18T14:15:07Z</time>
      </trkpt>
      <trkpt lat="49.40101" lon="-1.60474">
        <ele>22.3</ele>
        <time>2021-12-18T14:15:10Z</time>
      </trkpt>
      <trkpt lat="49.40099" lon="-1.60464">
        <ele>22.2</ele>
        <time>2021-12-18T14:15:15Z</time>
      </trkpt>
      <trkpt lat="49.40099" lon="-1.60455">
        <ele>22.1</ele>
        <time>2021-12-18T14:15:19Z</time>
      </trkpt>
      <trkpt lat="49.40099" lon="-1.60447">
        <ele>21.9</ele>
        <time>2021-12-18T14:15:24Z</time>
      </trkpt>
      <trkpt lat="49.40099" lon="-1.60438">
        <ele>21.8</ele>
        <time>2021-12-18T14:15:28Z</time>
      </trkpt>
      <trkpt lat="49.40101" lon="-1.60432">
        <ele>22</ele>
        <time>2021-12-18T14:15:32Z</time>
      </trkpt>
      <trkpt lat="49.40101" lon="-1.60425">
        <ele>22.4</ele>
        <time>2021-12-18T14:15:37Z</time>
      </trkpt>
      <trkpt lat="49.401" lon="-1.60417">
        <ele>22.7</ele>
        <time>2021-12-18T14:15:43Z</time>
      </trkpt>
      <trkpt lat="49.40099" lon="-1.6041">
        <ele>23.3</ele>
        <time>2021-12-18T14:15:52Z</time>
      </trkpt>
      <trkpt lat="49.401" lon="-1.60401">
        <ele>23.6</ele>
        <time>2021-12-18T14:15:58Z</time>
      </trkpt>
      <trkpt lat="49.40099" lon="-1.60393">
        <ele>23.5</ele>
        <time>2021-12-18T14:16:01Z</time>
      </trkpt>
      <trkpt lat="49.40097" lon="-1.60383">
        <ele>23.3</ele>
        <time>2021-12-18T14:16:04Z</time>
      </trkpt>
      <trkpt lat="49.40096" lon="-1.60375">
        <ele>23</ele>
        <time>2021-12-18T14:16:06Z</time>
      </trkpt>
      <trkpt lat="49.40096" lon="-1.60368">
        <ele>22.6</ele>
        <time>2021-12-18T14:16:09Z</time>
      </trkpt>
      <trkpt lat="49.40098" lon="-1.60361">
        <ele>22.1</ele>
        <time>2021-12-18T14:16:12Z</time>
      </trkpt>
      <trkpt lat="49.40097" lon="-1.60353">
        <ele>21.6</ele>
        <time>2021-12-18T14:16:15Z</time>
      </trkpt>
      <trkpt lat="49.40097" lon="-1.60346">
        <ele>21.4</ele>
        <time>2021-12-18T14:16:19Z</time>
      </trkpt>
      <trkpt lat="49.40097" lon="-1.60338">
        <ele>21.2</ele>
        <time>2021-12-18T14:16:23Z</time>
      </trkpt>
      <trkpt lat="49.40097" lon="-1.6033">
        <ele>21.1</ele>
        <time>2021-12-18T14:16:27Z</time>
      </trkpt>
      <trkpt lat="49.40099" lon="-1.60322">
        <ele>21</ele>
        <time>2021-12-18T14:16:32Z</time>
      </trkpt>
      <trkpt lat="49.40099" lon="-1.60314">
        <ele>21.1</ele>
        <time>2021-12-18T14:16:37Z</time>
      </trkpt>
      <trkpt lat="49.40099" lon="-1.60307">
        <ele>21.2</ele>
        <time>2021-12-18T14:16:41Z</time>
      </trkpt>
      <trkpt lat="49.40099" lon="-1.60299">
        <ele>21.1</ele>
        <time>2021-12-18T14:16:46Z</time>
      </trkpt>
      <trkpt lat="49.40099" lon="-1.60292">
        <ele>21.2</ele>
        <time>2021-12-18T14:16:50Z</time>
      </trkpt>
      <trkpt lat="49.40099" lon="-1.60285">
        <ele>21.2</ele>
        <time>2021-12-18T14:16:53Z</time>
      </trkpt>
      <trkpt lat="49.40099" lon="-1.60276">
        <ele>21.6</ele>
        <time>2021-12-18T14:16:58Z</time>
      </trkpt>
      <trkpt lat="49.40099" lon="-1.60269">
        <ele>21.9</ele>
        <time>2021-12-18T14:17:02Z</time>
      </trkpt>
      <trkpt lat="49.40099" lon="-1.60261">
        <ele>22.4</ele>
        <time>2021-12-18T14:17:06Z</time>
      </trkpt>
      <trkpt lat="49.40101" lon="-1.60255">
        <ele>22.6</ele>
        <time>2021-12-18T14:17:11Z</time>
      </trkpt>
      <trkpt lat="49.401" lon="-1.60247">
        <ele>22.4</ele>
        <time>2021-12-18T14:17:16Z</time>
      </trkpt>
      <trkpt lat="49.40099" lon="-1.60239">
        <ele>22.4</ele>
        <time>2021-12-18T14:17:21Z</time>
      </trkpt>
      <trkpt lat="49.401" lon="-1.60232">
        <ele>22.7</ele>
        <time>2021-12-18T14:17:26Z</time>
      </trkpt>
      <trkpt lat="49.401" lon="-1.60224">
        <ele>22.9</ele>
        <time>2021-12-18T14:17:30Z</time>
      </trkpt>
      <trkpt lat="49.40099" lon="-1.60215">
        <ele>23</ele>
        <time>2021-12-18T14:17:35Z</time>
      </trkpt>
      <trkpt lat="49.401" lon="-1.60208">
        <ele>22.8</ele>
        <time>2021-12-18T14:17:39Z</time>
      </trkpt>
      <trkpt lat="49.40099" lon="-1.60201">
        <ele>22.7</ele>
        <time>2021-12-18T14:17:42Z</time>
      </trkpt>
      <trkpt lat="49.401" lon="-1.60193">
        <ele>22.6</ele>
        <time>2021-12-18T14:17:47Z</time>
      </trkpt>
      <trkpt lat="49.40101" lon="-1.60183">
        <ele>23.1</ele>
        <time>2021-12-18T14:17:52Z</time>
      </trkpt>
      <trkpt lat="49.40101" lon="-1.60176">
        <ele>23.8</ele>
        <time>2021-12-18T14:17:56Z</time>
      </trkpt>
      <trkpt lat="49.40101" lon="-1.60167">
        <ele>24.3</ele>
        <time>2021-12-18T14:18:01Z</time>
      </trkpt>
      <trkpt lat="49.40098" lon="-1.6016">
        <ele>24.8</ele>
        <time>2021-12-18T14:18:06Z</time>
      </trkpt>
      <trkpt lat="49.40098" lon="-1.60153">
        <ele>25.2</ele>
        <time>2021-12-18T14:18:10Z</time>
      </trkpt>
      <trkpt lat="49.401" lon="-1.60145">
        <ele>25.9</ele>
        <time>2021-12-18T14:18:15Z</time>
      </trkpt>
      <trkpt lat="49.40102" lon="-1.60137">
        <ele>26.3</ele>
        <time>2021-12-18T14:18:19Z</time>
      </trkpt>
      <trkpt lat="49.40102" lon="-1.6013">
        <ele>26.5</ele>
        <time>2021-12-18T14:18:22Z</time>
      </trkpt>
      <trkpt lat="49.40103" lon="-1.60122">
        <ele>26.1</ele>
        <time>2021-12-18T14:18:27Z</time>
      </trkpt>
      <trkpt lat="49.40102" lon="-1.60114">
        <ele>25.8</ele>
        <time>2021-12-18T14:18:33Z</time>
      </trkpt>
      <trkpt lat="49.40102" lon="-1.60106">
        <ele>25.9</ele>
        <time>2021-12-18T14:18:37Z</time>
      </trkpt>
      <trkpt lat="49.40102" lon="-1.60096">
        <ele>26.1</ele>
        <time>2021-12-18T14:18:43Z</time>
      </trkpt>
      <trkpt lat="49.40103" lon="-1.60089">
        <ele>26.2</ele>
        <time>2021-12-18T14:18:47Z</time>
      </trkpt>
      <trkpt lat="49.40103" lon="-1.60079">
        <ele>26.4</ele>
        <time>2021-12-18T14:18:51Z</time>
      </trkpt>
      <trkpt lat="49.40102" lon="-1.6007">
        <ele>26.5</ele>
        <time>2021-12-18T14:18:55Z</time>
      </trkpt>
      <trkpt lat="49.40102" lon="-1.60063">
        <ele>26.7</ele>
        <time>2021-12-18T14:18:58Z</time>
      </trkpt>
      <trkpt lat="49.40102" lon="-1.60054">
        <ele>26.7</ele>
        <time>2021-12-18T14:19:03Z</time>
      </trkpt>
      <trkpt lat="49.40102" lon="-1.60046">
        <ele>26.7</ele>
        <time>2021-12-18T14:19:06Z</time>
      </trkpt>
      <trkpt lat="49.40101" lon="-1.60038">
        <ele>26.5</ele>
        <time>2021-12-18T14:19:09Z</time>
      </trkpt>
      <trkpt lat="49.40103" lon="-1.60031">
        <ele>26.5</ele>
        <time>2021-12-18T14:19:14Z</time>
      </trkpt>
      <trkpt lat="49.40103" lon="-1.60023">
        <ele>26.6</ele>
        <time>2021-12-18T14:19:23Z</time>
      </trkpt>
      <trkpt lat="49.40102" lon="-1.60015">
        <ele>26.4</ele>
        <time>2021-12-18T14:19:26Z</time>
      </trkpt>
      <trkpt lat="49.40104" lon="-1.60006">
        <ele>26.1</ele>
        <time>2021-12-18T14:19:31Z</time>
      </trkpt>
      <trkpt lat="49.40104" lon="-1.59998">
        <ele>26</ele>
        <time>2021-12-18T14:19:36Z</time>
      </trkpt>
      <trkpt lat="49.40104" lon="-1.59991">
        <ele>25.6</ele>
        <time>2021-12-18T14:19:44Z</time>
      </trkpt>
      <trkpt lat="49.40103" lon="-1.59984">
        <ele>25.6</ele>
        <time>2021-12-18T14:19:48Z</time>
      </trkpt>
      <trkpt lat="49.401" lon="-1.59978">
        <ele>24.5</ele>
        <time>2021-12-18T14:20:04Z</time>
      </trkpt>
      <trkpt lat="49.40095" lon="-1.5998">
        <ele>22.8</ele>
        <time>2021-12-18T14:20:47Z</time>
      </trkpt>
      <trkpt lat="49.40099" lon="-1.59986">
        <ele>22.6</ele>
        <time>2021-12-18T14:21:37Z</time>
      </trkpt>
      <trkpt lat="49.40101" lon="-1.59979">
        <ele>22.5</ele>
        <time>2021-12-18T14:21:42Z</time>
      </trkpt>
      <trkpt lat="49.40102" lon="-1.5997">
        <ele>22.2</ele>
        <time>2021-12-18T14:21:45Z</time>
      </trkpt>
      <trkpt lat="49.40103" lon="-1.59944">
        <ele>21.6</ele>
        <time>2021-12-18T14:21:53Z</time>
      </trkpt>
      <trkpt lat="49.40101" lon="-1.59937">
        <ele>21.4</ele>
        <time>2021-12-18T14:22:00Z</time>
      </trkpt>
      <trkpt lat="49.40102" lon="-1.59928">
        <ele>21.4</ele>
        <time>2021-12-18T14:22:05Z</time>
      </trkpt>
      <trkpt lat="49.40102" lon="-1.5992">
        <ele>21.4</ele>
        <time>2021-12-18T14:22:08Z</time>
      </trkpt>
      <trkpt lat="49.40103" lon="-1.59913">
        <ele>21.6</ele>
        <time>2021-12-18T14:22:11Z</time>
      </trkpt>
      <trkpt lat="49.40105" lon="-1.59906">
        <ele>21.8</ele>
        <time>2021-12-18T14:22:14Z</time>
      </trkpt>
      <trkpt lat="49.40105" lon="-1.59899">
        <ele>21.9</ele>
        <time>2021-12-18T14:22:18Z</time>
      </trkpt>
      <trkpt lat="49.40106" lon="-1.59891">
        <ele>22.3</ele>
        <time>2021-12-18T14:22:22Z</time>
      </trkpt>
      <trkpt lat="49.40107" lon="-1.59881">
        <ele>22.8</ele>
        <time>2021-12-18T14:22:26Z</time>
      </trkpt>
      <trkpt lat="49.40108" lon="-1.59873">
        <ele>23.3</ele>
        <time>2021-12-18T14:22:31Z</time>
      </trkpt>
      <trkpt lat="49.40109" lon="-1.59863">
        <ele>23.6</ele>
        <time>2021-12-18T14:22:36Z</time>
      </trkpt>
      <trkpt lat="49.40108" lon="-1.59855">
        <ele>23.7</ele>
        <time>2021-12-18T14:22:41Z</time>
      </trkpt>
      <trkpt lat="49.40108" lon="-1.59847">
        <ele>23.5</ele>
        <time>2021-12-18T14:22:47Z</time>
      </trkpt>
      <trkpt lat="49.40107" lon="-1.5984">
        <ele>23.3</ele>
        <time>2021-12-18T14:22:50Z</time>
      </trkpt>
      <trkpt lat="49.40106" lon="-1.59833">
        <ele>22.9</ele>
        <time>2021-12-18T14:22:54Z</time>
      </trkpt>
      <trkpt lat="49.40105" lon="-1.59823">
        <ele>22.1</ele>
        <time>2021-12-18T14:22:58Z</time>
      </trkpt>
      <trkpt lat="49.40106" lon="-1.59816">
        <ele>21.5</ele>
        <time>2021-12-18T14:23:03Z</time>
      </trkpt>
      <trkpt lat="49.40107" lon="-1.59808">
        <ele>21.4</ele>
        <time>2021-12-18T14:23:08Z</time>
      </trkpt>
      <trkpt lat="49.40108" lon="-1.598">
        <ele>21.1</ele>
        <time>2021-12-18T14:23:12Z</time>
      </trkpt>
      <trkpt lat="49.40109" lon="-1.59791">
        <ele>20.9</ele>
        <time>2021-12-18T14:23:17Z</time>
      </trkpt>
      <trkpt lat="49.40109" lon="-1.59783">
        <ele>20.8</ele>
        <time>2021-12-18T14:23:21Z</time>
      </trkpt>
      <trkpt lat="49.40108" lon="-1.59773">
        <ele>21.3</ele>
        <time>2021-12-18T14:23:25Z</time>
      </trkpt>
      <trkpt lat="49.40108" lon="-1.59766">
        <ele>21.5</ele>
        <time>2021-12-18T14:23:28Z</time>
      </trkpt>
      <trkpt lat="49.40108" lon="-1.59757">
        <ele>22.1</ele>
        <time>2021-12-18T14:23:32Z</time>
      </trkpt>
      <trkpt lat="49.40108" lon="-1.5975">
        <ele>21.9</ele>
        <time>2021-12-18T14:23:36Z</time>
      </trkpt>
      <trkpt lat="49.40108" lon="-1.59741">
        <ele>20.8</ele>
        <time>2021-12-18T14:23:41Z</time>
      </trkpt>
      <trkpt lat="49.40109" lon="-1.59734">
        <ele>19.5</ele>
        <time>2021-12-18T14:23:47Z</time>
      </trkpt>
      <trkpt lat="49.40111" lon="-1.59726">
        <ele>19.4</ele>
        <time>2021-12-18T14:23:53Z</time>
      </trkpt>
      <trkpt lat="49.40111" lon="-1.59718">
        <ele>19.6</ele>
        <time>2021-12-18T14:23:56Z</time>
      </trkpt>
      <trkpt lat="49.40111" lon="-1.5971">
        <ele>19.9</ele>
        <time>2021-12-18T14:24:00Z</time>
      </trkpt>
      <trkpt lat="49.40111" lon="-1.59702">
        <ele>19.8</ele>
        <time>2021-12-18T14:24:03Z</time>
      </trkpt>
      <trkpt lat="49.4011" lon="-1.59691">
        <ele>19.2</ele>
        <time>2021-12-18T14:24:08Z</time>
      </trkpt>
      <trkpt lat="49.40112" lon="-1.59685">
        <ele>18.6</ele>
        <time>2021-12-18T14:24:12Z</time>
      </trkpt>
      <trkpt lat="49.40117" lon="-1.5968">
        <ele>18.1</ele>
        <time>2021-12-18T14:24:16Z</time>
      </trkpt>
      <trkpt lat="49.40123" lon="-1.59675">
        <ele>17.5</ele>
        <time>2021-12-18T14:24:20Z</time>
      </trkpt>
      <trkpt lat="49.40127" lon="-1.59671">
        <ele>16.9</ele>
        <time>2021-12-18T14:24:24Z</time>
      </trkpt>
      <trkpt lat="49.40129" lon="-1.59664">
        <ele>16.6</ele>
        <time>2021-12-18T14:24:37Z</time>
      </trkpt>
      <trkpt lat="49.40134" lon="-1.59659">
        <ele>16.8</ele>
        <time>2021-12-18T14:24:49Z</time>
      </trkpt>
      <trkpt lat="49.40138" lon="-1.59652">
        <ele>16.5</ele>
        <time>2021-12-18T14:24:54Z</time>
      </trkpt>
      <trkpt lat="49.40141" lon="-1.59644">
        <ele>16.1</ele>
        <time>2021-12-18T14:24:58Z</time>
      </trkpt>
      <trkpt lat="49.40144" lon="-1.59638">
        <ele>16.1</ele>
        <time>2021-12-18T14:25:04Z</time>
      </trkpt>
      <trkpt lat="49.4015" lon="-1.59633">
        <ele>16.7</ele>
        <time>2021-12-18T14:25:12Z</time>
      </trkpt>
      <trkpt lat="49.40156" lon="-1.59628">
        <ele>16.8</ele>
        <time>2021-12-18T14:25:16Z</time>
      </trkpt>
      <trkpt lat="49.4016" lon="-1.59623">
        <ele>17</ele>
        <time>2021-12-18T14:25:18Z</time>
      </trkpt>
      <trkpt lat="49.40163" lon="-1.59618">
        <ele>17.6</ele>
        <time>2021-12-18T14:25:21Z</time>
      </trkpt>
      <trkpt lat="49.40166" lon="-1.59612">
        <ele>18</ele>
        <time>2021-12-18T14:25:25Z</time>
      </trkpt>
      <trkpt lat="49.40171" lon="-1.5961">
        <ele>18.6</ele>
        <time>2021-12-18T14:25:31Z</time>
      </trkpt>
      <trkpt lat="49.40176" lon="-1.59607">
        <ele>18.6</ele>
        <time>2021-12-18T14:25:37Z</time>
      </trkpt>
      <trkpt lat="49.4018" lon="-1.59601">
        <ele>17.9</ele>
        <time>2021-12-18T14:25:41Z</time>
      </trkpt>
      <trkpt lat="49.40184" lon="-1.59597">
        <ele>17.5</ele>
        <time>2021-12-18T14:25:45Z</time>
      </trkpt>
      <trkpt lat="49.40188" lon="-1.59592">
        <ele>17.1</ele>
        <time>2021-12-18T14:25:49Z</time>
      </trkpt>
      <trkpt lat="49.40192" lon="-1.59586">
        <ele>16.8</ele>
        <time>2021-12-18T14:25:54Z</time>
      </trkpt>
      <trkpt lat="49.40196" lon="-1.5958">
        <ele>17</ele>
        <time>2021-12-18T14:25:59Z</time>
      </trkpt>
      <trkpt lat="49.40199" lon="-1.59576">
        <ele>17.3</ele>
        <time>2021-12-18T14:26:03Z</time>
      </trkpt>
      <trkpt lat="49.40202" lon="-1.5957">
        <ele>17.8</ele>
        <time>2021-12-18T14:26:06Z</time>
      </trkpt>
      <trkpt lat="49.40207" lon="-1.59565">
        <ele>18.3</ele>
        <time>2021-12-18T14:26:11Z</time>
      </trkpt>
      <trkpt lat="49.40211" lon="-1.59561">
        <ele>18.8</ele>
        <time>2021-12-18T14:26:16Z</time>
      </trkpt>
      <trkpt lat="49.40215" lon="-1.59556">
        <ele>19.2</ele>
        <time>2021-12-18T14:26:20Z</time>
      </trkpt>
      <trkpt lat="49.40219" lon="-1.59551">
        <ele>19.8</ele>
        <time>2021-12-18T14:26:23Z</time>
      </trkpt>
      <trkpt lat="49.40222" lon="-1.59546">
        <ele>20.5</ele>
        <time>2021-12-18T14:26:28Z</time>
      </trkpt>
      <trkpt lat="49.40227" lon="-1.59541">
        <ele>20.8</ele>
        <time>2021-12-18T14:26:32Z</time>
      </trkpt>
      <trkpt lat="49.40232" lon="-1.59536">
        <ele>21.2</ele>
        <time>2021-12-18T14:26:37Z</time>
      </trkpt>
      <trkpt lat="49.40237" lon="-1.59533">
        <ele>21.6</ele>
        <time>2021-12-18T14:26:42Z</time>
      </trkpt>
      <trkpt lat="49.40242" lon="-1.59529">
        <ele>21.8</ele>
        <time>2021-12-18T14:26:46Z</time>
      </trkpt>
      <trkpt lat="49.40247" lon="-1.59525">
        <ele>22.1</ele>
        <time>2021-12-18T14:26:51Z</time>
      </trkpt>
      <trkpt lat="49.40251" lon="-1.5952">
        <ele>22.8</ele>
        <time>2021-12-18T14:26:56Z</time>
      </trkpt>
      <trkpt lat="49.40254" lon="-1.59515">
        <ele>23.2</ele>
        <time>2021-12-18T14:27:00Z</time>
      </trkpt>
      <trkpt lat="49.40259" lon="-1.59513">
        <ele>23.2</ele>
        <time>2021-12-18T14:27:05Z</time>
      </trkpt>
      <trkpt lat="49.40263" lon="-1.5951">
        <ele>23.3</ele>
        <time>2021-12-18T14:27:09Z</time>
      </trkpt>
      <trkpt lat="49.40267" lon="-1.59507">
        <ele>23.5</ele>
        <time>2021-12-18T14:27:12Z</time>
      </trkpt>
      <trkpt lat="49.40272" lon="-1.59504">
        <ele>24.1</ele>
        <time>2021-12-18T14:27:15Z</time>
      </trkpt>
      <trkpt lat="49.40276" lon="-1.59499">
        <ele>25.5</ele>
        <time>2021-12-18T14:27:20Z</time>
      </trkpt>
      <trkpt lat="49.40279" lon="-1.59494">
        <ele>26.3</ele>
        <time>2021-12-18T14:27:25Z</time>
      </trkpt>
      <trkpt lat="49.40284" lon="-1.5949">
        <ele>26.4</ele>
        <time>2021-12-18T14:27:29Z</time>
      </trkpt>
      <trkpt lat="49.40289" lon="-1.59486">
        <ele>26</ele>
        <time>2021-12-18T14:27:33Z</time>
      </trkpt>
      <trkpt lat="49.40294" lon="-1.59482">
        <ele>25.6</ele>
        <time>2021-12-18T14:27:37Z</time>
      </trkpt>
      <trkpt lat="49.40299" lon="-1.59481">
        <ele>26</ele>
        <time>2021-12-18T14:27:42Z</time>
      </trkpt>
      <trkpt lat="49.40303" lon="-1.59475">
        <ele>26.7</ele>
        <time>2021-12-18T14:27:47Z</time>
      </trkpt>
      <trkpt lat="49.40306" lon="-1.59469">
        <ele>26.8</ele>
        <time>2021-12-18T14:27:51Z</time>
      </trkpt>
      <trkpt lat="49.40309" lon="-1.59464">
        <ele>26.5</ele>
        <time>2021-12-18T14:27:54Z</time>
      </trkpt>
      <trkpt lat="49.40313" lon="-1.59458">
        <ele>26.1</ele>
        <time>2021-12-18T14:27:59Z</time>
      </trkpt>
      <trkpt lat="49.40316" lon="-1.59453">
        <ele>25.9</ele>
        <time>2021-12-18T14:28:04Z</time>
      </trkpt>
      <trkpt lat="49.40321" lon="-1.59448">
        <ele>25.7</ele>
        <time>2021-12-18T14:28:08Z</time>
      </trkpt>
      <trkpt lat="49.40324" lon="-1.59444">
        <ele>25.4</ele>
        <time>2021-12-18T14:28:12Z</time>
      </trkpt>
      <trkpt lat="49.40329" lon="-1.59443">
        <ele>24.7</ele>
        <time>2021-12-18T14:28:15Z</time>
      </trkpt>
      <trkpt lat="49.40334" lon="-1.5944">
        <ele>24</ele>
        <time>2021-12-18T14:28:19Z</time>
      </trkpt>
      <trkpt lat="49.40338" lon="-1.59435">
        <ele>23.5</ele>
        <time>2021-12-18T14:28:23Z</time>
      </trkpt>
      <trkpt lat="49.40343" lon="-1.59432">
        <ele>23</ele>
        <time>2021-12-18T14:28:27Z</time>
      </trkpt>
      <trkpt lat="49.40348" lon="-1.59428">
        <ele>22.7</ele>
        <time>2021-12-18T14:28:32Z</time>
      </trkpt>
      <trkpt lat="49.40353" lon="-1.59424">
        <ele>22.6</ele>
        <time>2021-12-18T14:28:36Z</time>
      </trkpt>
      <trkpt lat="49.40356" lon="-1.5942">
        <ele>22.4</ele>
        <time>2021-12-18T14:28:41Z</time>
      </trkpt>
      <trkpt lat="49.40359" lon="-1.59413">
        <ele>22.4</ele>
        <time>2021-12-18T14:28:45Z</time>
      </trkpt>
      <trkpt lat="49.40364" lon="-1.5941">
        <ele>22.5</ele>
        <time>2021-12-18T14:28:49Z</time>
      </trkpt>
      <trkpt lat="49.40368" lon="-1.59407">
        <ele>22.6</ele>
        <time>2021-12-18T14:28:53Z</time>
      </trkpt>
      <trkpt lat="49.40372" lon="-1.59403">
        <ele>23</ele>
        <time>2021-12-18T14:28:57Z</time>
      </trkpt>
      <trkpt lat="49.40377" lon="-1.594">
        <ele>23.3</ele>
        <time>2021-12-18T14:29:01Z</time>
      </trkpt>
      <trkpt lat="49.40382" lon="-1.59398">
        <ele>23.6</ele>
        <time>2021-12-18T14:29:04Z</time>
      </trkpt>
      <trkpt lat="49.40387" lon="-1.59395">
        <ele>23.9</ele>
        <time>2021-12-18T14:29:07Z</time>
      </trkpt>
      <trkpt lat="49.40392" lon="-1.59392">
        <ele>23.9</ele>
        <time>2021-12-18T14:29:12Z</time>
      </trkpt>
      <trkpt lat="49.40398" lon="-1.59388">
        <ele>23.6</ele>
        <time>2021-12-18T14:29:17Z</time>
      </trkpt>
      <trkpt lat="49.40403" lon="-1.59385">
        <ele>23.4</ele>
        <time>2021-12-18T14:29:20Z</time>
      </trkpt>
      <trkpt lat="49.40408" lon="-1.59383">
        <ele>23.3</ele>
        <time>2021-12-18T14:29:24Z</time>
      </trkpt>
      <trkpt lat="49.40413" lon="-1.59381">
        <ele>23.2</ele>
        <time>2021-12-18T14:29:29Z</time>
      </trkpt>
      <trkpt lat="49.40419" lon="-1.59379">
        <ele>23</ele>
        <time>2021-12-18T14:29:33Z</time>
      </trkpt>
      <trkpt lat="49.40423" lon="-1.59376">
        <ele>22.8</ele>
        <time>2021-12-18T14:29:37Z</time>
      </trkpt>
      <trkpt lat="49.40427" lon="-1.59373">
        <ele>22.7</ele>
        <time>2021-12-18T14:29:40Z</time>
      </trkpt>
      <trkpt lat="49.40433" lon="-1.59369">
        <ele>23.1</ele>
        <time>2021-12-18T14:29:44Z</time>
      </trkpt>
      <trkpt lat="49.40438" lon="-1.59367">
        <ele>24.1</ele>
        <time>2021-12-18T14:29:49Z</time>
      </trkpt>
      <trkpt lat="49.40442" lon="-1.59363">
        <ele>24.8</ele>
        <time>2021-12-18T14:29:53Z</time>
      </trkpt>
      <trkpt lat="49.40446" lon="-1.59359">
        <ele>25.7</ele>
        <time>2021-12-18T14:29:57Z</time>
      </trkpt>
      <trkpt lat="49.40452" lon="-1.59357">
        <ele>26.6</ele>
        <time>2021-12-18T14:30:02Z</time>
      </trkpt>
      <trkpt lat="49.40457" lon="-1.59354">
        <ele>26.9</ele>
        <time>2021-12-18T14:30:07Z</time>
      </trkpt>
      <trkpt lat="49.40462" lon="-1.59354">
        <ele>25.8</ele>
        <time>2021-12-18T14:30:20Z</time>
      </trkpt>
      <trkpt lat="49.40468" lon="-1.59351">
        <ele>25.7</ele>
        <time>2021-12-18T14:30:23Z</time>
      </trkpt>
      <trkpt lat="49.40473" lon="-1.59347">
        <ele>25.7</ele>
        <time>2021-12-18T14:30:26Z</time>
      </trkpt>
      <trkpt lat="49.40478" lon="-1.59344">
        <ele>25.6</ele>
        <time>2021-12-18T14:30:28Z</time>
      </trkpt>
      <trkpt lat="49.40482" lon="-1.59339">
        <ele>25.8</ele>
        <time>2021-12-18T14:30:32Z</time>
      </trkpt>
      <trkpt lat="49.40487" lon="-1.59335">
        <ele>25.9</ele>
        <time>2021-12-18T14:30:35Z</time>
      </trkpt>
      <trkpt lat="49.40491" lon="-1.5933">
        <ele>25.9</ele>
        <time>2021-12-18T14:30:39Z</time>
      </trkpt>
      <trkpt lat="49.40497" lon="-1.59323">
        <ele>25.7</ele>
        <time>2021-12-18T14:30:44Z</time>
      </trkpt>
      <trkpt lat="49.40501" lon="-1.59317">
        <ele>25.5</ele>
        <time>2021-12-18T14:30:48Z</time>
      </trkpt>
      <trkpt lat="49.40506" lon="-1.59313">
        <ele>24.9</ele>
        <time>2021-12-18T14:30:51Z</time>
      </trkpt>
      <trkpt lat="49.40511" lon="-1.5931">
        <ele>24</ele>
        <time>2021-12-18T14:30:55Z</time>
      </trkpt>
      <trkpt lat="49.40515" lon="-1.59306">
        <ele>23.1</ele>
        <time>2021-12-18T14:30:59Z</time>
      </trkpt>
      <trkpt lat="49.4052" lon="-1.59299">
        <ele>22.3</ele>
        <time>2021-12-18T14:31:04Z</time>
      </trkpt>
      <trkpt lat="49.40524" lon="-1.59294">
        <ele>21.8</ele>
        <time>2021-12-18T14:31:08Z</time>
      </trkpt>
      <trkpt lat="49.40528" lon="-1.5929">
        <ele>21.2</ele>
        <time>2021-12-18T14:31:12Z</time>
      </trkpt>
      <trkpt lat="49.40533" lon="-1.59288">
        <ele>21</ele>
        <time>2021-12-18T14:31:17Z</time>
      </trkpt>
      <trkpt lat="49.40538" lon="-1.59286">
        <ele>21.1</ele>
        <time>2021-12-18T14:31:21Z</time>
      </trkpt>
      <trkpt lat="49.40543" lon="-1.59281">
        <ele>21.5</ele>
        <time>2021-12-18T14:31:25Z</time>
      </trkpt>
      <trkpt lat="49.40546" lon="-1.59275">
        <ele>21.9</ele>
        <time>2021-12-18T14:31:28Z</time>
      </trkpt>
      <trkpt lat="49.40549" lon="-1.5927">
        <ele>22</ele>
        <time>2021-12-18T14:31:32Z</time>
      </trkpt>
      <trkpt lat="49.40554" lon="-1.59265">
        <ele>22</ele>
        <time>2021-12-18T14:31:36Z</time>
      </trkpt>
      <trkpt lat="49.40558" lon="-1.59261">
        <ele>22.5</ele>
        <time>2021-12-18T14:31:40Z</time>
      </trkpt>
      <trkpt lat="49.4056" lon="-1.59253">
        <ele>23.5</ele>
        <time>2021-12-18T14:31:44Z</time>
      </trkpt>
      <trkpt lat="49.40556" lon="-1.59249">
        <ele>25.3</ele>
        <time>2021-12-18T14:31:56Z</time>
      </trkpt>
      <trkpt lat="49.40549" lon="-1.59244">
        <ele>25.4</ele>
        <time>2021-12-18T14:32:08Z</time>
      </trkpt>
      <trkpt lat="49.40545" lon="-1.5924">
        <ele>25.1</ele>
        <time>2021-12-18T14:32:10Z</time>
      </trkpt>
      <trkpt lat="49.40539" lon="-1.59234">
        <ele>24.7</ele>
        <time>2021-12-18T14:32:13Z</time>
      </trkpt>
      <trkpt lat="49.40535" lon="-1.5923">
        <ele>24.3</ele>
        <time>2021-12-18T14:32:16Z</time>
      </trkpt>
      <trkpt lat="49.40531" lon="-1.59224">
        <ele>24.2</ele>
        <time>2021-12-18T14:32:19Z</time>
      </trkpt>
      <trkpt lat="49.40527" lon="-1.59219">
        <ele>24.3</ele>
        <time>2021-12-18T14:32:23Z</time>
      </trkpt>
      <trkpt lat="49.40522" lon="-1.59213">
        <ele>24.8</ele>
        <time>2021-12-18T14:32:28Z</time>
      </trkpt>
      <trkpt lat="49.4052" lon="-1.59206">
        <ele>25.3</ele>
        <time>2021-12-18T14:32:32Z</time>
      </trkpt>
      <trkpt lat="49.40524" lon="-1.59199">
        <ele>25.4</ele>
        <time>2021-12-18T14:32:36Z</time>
      </trkpt>
      <trkpt lat="49.40529" lon="-1.592">
        <ele>25.2</ele>
        <time>2021-12-18T14:32:40Z</time>
      </trkpt>
      <trkpt lat="49.40534" lon="-1.59202">
        <ele>24.7</ele>
        <time>2021-12-18T14:32:43Z</time>
      </trkpt>
      <trkpt lat="49.4054" lon="-1.59207">
        <ele>24.4</ele>
        <time>2021-12-18T14:32:48Z</time>
      </trkpt>
      <trkpt lat="49.40546" lon="-1.5921">
        <ele>24.2</ele>
        <time>2021-12-18T14:32:52Z</time>
      </trkpt>
      <trkpt lat="49.40551" lon="-1.59211">
        <ele>24.2</ele>
        <time>2021-12-18T14:32:57Z</time>
      </trkpt>
      <trkpt lat="49.40554" lon="-1.59216">
        <ele>24.2</ele>
        <time>2021-12-18T14:33:01Z</time>
      </trkpt>
      <trkpt lat="49.40559" lon="-1.59218">
        <ele>24.4</ele>
        <time>2021-12-18T14:33:04Z</time>
      </trkpt>
      <trkpt lat="49.40564" lon="-1.5922">
        <ele>24.5</ele>
        <time>2021-12-18T14:33:08Z</time>
      </trkpt>
      <trkpt lat="49.40569" lon="-1.59221">
        <ele>24.9</ele>
        <time>2021-12-18T14:33:12Z</time>
      </trkpt>
      <trkpt lat="49.40574" lon="-1.59217">
        <ele>25.6</ele>
        <time>2021-12-18T14:33:17Z</time>
      </trkpt>
      <trkpt lat="49.4058" lon="-1.59217">
        <ele>26</ele>
        <time>2021-12-18T14:33:22Z</time>
      </trkpt>
      <trkpt lat="49.40585" lon="-1.59215">
        <ele>26.2</ele>
        <time>2021-12-18T14:33:26Z</time>
      </trkpt>
      <trkpt lat="49.4059" lon="-1.59219">
        <ele>26.4</ele>
        <time>2021-12-18T14:33:30Z</time>
      </trkpt>
      <trkpt lat="49.40596" lon="-1.59223">
        <ele>27</ele>
        <time>2021-12-18T14:33:34Z</time>
      </trkpt>
      <trkpt lat="49.40601" lon="-1.59224">
        <ele>27.5</ele>
        <time>2021-12-18T14:33:38Z</time>
      </trkpt>
      <trkpt lat="49.40607" lon="-1.59225">
        <ele>28</ele>
        <time>2021-12-18T14:33:42Z</time>
      </trkpt>
      <trkpt lat="49.40612" lon="-1.59227">
        <ele>28.5</ele>
        <time>2021-12-18T14:33:46Z</time>
      </trkpt>
      <trkpt lat="49.40617" lon="-1.59231">
        <ele>29.1</ele>
        <time>2021-12-18T14:33:51Z</time>
      </trkpt>
      <trkpt lat="49.40622" lon="-1.59231">
        <ele>29.1</ele>
        <time>2021-12-18T14:33:55Z</time>
      </trkpt>
      <trkpt lat="49.40627" lon="-1.59228">
        <ele>28.9</ele>
        <time>2021-12-18T14:33:59Z</time>
      </trkpt>
      <trkpt lat="49.40633" lon="-1.59227">
        <ele>28.6</ele>
        <time>2021-12-18T14:34:03Z</time>
      </trkpt>
      <trkpt lat="49.40638" lon="-1.59225">
        <ele>28.5</ele>
        <time>2021-12-18T14:34:07Z</time>
      </trkpt>
      <trkpt lat="49.40644" lon="-1.59224">
        <ele>28.6</ele>
        <time>2021-12-18T14:34:10Z</time>
      </trkpt>
      <trkpt lat="49.40649" lon="-1.59224">
        <ele>28.7</ele>
        <time>2021-12-18T14:34:13Z</time>
      </trkpt>
      <trkpt lat="49.40655" lon="-1.59223">
        <ele>28.7</ele>
        <time>2021-12-18T14:34:17Z</time>
      </trkpt>
      <trkpt lat="49.4066" lon="-1.5922">
        <ele>28.7</ele>
        <time>2021-12-18T14:34:20Z</time>
      </trkpt>
      <trkpt lat="49.40666" lon="-1.59216">
        <ele>28.7</ele>
        <time>2021-12-18T14:34:25Z</time>
      </trkpt>
      <trkpt lat="49.40672" lon="-1.59214">
        <ele>28.9</ele>
        <time>2021-12-18T14:34:29Z</time>
      </trkpt>
      <trkpt lat="49.40677" lon="-1.5921">
        <ele>29.8</ele>
        <time>2021-12-18T14:34:33Z</time>
      </trkpt>
      <trkpt lat="49.40682" lon="-1.59206">
        <ele>30.4</ele>
        <time>2021-12-18T14:34:37Z</time>
      </trkpt>
      <trkpt lat="49.40688" lon="-1.59204">
        <ele>30.6</ele>
        <time>2021-12-18T14:34:41Z</time>
      </trkpt>
      <trkpt lat="49.40693" lon="-1.59204">
        <ele>30.9</ele>
        <time>2021-12-18T14:34:45Z</time>
      </trkpt>
      <trkpt lat="49.40697" lon="-1.59199">
        <ele>31.2</ele>
        <time>2021-12-18T14:34:49Z</time>
      </trkpt>
      <trkpt lat="49.40702" lon="-1.59194">
        <ele>31.8</ele>
        <time>2021-12-18T14:34:54Z</time>
      </trkpt>
      <trkpt lat="49.40706" lon="-1.59191">
        <ele>32.1</ele>
        <time>2021-12-18T14:34:58Z</time>
      </trkpt>
      <trkpt lat="49.40711" lon="-1.59185">
        <ele>32.1</ele>
        <time>2021-12-18T14:35:02Z</time>
      </trkpt>
      <trkpt lat="49.40715" lon="-1.59181">
        <ele>32</ele>
        <time>2021-12-18T14:35:06Z</time>
      </trkpt>
      <trkpt lat="49.40719" lon="-1.59177">
        <ele>32.1</ele>
        <time>2021-12-18T14:35:09Z</time>
      </trkpt>
      <trkpt lat="49.40723" lon="-1.59173">
        <ele>32.2</ele>
        <time>2021-12-18T14:35:12Z</time>
      </trkpt>
      <trkpt lat="49.40728" lon="-1.5917">
        <ele>32.5</ele>
        <time>2021-12-18T14:35:16Z</time>
      </trkpt>
      <trkpt lat="49.40733" lon="-1.59164">
        <ele>32.8</ele>
        <time>2021-12-18T14:35:24Z</time>
      </trkpt>
      <trkpt lat="49.40738" lon="-1.59158">
        <ele>32.7</ele>
        <time>2021-12-18T14:35:28Z</time>
      </trkpt>
      <trkpt lat="49.40743" lon="-1.59157">
        <ele>32.7</ele>
        <time>2021-12-18T14:35:32Z</time>
      </trkpt>
      <trkpt lat="49.40748" lon="-1.59152">
        <ele>32.9</ele>
        <time>2021-12-18T14:35:35Z</time>
      </trkpt>
      <trkpt lat="49.40753" lon="-1.59146">
        <ele>33.5</ele>
        <time>2021-12-18T14:35:38Z</time>
      </trkpt>
      <trkpt lat="49.40757" lon="-1.59143">
        <ele>34.2</ele>
        <time>2021-12-18T14:35:42Z</time>
      </trkpt>
      <trkpt lat="49.40761" lon="-1.59139">
        <ele>35</ele>
        <time>2021-12-18T14:35:45Z</time>
      </trkpt>
      <trkpt lat="49.40766" lon="-1.59134">
        <ele>35.6</ele>
        <time>2021-12-18T14:35:50Z</time>
      </trkpt>
      <trkpt lat="49.40772" lon="-1.59135">
        <ele>35.7</ele>
        <time>2021-12-18T14:35:54Z</time>
      </trkpt>
      <trkpt lat="49.40777" lon="-1.5913">
        <ele>35.9</ele>
        <time>2021-12-18T14:35:57Z</time>
      </trkpt>
      <trkpt lat="49.40782" lon="-1.59125">
        <ele>36.2</ele>
        <time>2021-12-18T14:35:59Z</time>
      </trkpt>
      <trkpt lat="49.40787" lon="-1.59122">
        <ele>36.6</ele>
        <time>2021-12-18T14:36:02Z</time>
      </trkpt>
      <trkpt lat="49.40792" lon="-1.59118">
        <ele>37.2</ele>
        <time>2021-12-18T14:36:06Z</time>
      </trkpt>
      <trkpt lat="49.40796" lon="-1.59115">
        <ele>37.5</ele>
        <time>2021-12-18T14:36:10Z</time>
      </trkpt>
      <trkpt lat="49.40802" lon="-1.59112">
        <ele>37.7</ele>
        <time>2021-12-18T14:36:14Z</time>
      </trkpt>
      <trkpt lat="49.40808" lon="-1.59109">
        <ele>38</ele>
        <time>2021-12-18T14:36:17Z</time>
      </trkpt>
      <trkpt lat="49.40813" lon="-1.59105">
        <ele>38.3</ele>
        <time>2021-12-18T14:36:21Z</time>
      </trkpt>
      <trkpt lat="49.40817" lon="-1.59102">
        <ele>38.4</ele>
        <time>2021-12-18T14:36:24Z</time>
      </trkpt>
      <trkpt lat="49.40822" lon="-1.59099">
        <ele>38.3</ele>
        <time>2021-12-18T14:36:28Z</time>
      </trkpt>
      <trkpt lat="49.40827" lon="-1.59098">
        <ele>38.6</ele>
        <time>2021-12-18T14:36:32Z</time>
      </trkpt>
      <trkpt lat="49.40833" lon="-1.59096">
        <ele>38.2</ele>
        <time>2021-12-18T14:36:36Z</time>
      </trkpt>
      <trkpt lat="49.40837" lon="-1.59095">
        <ele>38</ele>
        <time>2021-12-18T14:36:39Z</time>
      </trkpt>
      <trkpt lat="49.40842" lon="-1.59092">
        <ele>38.1</ele>
        <time>2021-12-18T14:36:43Z</time>
      </trkpt>
      <trkpt lat="49.40847" lon="-1.59088">
        <ele>38.6</ele>
        <time>2021-12-18T14:36:46Z</time>
      </trkpt>
      <trkpt lat="49.40852" lon="-1.59087">
        <ele>39.1</ele>
        <time>2021-12-18T14:36:50Z</time>
      </trkpt>
      <trkpt lat="49.40857" lon="-1.59086">
        <ele>39.5</ele>
        <time>2021-12-18T14:36:53Z</time>
      </trkpt>
      <trkpt lat="49.40862" lon="-1.59084">
        <ele>39.8</ele>
        <time>2021-12-18T14:36:57Z</time>
      </trkpt>
      <trkpt lat="49.40868" lon="-1.59083">
        <ele>40.4</ele>
        <time>2021-12-18T14:37:01Z</time>
      </trkpt>
      <trkpt lat="49.40873" lon="-1.59081">
        <ele>40.8</ele>
        <time>2021-12-18T14:37:04Z</time>
      </trkpt>
      <trkpt lat="49.40878" lon="-1.59079">
        <ele>41</ele>
        <time>2021-12-18T14:37:09Z</time>
      </trkpt>
      <trkpt lat="49.40884" lon="-1.59076">
        <ele>41.2</ele>
        <time>2021-12-18T14:37:13Z</time>
      </trkpt>
      <trkpt lat="49.4089" lon="-1.59075">
        <ele>41.2</ele>
        <time>2021-12-18T14:37:17Z</time>
      </trkpt>
      <trkpt lat="49.40895" lon="-1.59071">
        <ele>41</ele>
        <time>2021-12-18T14:37:21Z</time>
      </trkpt>
      <trkpt lat="49.409" lon="-1.59068">
        <ele>40.7</ele>
        <time>2021-12-18T14:37:24Z</time>
      </trkpt>
      <trkpt lat="49.40904" lon="-1.59066">
        <ele>40.3</ele>
        <time>2021-12-18T14:37:27Z</time>
      </trkpt>
      <trkpt lat="49.40909" lon="-1.59064">
        <ele>40.1</ele>
        <time>2021-12-18T14:37:31Z</time>
      </trkpt>
      <trkpt lat="49.40915" lon="-1.59064">
        <ele>40.2</ele>
        <time>2021-12-18T14:37:35Z</time>
      </trkpt>
      <trkpt lat="49.40921" lon="-1.59061">
        <ele>40.5</ele>
        <time>2021-12-18T14:37:39Z</time>
      </trkpt>
      <trkpt lat="49.40926" lon="-1.59058">
        <ele>40.7</ele>
        <time>2021-12-18T14:37:43Z</time>
      </trkpt>
      <trkpt lat="49.40932" lon="-1.59055">
        <ele>40.6</ele>
        <time>2021-12-18T14:37:47Z</time>
      </trkpt>
      <trkpt lat="49.40937" lon="-1.59054">
        <ele>40.3</ele>
        <time>2021-12-18T14:37:50Z</time>
      </trkpt>
      <trkpt lat="49.40942" lon="-1.59052">
        <ele>40.2</ele>
        <time>2021-12-18T14:37:54Z</time>
      </trkpt>
      <trkpt lat="49.40948" lon="-1.59049">
        <ele>40.1</ele>
        <time>2021-12-18T14:37:59Z</time>
      </trkpt>
      <trkpt lat="49.40953" lon="-1.59046">
        <ele>39.9</ele>
        <time>2021-12-18T14:38:02Z</time>
      </trkpt>
      <trkpt lat="49.40958" lon="-1.59046">
        <ele>39.8</ele>
        <time>2021-12-18T14:38:06Z</time>
      </trkpt>
      <trkpt lat="49.40959" lon="-1.59054">
        <ele>40.1</ele>
        <time>2021-12-18T14:38:14Z</time>
      </trkpt>
      <trkpt lat="49.40963" lon="-1.59057">
        <ele>40.2</ele>
        <time>2021-12-18T14:38:17Z</time>
      </trkpt>
      <trkpt lat="49.40968" lon="-1.59062">
        <ele>39.8</ele>
        <time>2021-12-18T14:38:21Z</time>
      </trkpt>
      <trkpt lat="49.40969" lon="-1.59069">
        <ele>39.6</ele>
        <time>2021-12-18T14:38:22Z</time>
      </trkpt>
      <trkpt lat="49.40971" lon="-1.59079">
        <ele>39.4</ele>
        <time>2021-12-18T14:38:26Z</time>
      </trkpt>
      <trkpt lat="49.40973" lon="-1.59087">
        <ele>39.4</ele>
        <time>2021-12-18T14:38:30Z</time>
      </trkpt>
      <trkpt lat="49.40976" lon="-1.59097">
        <ele>39.6</ele>
        <time>2021-12-18T14:38:33Z</time>
      </trkpt>
      <trkpt lat="49.40978" lon="-1.59104">
        <ele>39.8</ele>
        <time>2021-12-18T14:38:36Z</time>
      </trkpt>
      <trkpt lat="49.4098" lon="-1.59111">
        <ele>40</ele>
        <time>2021-12-18T14:38:39Z</time>
      </trkpt>
      <trkpt lat="49.40983" lon="-1.59118">
        <ele>40.5</ele>
        <time>2021-12-18T14:38:42Z</time>
      </trkpt>
      <trkpt lat="49.40985" lon="-1.59126">
        <ele>40.6</ele>
        <time>2021-12-18T14:38:45Z</time>
      </trkpt>
      <trkpt lat="49.40986" lon="-1.59133">
        <ele>40.5</ele>
        <time>2021-12-18T14:38:49Z</time>
      </trkpt>
      <trkpt lat="49.40986" lon="-1.59143">
        <ele>40.4</ele>
        <time>2021-12-18T14:38:57Z</time>
      </trkpt>
      <trkpt lat="49.40989" lon="-1.59149">
        <ele>40.4</ele>
        <time>2021-12-18T14:38:59Z</time>
      </trkpt>
      <trkpt lat="49.40992" lon="-1.59157">
        <ele>40.3</ele>
        <time>2021-12-18T14:39:03Z</time>
      </trkpt>
      <trkpt lat="49.40995" lon="-1.59163">
        <ele>40</ele>
        <time>2021-12-18T14:39:07Z</time>
      </trkpt>
      <trkpt lat="49.40995" lon="-1.59172">
        <ele>40.1</ele>
        <time>2021-12-18T14:39:22Z</time>
      </trkpt>
      <trkpt lat="49.40998" lon="-1.59179">
        <ele>40.2</ele>
        <time>2021-12-18T14:39:25Z</time>
      </trkpt>
      <trkpt lat="49.41001" lon="-1.59186">
        <ele>40.5</ele>
        <time>2021-12-18T14:39:28Z</time>
      </trkpt>
      <trkpt lat="49.41004" lon="-1.59192">
        <ele>40.8</ele>
        <time>2021-12-18T14:39:31Z</time>
      </trkpt>
      <trkpt lat="49.41009" lon="-1.592">
        <ele>41.4</ele>
        <time>2021-12-18T14:39:34Z</time>
      </trkpt>
      <trkpt lat="49.41012" lon="-1.59207">
        <ele>41.2</ele>
        <time>2021-12-18T14:39:38Z</time>
      </trkpt>
      <trkpt lat="49.41014" lon="-1.59214">
        <ele>41.4</ele>
        <time>2021-12-18T14:39:41Z</time>
      </trkpt>
      <trkpt lat="49.41015" lon="-1.59221">
        <ele>41.2</ele>
        <time>2021-12-18T14:39:45Z</time>
      </trkpt>
      <trkpt lat="49.41019" lon="-1.59227">
        <ele>41.4</ele>
        <time>2021-12-18T14:39:50Z</time>
      </trkpt>
      <trkpt lat="49.41021" lon="-1.59233">
        <ele>41.6</ele>
        <time>2021-12-18T14:39:53Z</time>
      </trkpt>
      <trkpt lat="49.41023" lon="-1.5924">
        <ele>41.4</ele>
        <time>2021-12-18T14:39:56Z</time>
      </trkpt>
      <trkpt lat="49.41024" lon="-1.59249">
        <ele>41.2</ele>
        <time>2021-12-18T14:40:01Z</time>
      </trkpt>
      <trkpt lat="49.41026" lon="-1.59256">
        <ele>41.3</ele>
        <time>2021-12-18T14:40:05Z</time>
      </trkpt>
      <trkpt lat="49.41029" lon="-1.59264">
        <ele>41.9</ele>
        <time>2021-12-18T14:40:10Z</time>
      </trkpt>
      <trkpt lat="49.41029" lon="-1.59273">
        <ele>42.2</ele>
        <time>2021-12-18T14:40:14Z</time>
      </trkpt>
      <trkpt lat="49.4103" lon="-1.59281">
        <ele>42.7</ele>
        <time>2021-12-18T14:40:18Z</time>
      </trkpt>
      <trkpt lat="49.41031" lon="-1.59289">
        <ele>43.3</ele>
        <time>2021-12-18T14:40:22Z</time>
      </trkpt>
      <trkpt lat="49.41032" lon="-1.59298">
        <ele>43.9</ele>
        <time>2021-12-18T14:40:26Z</time>
      </trkpt>
      <trkpt lat="49.41033" lon="-1.59304">
        <ele>44</ele>
        <time>2021-12-18T14:40:29Z</time>
      </trkpt>
      <trkpt lat="49.41038" lon="-1.59307">
        <ele>43.8</ele>
        <time>2021-12-18T14:40:34Z</time>
      </trkpt>
      <trkpt lat="49.41043" lon="-1.59312">
        <ele>43.6</ele>
        <time>2021-12-18T14:40:39Z</time>
      </trkpt>
      <trkpt lat="49.41046" lon="-1.59318">
        <ele>43.8</ele>
        <time>2021-12-18T14:40:45Z</time>
      </trkpt>
      <trkpt lat="49.41051" lon="-1.59316">
        <ele>43.7</ele>
        <time>2021-12-18T14:40:49Z</time>
      </trkpt>
      <trkpt lat="49.41056" lon="-1.59318">
        <ele>44.6</ele>
        <time>2021-12-18T14:41:13Z</time>
      </trkpt>
      <trkpt lat="49.41062" lon="-1.59322">
        <ele>44.4</ele>
        <time>2021-12-18T14:41:16Z</time>
      </trkpt>
      <trkpt lat="49.41066" lon="-1.59324">
        <ele>44</ele>
        <time>2021-12-18T14:41:18Z</time>
      </trkpt>
      <trkpt lat="49.41072" lon="-1.59327">
        <ele>42.8</ele>
        <time>2021-12-18T14:41:22Z</time>
      </trkpt>
      <trkpt lat="49.41075" lon="-1.59334">
        <ele>42.6</ele>
        <time>2021-12-18T14:41:27Z</time>
      </trkpt>
      <trkpt lat="49.41079" lon="-1.59337">
        <ele>42.8</ele>
        <time>2021-12-18T14:41:30Z</time>
      </trkpt>
      <trkpt lat="49.41084" lon="-1.59338">
        <ele>43.6</ele>
        <time>2021-12-18T14:41:35Z</time>
      </trkpt>
      <trkpt lat="49.41089" lon="-1.59342">
        <ele>43.9</ele>
        <time>2021-12-18T14:41:40Z</time>
      </trkpt>
      <trkpt lat="49.41093" lon="-1.59345">
        <ele>44</ele>
        <time>2021-12-18T14:41:43Z</time>
      </trkpt>
      <trkpt lat="49.41097" lon="-1.59349">
        <ele>44</ele>
        <time>2021-12-18T14:41:47Z</time>
      </trkpt>
      <trkpt lat="49.41102" lon="-1.59354">
        <ele>43.9</ele>
        <time>2021-12-18T14:41:51Z</time>
      </trkpt>
      <trkpt lat="49.41106" lon="-1.59357">
        <ele>43.8</ele>
        <time>2021-12-18T14:41:54Z</time>
      </trkpt>
      <trkpt lat="49.4111" lon="-1.5936">
        <ele>43.8</ele>
        <time>2021-12-18T14:41:56Z</time>
      </trkpt>
      <trkpt lat="49.41117" lon="-1.59363">
        <ele>44</ele>
        <time>2021-12-18T14:42:00Z</time>
      </trkpt>
      <trkpt lat="49.41122" lon="-1.59364">
        <ele>44.1</ele>
        <time>2021-12-18T14:42:05Z</time>
      </trkpt>
      <trkpt lat="49.41126" lon="-1.59372">
        <ele>44.1</ele>
        <time>2021-12-18T14:42:10Z</time>
      </trkpt>
      <trkpt lat="49.4113" lon="-1.59375">
        <ele>44.2</ele>
        <time>2021-12-18T14:42:13Z</time>
      </trkpt>
      <trkpt lat="49.41135" lon="-1.59379">
        <ele>44.4</ele>
        <time>2021-12-18T14:42:18Z</time>
      </trkpt>
      <trkpt lat="49.41139" lon="-1.59382">
        <ele>44.6</ele>
        <time>2021-12-18T14:42:22Z</time>
      </trkpt>
      <trkpt lat="49.41144" lon="-1.59384">
        <ele>44.7</ele>
        <time>2021-12-18T14:42:26Z</time>
      </trkpt>
      <trkpt lat="49.41147" lon="-1.5939">
        <ele>44.9</ele>
        <time>2021-12-18T14:42:31Z</time>
      </trkpt>
      <trkpt lat="49.41152" lon="-1.5939">
        <ele>44.8</ele>
        <time>2021-12-18T14:42:35Z</time>
      </trkpt>
      <trkpt lat="49.41157" lon="-1.59391">
        <ele>44.9</ele>
        <time>2021-12-18T14:42:39Z</time>
      </trkpt>
      <trkpt lat="49.41161" lon="-1.59394">
        <ele>45.1</ele>
        <time>2021-12-18T14:42:43Z</time>
      </trkpt>
      <trkpt lat="49.41166" lon="-1.59397">
        <ele>45.3</ele>
        <time>2021-12-18T14:42:47Z</time>
      </trkpt>
      <trkpt lat="49.41171" lon="-1.59402">
        <ele>45.5</ele>
        <time>2021-12-18T14:42:51Z</time>
      </trkpt>
      <trkpt lat="49.41175" lon="-1.59404">
        <ele>45.8</ele>
        <time>2021-12-18T14:42:56Z</time>
      </trkpt>
      <trkpt lat="49.41181" lon="-1.59407">
        <ele>45.7</ele>
        <time>2021-12-18T14:43:00Z</time>
      </trkpt>
      <trkpt lat="49.41185" lon="-1.5941">
        <ele>45.7</ele>
        <time>2021-12-18T14:43:04Z</time>
      </trkpt>
      <trkpt lat="49.41188" lon="-1.59416">
        <ele>46</ele>
        <time>2021-12-18T14:43:12Z</time>
      </trkpt>
      <trkpt lat="49.41193" lon="-1.59419">
        <ele>46.1</ele>
        <time>2021-12-18T14:43:18Z</time>
      </trkpt>
      <trkpt lat="49.41198" lon="-1.59421">
        <ele>46</ele>
        <time>2021-12-18T14:43:22Z</time>
      </trkpt>
      <trkpt lat="49.41203" lon="-1.59425">
        <ele>45.9</ele>
        <time>2021-12-18T14:43:25Z</time>
      </trkpt>
      <trkpt lat="49.41208" lon="-1.5943">
        <ele>45.9</ele>
        <time>2021-12-18T14:43:29Z</time>
      </trkpt>
      <trkpt lat="49.41213" lon="-1.59434">
        <ele>45.9</ele>
        <time>2021-12-18T14:43:31Z</time>
      </trkpt>
      <trkpt lat="49.41217" lon="-1.59436">
        <ele>45.8</ele>
        <time>2021-12-18T14:43:34Z</time>
      </trkpt>
      <trkpt lat="49.41222" lon="-1.59438">
        <ele>45.9</ele>
        <time>2021-12-18T14:43:38Z</time>
      </trkpt>
      <trkpt lat="49.41228" lon="-1.59439">
        <ele>46</ele>
        <time>2021-12-18T14:43:44Z</time>
      </trkpt>
      <trkpt lat="49.41233" lon="-1.59444">
        <ele>46.4</ele>
        <time>2021-12-18T14:43:48Z</time>
      </trkpt>
      <trkpt lat="49.41238" lon="-1.59447">
        <ele>47.3</ele>
        <time>2021-12-18T14:43:54Z</time>
      </trkpt>
      <trkpt lat="49.41242" lon="-1.5945">
        <ele>47.8</ele>
        <time>2021-12-18T14:43:58Z</time>
      </trkpt>
      <trkpt lat="49.41247" lon="-1.59455">
        <ele>48.3</ele>
        <time>2021-12-18T14:44:03Z</time>
      </trkpt>
      <trkpt lat="49.41251" lon="-1.5946">
        <ele>48.3</ele>
        <time>2021-12-18T14:44:07Z</time>
      </trkpt>
      <trkpt lat="49.41256" lon="-1.59464">
        <ele>48.4</ele>
        <time>2021-12-18T14:44:13Z</time>
      </trkpt>
      <trkpt lat="49.41261" lon="-1.59467">
        <ele>48.3</ele>
        <time>2021-12-18T14:44:18Z</time>
      </trkpt>
      <trkpt lat="49.41266" lon="-1.5947">
        <ele>48</ele>
        <time>2021-12-18T14:44:22Z</time>
      </trkpt>
      <trkpt lat="49.4127" lon="-1.59474">
        <ele>47.8</ele>
        <time>2021-12-18T14:44:26Z</time>
      </trkpt>
      <trkpt lat="49.41276" lon="-1.59478">
        <ele>47.6</ele>
        <time>2021-12-18T14:44:31Z</time>
      </trkpt>
      <trkpt lat="49.4128" lon="-1.59481">
        <ele>47.5</ele>
        <time>2021-12-18T14:44:36Z</time>
      </trkpt>
      <trkpt lat="49.41286" lon="-1.59485">
        <ele>47.5</ele>
        <time>2021-12-18T14:44:40Z</time>
      </trkpt>
      <trkpt lat="49.41291" lon="-1.59488">
        <ele>47.7</ele>
        <time>2021-12-18T14:44:43Z</time>
      </trkpt>
      <trkpt lat="49.41296" lon="-1.59493">
        <ele>47.9</ele>
        <time>2021-12-18T14:44:47Z</time>
      </trkpt>
      <trkpt lat="49.41302" lon="-1.59496">
        <ele>48.1</ele>
        <time>2021-12-18T14:44:51Z</time>
      </trkpt>
      <trkpt lat="49.41307" lon="-1.59498">
        <ele>48.3</ele>
        <time>2021-12-18T14:44:54Z</time>
      </trkpt>
      <trkpt lat="49.41311" lon="-1.59501">
        <ele>48.5</ele>
        <time>2021-12-18T14:44:57Z</time>
      </trkpt>
      <trkpt lat="49.41316" lon="-1.59504">
        <ele>48.8</ele>
        <time>2021-12-18T14:45:00Z</time>
      </trkpt>
      <trkpt lat="49.4132" lon="-1.59508">
        <ele>49</ele>
        <time>2021-12-18T14:45:04Z</time>
      </trkpt>
      <trkpt lat="49.41324" lon="-1.59514">
        <ele>49</ele>
        <time>2021-12-18T14:45:08Z</time>
      </trkpt>
      <trkpt lat="49.41327" lon="-1.59519">
        <ele>49.1</ele>
        <time>2021-12-18T14:45:13Z</time>
      </trkpt>
      <trkpt lat="49.41331" lon="-1.59526">
        <ele>49.7</ele>
        <time>2021-12-18T14:45:18Z</time>
      </trkpt>
      <trkpt lat="49.41333" lon="-1.59533">
        <ele>50</ele>
        <time>2021-12-18T14:45:23Z</time>
      </trkpt>
      <trkpt lat="49.41337" lon="-1.59537">
        <ele>49.7</ele>
        <time>2021-12-18T14:45:28Z</time>
      </trkpt>
      <trkpt lat="49.41342" lon="-1.59541">
        <ele>49.1</ele>
        <time>2021-12-18T14:45:34Z</time>
      </trkpt>
      <trkpt lat="49.41346" lon="-1.59546">
        <ele>49</ele>
        <time>2021-12-18T14:45:40Z</time>
      </trkpt>
      <trkpt lat="49.41349" lon="-1.59551">
        <ele>49.6</ele>
        <time>2021-12-18T14:45:55Z</time>
      </trkpt>
      <trkpt lat="49.41353" lon="-1.59557">
        <ele>49.3</ele>
        <time>2021-12-18T14:46:06Z</time>
      </trkpt>
      <trkpt lat="49.41357" lon="-1.59564">
        <ele>49.1</ele>
        <time>2021-12-18T14:46:08Z</time>
      </trkpt>
      <trkpt lat="49.41361" lon="-1.5957">
        <ele>49</ele>
        <time>2021-12-18T14:46:10Z</time>
      </trkpt>
      <trkpt lat="49.41365" lon="-1.59576">
        <ele>48.9</ele>
        <time>2021-12-18T14:46:13Z</time>
      </trkpt>
      <trkpt lat="49.4137" lon="-1.59581">
        <ele>49</ele>
        <time>2021-12-18T14:46:16Z</time>
      </trkpt>
      <trkpt lat="49.41374" lon="-1.59586">
        <ele>49.1</ele>
        <time>2021-12-18T14:46:19Z</time>
      </trkpt>
      <trkpt lat="49.41379" lon="-1.59592">
        <ele>49.3</ele>
        <time>2021-12-18T14:46:22Z</time>
      </trkpt>
      <trkpt lat="49.41383" lon="-1.59596">
        <ele>49.4</ele>
        <time>2021-12-18T14:46:25Z</time>
      </trkpt>
      <trkpt lat="49.41389" lon="-1.59602">
        <ele>49.4</ele>
        <time>2021-12-18T14:46:27Z</time>
      </trkpt>
      <trkpt lat="49.41395" lon="-1.59607">
        <ele>49.4</ele>
        <time>2021-12-18T14:46:30Z</time>
      </trkpt>
      <trkpt lat="49.41398" lon="-1.59612">
        <ele>49.4</ele>
        <time>2021-12-18T14:46:34Z</time>
      </trkpt>
      <trkpt lat="49.41403" lon="-1.59618">
        <ele>49.5</ele>
        <time>2021-12-18T14:46:38Z</time>
      </trkpt>
      <trkpt lat="49.41407" lon="-1.59623">
        <ele>49.7</ele>
        <time>2021-12-18T14:46:42Z</time>
      </trkpt>
      <trkpt lat="49.41411" lon="-1.59629">
        <ele>50</ele>
        <time>2021-12-18T14:46:45Z</time>
      </trkpt>
      <trkpt lat="49.41415" lon="-1.59634">
        <ele>50.5</ele>
        <time>2021-12-18T14:46:49Z</time>
      </trkpt>
      <trkpt lat="49.41419" lon="-1.59638">
        <ele>50.9</ele>
        <time>2021-12-18T14:46:52Z</time>
      </trkpt>
      <trkpt lat="49.41424" lon="-1.59643">
        <ele>51.1</ele>
        <time>2021-12-18T14:46:56Z</time>
      </trkpt>
      <trkpt lat="49.41428" lon="-1.59648">
        <ele>51.3</ele>
        <time>2021-12-18T14:47:01Z</time>
      </trkpt>
      <trkpt lat="49.41432" lon="-1.59653">
        <ele>51.4</ele>
        <time>2021-12-18T14:47:05Z</time>
      </trkpt>
      <trkpt lat="49.41438" lon="-1.59654">
        <ele>51.3</ele>
        <time>2021-12-18T14:47:10Z</time>
      </trkpt>
      <trkpt lat="49.41444" lon="-1.59655">
        <ele>51.1</ele>
        <time>2021-12-18T14:47:15Z</time>
      </trkpt>
      <trkpt lat="49.4145" lon="-1.59651">
        <ele>51.1</ele>
        <time>2021-12-18T14:47:19Z</time>
      </trkpt>
      <trkpt lat="49.41455" lon="-1.59649">
        <ele>51.2</ele>
        <time>2021-12-18T14:47:22Z</time>
      </trkpt>
      <trkpt lat="49.41461" lon="-1.59648">
        <ele>51</ele>
        <time>2021-12-18T14:47:27Z</time>
      </trkpt>
      <trkpt lat="49.41466" lon="-1.59647">
        <ele>50.6</ele>
        <time>2021-12-18T14:47:31Z</time>
      </trkpt>
      <trkpt lat="49.41471" lon="-1.59647">
        <ele>50.7</ele>
        <time>2021-12-18T14:47:36Z</time>
      </trkpt>
      <trkpt lat="49.41477" lon="-1.59648">
        <ele>51.2</ele>
        <time>2021-12-18T14:47:39Z</time>
      </trkpt>
      <trkpt lat="49.41481" lon="-1.59648">
        <ele>51.6</ele>
        <time>2021-12-18T14:47:43Z</time>
      </trkpt>
      <trkpt lat="49.41487" lon="-1.59649">
        <ele>52.1</ele>
        <time>2021-12-18T14:47:47Z</time>
      </trkpt>
      <trkpt lat="49.41492" lon="-1.59648">
        <ele>52.5</ele>
        <time>2021-12-18T14:47:51Z</time>
      </trkpt>
      <trkpt lat="49.41496" lon="-1.59647">
        <ele>52.7</ele>
        <time>2021-12-18T14:47:54Z</time>
      </trkpt>
      <trkpt lat="49.41501" lon="-1.59646">
        <ele>52.7</ele>
        <time>2021-12-18T14:47:58Z</time>
      </trkpt>
      <trkpt lat="49.41506" lon="-1.59645">
        <ele>53</ele>
        <time>2021-12-18T14:48:02Z</time>
      </trkpt>
      <trkpt lat="49.41512" lon="-1.59644">
        <ele>53</ele>
        <time>2021-12-18T14:48:06Z</time>
      </trkpt>
      <trkpt lat="49.41516" lon="-1.59644">
        <ele>52.9</ele>
        <time>2021-12-18T14:48:10Z</time>
      </trkpt>
      <trkpt lat="49.41522" lon="-1.59645">
        <ele>52.7</ele>
        <time>2021-12-18T14:48:15Z</time>
      </trkpt>
      <trkpt lat="49.41527" lon="-1.59644">
        <ele>52.8</ele>
        <time>2021-12-18T14:48:19Z</time>
      </trkpt>
      <trkpt lat="49.41531" lon="-1.59643">
        <ele>53</ele>
        <time>2021-12-18T14:48:23Z</time>
      </trkpt>
      <trkpt lat="49.41536" lon="-1.59643">
        <ele>53.5</ele>
        <time>2021-12-18T14:48:26Z</time>
      </trkpt>
      <trkpt lat="49.41541" lon="-1.59644">
        <ele>53.9</ele>
        <time>2021-12-18T14:48:31Z</time>
      </trkpt>
      <trkpt lat="49.41547" lon="-1.59643">
        <ele>54.2</ele>
        <time>2021-12-18T14:48:36Z</time>
      </trkpt>
      <trkpt lat="49.41553" lon="-1.59641">
        <ele>54.4</ele>
        <time>2021-12-18T14:48:41Z</time>
      </trkpt>
      <trkpt lat="49.41558" lon="-1.59641">
        <ele>54.9</ele>
        <time>2021-12-18T14:48:45Z</time>
      </trkpt>
      <trkpt lat="49.41563" lon="-1.59639">
        <ele>55.4</ele>
        <time>2021-12-18T14:48:50Z</time>
      </trkpt>
      <trkpt lat="49.41569" lon="-1.59639">
        <ele>55.4</ele>
        <time>2021-12-18T14:48:55Z</time>
      </trkpt>
      <trkpt lat="49.41574" lon="-1.59638">
        <ele>55.5</ele>
        <time>2021-12-18T14:48:59Z</time>
      </trkpt>
      <trkpt lat="49.41579" lon="-1.59637">
        <ele>55.8</ele>
        <time>2021-12-18T14:49:03Z</time>
      </trkpt>
      <trkpt lat="49.41583" lon="-1.59638">
        <ele>56.2</ele>
        <time>2021-12-18T14:49:07Z</time>
      </trkpt>
      <trkpt lat="49.41589" lon="-1.59638">
        <ele>56.7</ele>
        <time>2021-12-18T14:49:11Z</time>
      </trkpt>
      <trkpt lat="49.41593" lon="-1.59638">
        <ele>56.9</ele>
        <time>2021-12-18T14:49:15Z</time>
      </trkpt>
      <trkpt lat="49.41599" lon="-1.59637">
        <ele>57.4</ele>
        <time>2021-12-18T14:49:19Z</time>
      </trkpt>
      <trkpt lat="49.41604" lon="-1.59636">
        <ele>57.5</ele>
        <time>2021-12-18T14:49:23Z</time>
      </trkpt>
      <trkpt lat="49.41608" lon="-1.59636">
        <ele>57.8</ele>
        <time>2021-12-18T14:49:26Z</time>
      </trkpt>
      <trkpt lat="49.41614" lon="-1.59635">
        <ele>58.1</ele>
        <time>2021-12-18T14:49:31Z</time>
      </trkpt>
      <trkpt lat="49.41618" lon="-1.59634">
        <ele>58.3</ele>
        <time>2021-12-18T14:49:35Z</time>
      </trkpt>
      <trkpt lat="49.41624" lon="-1.59634">
        <ele>58.2</ele>
        <time>2021-12-18T14:49:39Z</time>
      </trkpt>
      <trkpt lat="49.4163" lon="-1.59634">
        <ele>58</ele>
        <time>2021-12-18T14:49:43Z</time>
      </trkpt>
      <trkpt lat="49.41635" lon="-1.59633">
        <ele>57.8</ele>
        <time>2021-12-18T14:49:47Z</time>
      </trkpt>
      <trkpt lat="49.4164" lon="-1.59632">
        <ele>57.9</ele>
        <time>2021-12-18T14:49:51Z</time>
      </trkpt>
      <trkpt lat="49.41646" lon="-1.59631">
        <ele>58.3</ele>
        <time>2021-12-18T14:49:56Z</time>
      </trkpt>
      <trkpt lat="49.41651" lon="-1.59629">
        <ele>58.9</ele>
        <time>2021-12-18T14:50:01Z</time>
      </trkpt>
      <trkpt lat="49.41657" lon="-1.5963">
        <ele>59.2</ele>
        <time>2021-12-18T14:50:05Z</time>
      </trkpt>
      <trkpt lat="49.41662" lon="-1.5963">
        <ele>60.2</ele>
        <time>2021-12-18T14:50:10Z</time>
      </trkpt>
      <trkpt lat="49.41668" lon="-1.59629">
        <ele>61.6</ele>
        <time>2021-12-18T14:50:20Z</time>
      </trkpt>
      <trkpt lat="49.41673" lon="-1.59627">
        <ele>61.9</ele>
        <time>2021-12-18T14:50:36Z</time>
      </trkpt>
      <trkpt lat="49.41678" lon="-1.59627">
        <ele>61.9</ele>
        <time>2021-12-18T14:50:42Z</time>
      </trkpt>
      <trkpt lat="49.41683" lon="-1.59628">
        <ele>61.8</ele>
        <time>2021-12-18T14:50:47Z</time>
      </trkpt>
      <trkpt lat="49.41688" lon="-1.59629">
        <ele>61.6</ele>
        <time>2021-12-18T14:50:50Z</time>
      </trkpt>
      <trkpt lat="49.41693" lon="-1.59627">
        <ele>61.3</ele>
        <time>2021-12-18T14:50:54Z</time>
      </trkpt>
      <trkpt lat="49.41697" lon="-1.59621">
        <ele>61.1</ele>
        <time>2021-12-18T14:50:58Z</time>
      </trkpt>
      <trkpt lat="49.41703" lon="-1.59619">
        <ele>61.2</ele>
        <time>2021-12-18T14:51:03Z</time>
      </trkpt>
      <trkpt lat="49.41708" lon="-1.59619">
        <ele>61.4</ele>
        <time>2021-12-18T14:51:06Z</time>
      </trkpt>
      <trkpt lat="49.41712" lon="-1.59622">
        <ele>61.8</ele>
        <time>2021-12-18T14:51:15Z</time>
      </trkpt>
      <trkpt lat="49.41716" lon="-1.59627">
        <ele>61.8</ele>
        <time>2021-12-18T14:51:18Z</time>
      </trkpt>
      <trkpt lat="49.4172" lon="-1.59632">
        <ele>61.8</ele>
        <time>2021-12-18T14:51:22Z</time>
      </trkpt>
      <trkpt lat="49.41722" lon="-1.59638">
        <ele>61.7</ele>
        <time>2021-12-18T14:51:25Z</time>
      </trkpt>
      <trkpt lat="49.41724" lon="-1.59646">
        <ele>61.8</ele>
        <time>2021-12-18T14:51:28Z</time>
      </trkpt>
      <trkpt lat="49.41726" lon="-1.59654">
        <ele>61.8</ele>
        <time>2021-12-18T14:51:31Z</time>
      </trkpt>
      <trkpt lat="49.41727" lon="-1.59662">
        <ele>61.8</ele>
        <time>2021-12-18T14:51:34Z</time>
      </trkpt>
      <trkpt lat="49.4173" lon="-1.59671">
        <ele>62</ele>
        <time>2021-12-18T14:51:39Z</time>
      </trkpt>
      <trkpt lat="49.41732" lon="-1.5968">
        <ele>62.1</ele>
        <time>2021-12-18T14:51:42Z</time>
      </trkpt>
      <trkpt lat="49.41736" lon="-1.59686">
        <ele>62.3</ele>
        <time>2021-12-18T14:51:45Z</time>
      </trkpt>
      <trkpt lat="49.41738" lon="-1.59693">
        <ele>62.4</ele>
        <time>2021-12-18T14:51:49Z</time>
      </trkpt>
      <trkpt lat="49.4174" lon="-1.597">
        <ele>62.6</ele>
        <time>2021-12-18T14:52:00Z</time>
      </trkpt>
      <trkpt lat="49.41737" lon="-1.59706">
        <ele>61.5</ele>
        <time>2021-12-18T14:53:24Z</time>
      </trkpt>
      <trkpt lat="49.41739" lon="-1.59715">
        <ele>61.5</ele>
        <time>2021-12-18T14:53:27Z</time>
      </trkpt>
      <trkpt lat="49.41742" lon="-1.59724">
        <ele>61.5</ele>
        <time>2021-12-18T14:53:31Z</time>
      </trkpt>
      <trkpt lat="49.41743" lon="-1.59731">
        <ele>61.5</ele>
        <time>2021-12-18T14:53:34Z</time>
      </trkpt>
      <trkpt lat="49.41745" lon="-1.59739">
        <ele>61.4</ele>
        <time>2021-12-18T14:53:38Z</time>
      </trkpt>
      <trkpt lat="49.41747" lon="-1.59747">
        <ele>61.3</ele>
        <time>2021-12-18T14:53:42Z</time>
      </trkpt>
      <trkpt lat="49.41748" lon="-1.59755">
        <ele>61.4</ele>
        <time>2021-12-18T14:53:46Z</time>
      </trkpt>
      <trkpt lat="49.41748" lon="-1.59764">
        <ele>61.5</ele>
        <time>2021-12-18T14:53:51Z</time>
      </trkpt>
      <trkpt lat="49.41749" lon="-1.59773">
        <ele>61.6</ele>
        <time>2021-12-18T14:53:55Z</time>
      </trkpt>
      <trkpt lat="49.41751" lon="-1.59781">
        <ele>61.5</ele>
        <time>2021-12-18T14:53:58Z</time>
      </trkpt>
      <trkpt lat="49.41752" lon="-1.59789">
        <ele>61.2</ele>
        <time>2021-12-18T14:54:01Z</time>
      </trkpt>
      <trkpt lat="49.41753" lon="-1.59797">
        <ele>61.1</ele>
        <time>2021-12-18T14:54:05Z</time>
      </trkpt>
      <trkpt lat="49.41754" lon="-1.59805">
        <ele>61.2</ele>
        <time>2021-12-18T14:54:09Z</time>
      </trkpt>
      <trkpt lat="49.41754" lon="-1.59814">
        <ele>61.3</ele>
        <time>2021-12-18T14:54:15Z</time>
      </trkpt>
      <trkpt lat="49.41756" lon="-1.59822">
        <ele>61.5</ele>
        <time>2021-12-18T14:54:18Z</time>
      </trkpt>
      <trkpt lat="49.41758" lon="-1.59829">
        <ele>61.7</ele>
        <time>2021-12-18T14:54:20Z</time>
      </trkpt>
      <trkpt lat="49.4176" lon="-1.59836">
        <ele>62</ele>
        <time>2021-12-18T14:54:24Z</time>
      </trkpt>
      <trkpt lat="49.4176" lon="-1.59843">
        <ele>62.5</ele>
        <time>2021-12-18T14:54:32Z</time>
      </trkpt>
      <trkpt lat="49.41763" lon="-1.59852">
        <ele>62.6</ele>
        <time>2021-12-18T14:54:37Z</time>
      </trkpt>
      <trkpt lat="49.41764" lon="-1.59861">
        <ele>62.6</ele>
        <time>2021-12-18T14:54:40Z</time>
      </trkpt>
      <trkpt lat="49.41764" lon="-1.59869">
        <ele>62.6</ele>
        <time>2021-12-18T14:54:43Z</time>
      </trkpt>
      <trkpt lat="49.41765" lon="-1.59878">
        <ele>62.8</ele>
        <time>2021-12-18T14:54:47Z</time>
      </trkpt>
      <trkpt lat="49.41766" lon="-1.59885">
        <ele>62.8</ele>
        <time>2021-12-18T14:54:50Z</time>
      </trkpt>
      <trkpt lat="49.41767" lon="-1.59893">
        <ele>62.7</ele>
        <time>2021-12-18T14:54:53Z</time>
      </trkpt>
      <trkpt lat="49.41767" lon="-1.599">
        <ele>62.7</ele>
        <time>2021-12-18T14:54:57Z</time>
      </trkpt>
      <trkpt lat="49.41769" lon="-1.59909">
        <ele>63</ele>
        <time>2021-12-18T14:55:02Z</time>
      </trkpt>
      <trkpt lat="49.41769" lon="-1.59918">
        <ele>63.5</ele>
        <time>2021-12-18T14:55:07Z</time>
      </trkpt>
      <trkpt lat="49.4177" lon="-1.59925">
        <ele>63.8</ele>
        <time>2021-12-18T14:55:11Z</time>
      </trkpt>
      <trkpt lat="49.41772" lon="-1.59933">
        <ele>64</ele>
        <time>2021-12-18T14:55:16Z</time>
      </trkpt>
      <trkpt lat="49.41772" lon="-1.5994">
        <ele>64.2</ele>
        <time>2021-12-18T14:55:19Z</time>
      </trkpt>
      <trkpt lat="49.41773" lon="-1.59948">
        <ele>64.2</ele>
        <time>2021-12-18T14:55:24Z</time>
      </trkpt>
      <trkpt lat="49.41775" lon="-1.59973">
        <ele>63.9</ele>
        <time>2021-12-18T14:55:35Z</time>
      </trkpt>
      <trkpt lat="49.41779" lon="-1.5999">
        <ele>63.9</ele>
        <time>2021-12-18T14:55:37Z</time>
      </trkpt>
      <trkpt lat="49.41781" lon="-1.6">
        <ele>63.8</ele>
        <time>2021-12-18T14:55:39Z</time>
      </trkpt>
      <trkpt lat="49.41783" lon="-1.60012">
        <ele>63.8</ele>
        <time>2021-12-18T14:55:41Z</time>
      </trkpt>
      <trkpt lat="49.41784" lon="-1.60021">
        <ele>63.6</ele>
        <time>2021-12-18T14:55:43Z</time>
      </trkpt>
      <trkpt lat="49.41785" lon="-1.60031">
        <ele>63.4</ele>
        <time>2021-12-18T14:55:47Z</time>
      </trkpt>
      <trkpt lat="49.41783" lon="-1.60024">
        <ele>63.3</ele>
        <time>2021-12-18T14:55:51Z</time>
      </trkpt>
      <trkpt lat="49.41785" lon="-1.60031">
        <ele>63.1</ele>
        <time>2021-12-18T14:56:02Z</time>
      </trkpt>
      <trkpt lat="49.41785" lon="-1.60041">
        <ele>63.1</ele>
        <time>2021-12-18T14:56:06Z</time>
      </trkpt>
      <trkpt lat="49.41781" lon="-1.60048">
        <ele>63</ele>
        <time>2021-12-18T14:56:09Z</time>
      </trkpt>
      <trkpt lat="49.41785" lon="-1.60043">
        <ele>62.4</ele>
        <time>2021-12-18T14:56:25Z</time>
      </trkpt>
      <trkpt lat="49.41784" lon="-1.60051">
        <ele>63.6</ele>
        <time>2021-12-18T14:57:05Z</time>
      </trkpt>
      <trkpt lat="49.41786" lon="-1.60061">
        <ele>63.5</ele>
        <time>2021-12-18T14:57:07Z</time>
      </trkpt>
      <trkpt lat="49.41786" lon="-1.60071">
        <ele>63.5</ele>
        <time>2021-12-18T14:57:10Z</time>
      </trkpt>
      <trkpt lat="49.41787" lon="-1.60079">
        <ele>63.4</ele>
        <time>2021-12-18T14:57:13Z</time>
      </trkpt>
      <trkpt lat="49.41788" lon="-1.60086">
        <ele>63.5</ele>
        <time>2021-12-18T14:57:16Z</time>
      </trkpt>
      <trkpt lat="49.41789" lon="-1.60095">
        <ele>63.6</ele>
        <time>2021-12-18T14:57:20Z</time>
      </trkpt>
      <trkpt lat="49.41791" lon="-1.60103">
        <ele>63.6</ele>
        <time>2021-12-18T14:57:23Z</time>
      </trkpt>
      <trkpt lat="49.41791" lon="-1.60111">
        <ele>63.7</ele>
        <time>2021-12-18T14:57:27Z</time>
      </trkpt>
      <trkpt lat="49.41791" lon="-1.6012">
        <ele>63.9</ele>
        <time>2021-12-18T14:57:32Z</time>
      </trkpt>
      <trkpt lat="49.41792" lon="-1.60128">
        <ele>64.2</ele>
        <time>2021-12-18T14:57:35Z</time>
      </trkpt>
      <trkpt lat="49.41794" lon="-1.60137">
        <ele>64.3</ele>
        <time>2021-12-18T14:57:40Z</time>
      </trkpt>
      <trkpt lat="49.41796" lon="-1.60143">
        <ele>64.1</ele>
        <time>2021-12-18T14:57:42Z</time>
      </trkpt>
      <trkpt lat="49.41797" lon="-1.60152">
        <ele>63.9</ele>
        <time>2021-12-18T14:57:46Z</time>
      </trkpt>
      <trkpt lat="49.41797" lon="-1.6016">
        <ele>63.5</ele>
        <time>2021-12-18T14:57:50Z</time>
      </trkpt>
      <trkpt lat="49.41799" lon="-1.60169">
        <ele>63.3</ele>
        <time>2021-12-18T14:57:54Z</time>
      </trkpt>
      <trkpt lat="49.41799" lon="-1.60176">
        <ele>63.1</ele>
        <time>2021-12-18T14:57:57Z</time>
      </trkpt>
      <trkpt lat="49.418" lon="-1.60186">
        <ele>63.2</ele>
        <time>2021-12-18T14:58:02Z</time>
      </trkpt>
      <trkpt lat="49.418" lon="-1.60196">
        <ele>63.3</ele>
        <time>2021-12-18T14:58:06Z</time>
      </trkpt>
      <trkpt lat="49.418" lon="-1.60206">
        <ele>63.5</ele>
        <time>2021-12-18T14:58:08Z</time>
      </trkpt>
      <trkpt lat="49.41799" lon="-1.60214">
        <ele>63.5</ele>
        <time>2021-12-18T14:58:09Z</time>
      </trkpt>
      <trkpt lat="49.41794" lon="-1.6022">
        <ele>63.6</ele>
        <time>2021-12-18T14:58:12Z</time>
      </trkpt>
      <trkpt lat="49.41788" lon="-1.60221">
        <ele>63.5</ele>
        <time>2021-12-18T14:58:14Z</time>
      </trkpt>
      <trkpt lat="49.41777" lon="-1.60223">
        <ele>63.2</ele>
        <time>2021-12-18T14:58:17Z</time>
      </trkpt>
      <trkpt lat="49.41773" lon="-1.60225">
        <ele>63</ele>
        <time>2021-12-18T14:58:18Z</time>
      </trkpt>
      <trkpt lat="49.41767" lon="-1.60229">
        <ele>62.8</ele>
        <time>2021-12-18T14:58:20Z</time>
      </trkpt>
      <trkpt lat="49.41761" lon="-1.60228">
        <ele>62.1</ele>
        <time>2021-12-18T14:58:24Z</time>
      </trkpt>
      <trkpt lat="49.41765" lon="-1.60225">
        <ele>60.9</ele>
        <time>2021-12-18T14:58:35Z</time>
      </trkpt>
      <trkpt lat="49.41761" lon="-1.60229">
        <ele>60.1</ele>
        <time>2021-12-18T14:58:49Z</time>
      </trkpt>
      <trkpt lat="49.41757" lon="-1.60226">
        <ele>59.8</ele>
        <time>2021-12-18T14:58:52Z</time>
      </trkpt>
      <trkpt lat="49.41752" lon="-1.60227">
        <ele>59.6</ele>
        <time>2021-12-18T14:58:56Z</time>
      </trkpt>
      <trkpt lat="49.41748" lon="-1.60232">
        <ele>59.4</ele>
        <time>2021-12-18T14:59:00Z</time>
      </trkpt>
      <trkpt lat="49.41744" lon="-1.60236">
        <ele>59.3</ele>
        <time>2021-12-18T14:59:04Z</time>
      </trkpt>
      <trkpt lat="49.41739" lon="-1.60239">
        <ele>59.2</ele>
        <time>2021-12-18T14:59:09Z</time>
      </trkpt>
      <trkpt lat="49.41733" lon="-1.60238">
        <ele>59.2</ele>
        <time>2021-12-18T14:59:12Z</time>
      </trkpt>
      <trkpt lat="49.41728" lon="-1.60236">
        <ele>59.3</ele>
        <time>2021-12-18T14:59:16Z</time>
      </trkpt>
      <trkpt lat="49.41722" lon="-1.60234">
        <ele>59.3</ele>
        <time>2021-12-18T14:59:20Z</time>
      </trkpt>
      <trkpt lat="49.41717" lon="-1.60234">
        <ele>59.4</ele>
        <time>2021-12-18T14:59:24Z</time>
      </trkpt>
      <trkpt lat="49.41712" lon="-1.60237">
        <ele>59.3</ele>
        <time>2021-12-18T14:59:27Z</time>
      </trkpt>
      <trkpt lat="49.41707" lon="-1.60238">
        <ele>59.3</ele>
        <time>2021-12-18T14:59:31Z</time>
      </trkpt>
      <trkpt lat="49.41702" lon="-1.6024">
        <ele>58.6</ele>
        <time>2021-12-18T14:59:36Z</time>
      </trkpt>
      <trkpt lat="49.41699" lon="-1.60236">
        <ele>58</ele>
        <time>2021-12-18T14:59:45Z</time>
      </trkpt>
      <trkpt lat="49.41694" lon="-1.60236">
        <ele>57.8</ele>
        <time>2021-12-18T14:59:47Z</time>
      </trkpt>
      <trkpt lat="49.41689" lon="-1.60238">
        <ele>57.6</ele>
        <time>2021-12-18T14:59:50Z</time>
      </trkpt>
      <trkpt lat="49.41684" lon="-1.60243">
        <ele>57.3</ele>
        <time>2021-12-18T14:59:53Z</time>
      </trkpt>
      <trkpt lat="49.4168" lon="-1.60245">
        <ele>57.1</ele>
        <time>2021-12-18T14:59:55Z</time>
      </trkpt>
      <trkpt lat="49.41676" lon="-1.60248">
        <ele>56.8</ele>
        <time>2021-12-18T15:00:06Z</time>
      </trkpt>
      <trkpt lat="49.4167" lon="-1.6025">
        <ele>55.5</ele>
        <time>2021-12-18T15:00:37Z</time>
      </trkpt>
      <trkpt lat="49.41665" lon="-1.60249">
        <ele>55.3</ele>
        <time>2021-12-18T15:00:50Z</time>
      </trkpt>
      <trkpt lat="49.41659" lon="-1.60251">
        <ele>55.2</ele>
        <time>2021-12-18T15:00:55Z</time>
      </trkpt>
      <trkpt lat="49.41654" lon="-1.60252">
        <ele>55.1</ele>
        <time>2021-12-18T15:00:58Z</time>
      </trkpt>
      <trkpt lat="49.4165" lon="-1.60254">
        <ele>55.1</ele>
        <time>2021-12-18T15:01:00Z</time>
      </trkpt>
      <trkpt lat="49.41645" lon="-1.60257">
        <ele>55.3</ele>
        <time>2021-12-18T15:01:04Z</time>
      </trkpt>
      <trkpt lat="49.4164" lon="-1.60258">
        <ele>55.5</ele>
        <time>2021-12-18T15:01:07Z</time>
      </trkpt>
      <trkpt lat="49.41634" lon="-1.60259">
        <ele>55.4</ele>
        <time>2021-12-18T15:01:11Z</time>
      </trkpt>
      <trkpt lat="49.41629" lon="-1.6026">
        <ele>55.2</ele>
        <time>2021-12-18T15:01:15Z</time>
      </trkpt>
      <trkpt lat="49.41624" lon="-1.60259">
        <ele>55</ele>
        <time>2021-12-18T15:01:19Z</time>
      </trkpt>
      <trkpt lat="49.4162" lon="-1.60261">
        <ele>55.2</ele>
        <time>2021-12-18T15:01:24Z</time>
      </trkpt>
      <trkpt lat="49.41624" lon="-1.60259">
        <ele>55.1</ele>
        <time>2021-12-18T15:04:06Z</time>
      </trkpt>
      <trkpt lat="49.41619" lon="-1.60261">
        <ele>54.8</ele>
        <time>2021-12-18T15:05:14Z</time>
      </trkpt>
      <trkpt lat="49.41614" lon="-1.60259">
        <ele>55.7</ele>
        <time>2021-12-18T15:05:33Z</time>
      </trkpt>
      <trkpt lat="49.41609" lon="-1.60258">
        <ele>55.7</ele>
        <time>2021-12-18T15:05:38Z</time>
      </trkpt>
      <trkpt lat="49.41604" lon="-1.60255">
        <ele>55.5</ele>
        <time>2021-12-18T15:05:41Z</time>
      </trkpt>
      <trkpt lat="49.41599" lon="-1.60254">
        <ele>55.1</ele>
        <time>2021-12-18T15:05:45Z</time>
      </trkpt>
      <trkpt lat="49.41594" lon="-1.60252">
        <ele>55</ele>
        <time>2021-12-18T15:05:50Z</time>
      </trkpt>
      <trkpt lat="49.41588" lon="-1.6025">
        <ele>55.3</ele>
        <time>2021-12-18T15:05:56Z</time>
      </trkpt>
      <trkpt lat="49.41582" lon="-1.60247">
        <ele>55.3</ele>
        <time>2021-12-18T15:06:02Z</time>
      </trkpt>
      <trkpt lat="49.41577" lon="-1.60245">
        <ele>55.1</ele>
        <time>2021-12-18T15:06:05Z</time>
      </trkpt>
      <trkpt lat="49.41572" lon="-1.60245">
        <ele>54.8</ele>
        <time>2021-12-18T15:06:09Z</time>
      </trkpt>
      <trkpt lat="49.41566" lon="-1.60244">
        <ele>54.7</ele>
        <time>2021-12-18T15:06:13Z</time>
      </trkpt>
      <trkpt lat="49.41561" lon="-1.60246">
        <ele>54.2</ele>
        <time>2021-12-18T15:06:17Z</time>
      </trkpt>
      <trkpt lat="49.41556" lon="-1.60243">
        <ele>53.8</ele>
        <time>2021-12-18T15:06:22Z</time>
      </trkpt>
      <trkpt lat="49.41551" lon="-1.60241">
        <ele>53.5</ele>
        <time>2021-12-18T15:06:26Z</time>
      </trkpt>
      <trkpt lat="49.41546" lon="-1.60239">
        <ele>53.5</ele>
        <time>2021-12-18T15:06:30Z</time>
      </trkpt>
      <trkpt lat="49.41541" lon="-1.60238">
        <ele>53</ele>
        <time>2021-12-18T15:06:33Z</time>
      </trkpt>
      <trkpt lat="49.41536" lon="-1.60236">
        <ele>52.1</ele>
        <time>2021-12-18T15:06:38Z</time>
      </trkpt>
      <trkpt lat="49.41531" lon="-1.60235">
        <ele>51.9</ele>
        <time>2021-12-18T15:06:42Z</time>
      </trkpt>
      <trkpt lat="49.41525" lon="-1.60234">
        <ele>51.9</ele>
        <time>2021-12-18T15:06:47Z</time>
      </trkpt>
      <trkpt lat="49.4152" lon="-1.60233">
        <ele>51.9</ele>
        <time>2021-12-18T15:06:50Z</time>
      </trkpt>
      <trkpt lat="49.41514" lon="-1.60232">
        <ele>51.9</ele>
        <time>2021-12-18T15:06:55Z</time>
      </trkpt>
      <trkpt lat="49.41509" lon="-1.6023">
        <ele>51.7</ele>
        <time>2021-12-18T15:06:58Z</time>
      </trkpt>
      <trkpt lat="49.41504" lon="-1.60229">
        <ele>51.5</ele>
        <time>2021-12-18T15:07:02Z</time>
      </trkpt>
      <trkpt lat="49.41499" lon="-1.60228">
        <ele>51.3</ele>
        <time>2021-12-18T15:07:06Z</time>
      </trkpt>
      <trkpt lat="49.41494" lon="-1.60226">
        <ele>51.1</ele>
        <time>2021-12-18T15:07:10Z</time>
      </trkpt>
      <trkpt lat="49.41488" lon="-1.60224">
        <ele>50.6</ele>
        <time>2021-12-18T15:07:14Z</time>
      </trkpt>
      <trkpt lat="49.41483" lon="-1.60223">
        <ele>50.1</ele>
        <time>2021-12-18T15:07:18Z</time>
      </trkpt>
      <trkpt lat="49.41477" lon="-1.60219">
        <ele>49.5</ele>
        <time>2021-12-18T15:07:22Z</time>
      </trkpt>
      <trkpt lat="49.41473" lon="-1.60216">
        <ele>49.1</ele>
        <time>2021-12-18T15:07:25Z</time>
      </trkpt>
      <trkpt lat="49.41469" lon="-1.60215">
        <ele>48.8</ele>
        <time>2021-12-18T15:07:29Z</time>
      </trkpt>
      <trkpt lat="49.41463" lon="-1.60215">
        <ele>48.8</ele>
        <time>2021-12-18T15:07:33Z</time>
      </trkpt>
      <trkpt lat="49.41458" lon="-1.60213">
        <ele>48.8</ele>
        <time>2021-12-18T15:07:36Z</time>
      </trkpt>
      <trkpt lat="49.41454" lon="-1.6021">
        <ele>48.6</ele>
        <time>2021-12-18T15:07:40Z</time>
      </trkpt>
      <trkpt lat="49.41448" lon="-1.6021">
        <ele>48.1</ele>
        <time>2021-12-18T15:07:44Z</time>
      </trkpt>
      <trkpt lat="49.41443" lon="-1.60208">
        <ele>47.2</ele>
        <time>2021-12-18T15:07:47Z</time>
      </trkpt>
      <trkpt lat="49.41438" lon="-1.60206">
        <ele>45.9</ele>
        <time>2021-12-18T15:07:51Z</time>
      </trkpt>
      <trkpt lat="49.41432" lon="-1.60205">
        <ele>44.6</ele>
        <time>2021-12-18T15:07:55Z</time>
      </trkpt>
      <trkpt lat="49.41427" lon="-1.60204">
        <ele>43.5</ele>
        <time>2021-12-18T15:07:58Z</time>
      </trkpt>
      <trkpt lat="49.41421" lon="-1.60203">
        <ele>42.7</ele>
        <time>2021-12-18T15:08:02Z</time>
      </trkpt>
      <trkpt lat="49.41416" lon="-1.60202">
        <ele>41.7</ele>
        <time>2021-12-18T15:08:07Z</time>
      </trkpt>
      <trkpt lat="49.41412" lon="-1.60198">
        <ele>40.6</ele>
        <time>2021-12-18T15:08:12Z</time>
      </trkpt>
      <trkpt lat="49.41407" lon="-1.60198">
        <ele>40.1</ele>
        <time>2021-12-18T15:08:16Z</time>
      </trkpt>
      <trkpt lat="49.41402" lon="-1.60198">
        <ele>40.1</ele>
        <time>2021-12-18T15:08:19Z</time>
      </trkpt>
      <trkpt lat="49.41397" lon="-1.60199">
        <ele>40.4</ele>
        <time>2021-12-18T15:08:23Z</time>
      </trkpt>
      <trkpt lat="49.41391" lon="-1.602">
        <ele>41.2</ele>
        <time>2021-12-18T15:08:28Z</time>
      </trkpt>
      <trkpt lat="49.41385" lon="-1.602">
        <ele>41.6</ele>
        <time>2021-12-18T15:08:31Z</time>
      </trkpt>
      <trkpt lat="49.41379" lon="-1.60199">
        <ele>42.1</ele>
        <time>2021-12-18T15:08:35Z</time>
      </trkpt>
      <trkpt lat="49.41375" lon="-1.60198">
        <ele>42.4</ele>
        <time>2021-12-18T15:08:38Z</time>
      </trkpt>
      <trkpt lat="49.41369" lon="-1.60198">
        <ele>42.7</ele>
        <time>2021-12-18T15:08:43Z</time>
      </trkpt>
      <trkpt lat="49.41363" lon="-1.60198">
        <ele>43.2</ele>
        <time>2021-12-18T15:08:48Z</time>
      </trkpt>
      <trkpt lat="49.41358" lon="-1.60198">
        <ele>43.6</ele>
        <time>2021-12-18T15:08:52Z</time>
      </trkpt>
      <trkpt lat="49.41353" lon="-1.60198">
        <ele>44.1</ele>
        <time>2021-12-18T15:08:57Z</time>
      </trkpt>
      <trkpt lat="49.41348" lon="-1.60199">
        <ele>44.6</ele>
        <time>2021-12-18T15:09:01Z</time>
      </trkpt>
      <trkpt lat="49.41343" lon="-1.60198">
        <ele>45.2</ele>
        <time>2021-12-18T15:09:06Z</time>
      </trkpt>
      <trkpt lat="49.41337" lon="-1.60195">
        <ele>45.5</ele>
        <time>2021-12-18T15:09:11Z</time>
      </trkpt>
      <trkpt lat="49.41333" lon="-1.60193">
        <ele>45.5</ele>
        <time>2021-12-18T15:09:16Z</time>
      </trkpt>
      <trkpt lat="49.41328" lon="-1.60196">
        <ele>45.4</ele>
        <time>2021-12-18T15:09:20Z</time>
      </trkpt>
      <trkpt lat="49.41323" lon="-1.60195">
        <ele>45.3</ele>
        <time>2021-12-18T15:09:24Z</time>
      </trkpt>
      <trkpt lat="49.41318" lon="-1.60195">
        <ele>45.1</ele>
        <time>2021-12-18T15:09:27Z</time>
      </trkpt>
      <trkpt lat="49.41314" lon="-1.60197">
        <ele>44.9</ele>
        <time>2021-12-18T15:09:31Z</time>
      </trkpt>
      <trkpt lat="49.41308" lon="-1.60195">
        <ele>45</ele>
        <time>2021-12-18T15:09:34Z</time>
      </trkpt>
      <trkpt lat="49.41304" lon="-1.60195">
        <ele>45.1</ele>
        <time>2021-12-18T15:09:38Z</time>
      </trkpt>
      <trkpt lat="49.41298" lon="-1.60195">
        <ele>45.6</ele>
        <time>2021-12-18T15:09:42Z</time>
      </trkpt>
      <trkpt lat="49.41293" lon="-1.60194">
        <ele>46</ele>
        <time>2021-12-18T15:09:47Z</time>
      </trkpt>
      <trkpt lat="49.41287" lon="-1.60195">
        <ele>46.2</ele>
        <time>2021-12-18T15:09:52Z</time>
      </trkpt>
      <trkpt lat="49.41285" lon="-1.60188">
        <ele>46.7</ele>
        <time>2021-12-18T15:10:03Z</time>
      </trkpt>
      <trkpt lat="49.4128" lon="-1.6019">
        <ele>46.5</ele>
        <time>2021-12-18T15:10:18Z</time>
      </trkpt>
      <trkpt lat="49.41275" lon="-1.6019">
        <ele>46.5</ele>
        <time>2021-12-18T15:10:21Z</time>
      </trkpt>
      <trkpt lat="49.4127" lon="-1.6019">
        <ele>46.5</ele>
        <time>2021-12-18T15:10:23Z</time>
      </trkpt>
      <trkpt lat="49.41265" lon="-1.60191">
        <ele>46.7</ele>
        <time>2021-12-18T15:10:26Z</time>
      </trkpt>
      <trkpt lat="49.4126" lon="-1.60189">
        <ele>47</ele>
        <time>2021-12-18T15:10:29Z</time>
      </trkpt>
      <trkpt lat="49.41255" lon="-1.60189">
        <ele>47</ele>
        <time>2021-12-18T15:10:33Z</time>
      </trkpt>
      <trkpt lat="49.4125" lon="-1.60189">
        <ele>46.8</ele>
        <time>2021-12-18T15:10:36Z</time>
      </trkpt>
      <trkpt lat="49.41245" lon="-1.60191">
        <ele>46.6</ele>
        <time>2021-12-18T15:10:41Z</time>
      </trkpt>
      <trkpt lat="49.4124" lon="-1.60189">
        <ele>46.7</ele>
        <time>2021-12-18T15:10:46Z</time>
      </trkpt>
      <trkpt lat="49.41235" lon="-1.60188">
        <ele>46.9</ele>
        <time>2021-12-18T15:10:50Z</time>
      </trkpt>
      <trkpt lat="49.4123" lon="-1.60187">
        <ele>47</ele>
        <time>2021-12-18T15:10:54Z</time>
      </trkpt>
      <trkpt lat="49.41224" lon="-1.60187">
        <ele>46.8</ele>
        <time>2021-12-18T15:10:58Z</time>
      </trkpt>
      <trkpt lat="49.41219" lon="-1.60189">
        <ele>46.6</ele>
        <time>2021-12-18T15:11:02Z</time>
      </trkpt>
      <trkpt lat="49.41214" lon="-1.60187">
        <ele>46.6</ele>
        <time>2021-12-18T15:11:10Z</time>
      </trkpt>
      <trkpt lat="49.41209" lon="-1.60188">
        <ele>46.7</ele>
        <time>2021-12-18T15:11:14Z</time>
      </trkpt>
      <trkpt lat="49.41203" lon="-1.60187">
        <ele>46.6</ele>
        <time>2021-12-18T15:11:18Z</time>
      </trkpt>
      <trkpt lat="49.41196" lon="-1.60186">
        <ele>46.3</ele>
        <time>2021-12-18T15:11:22Z</time>
      </trkpt>
      <trkpt lat="49.4119" lon="-1.60186">
        <ele>46.3</ele>
        <time>2021-12-18T15:11:25Z</time>
      </trkpt>
      <trkpt lat="49.41185" lon="-1.60187">
        <ele>46.3</ele>
        <time>2021-12-18T15:11:28Z</time>
      </trkpt>
      <trkpt lat="49.41179" lon="-1.60188">
        <ele>46.4</ele>
        <time>2021-12-18T15:11:31Z</time>
      </trkpt>
      <trkpt lat="49.41174" lon="-1.60188">
        <ele>46.5</ele>
        <time>2021-12-18T15:11:34Z</time>
      </trkpt>
      <trkpt lat="49.4117" lon="-1.60187">
        <ele>46.6</ele>
        <time>2021-12-18T15:11:37Z</time>
      </trkpt>
      <trkpt lat="49.41165" lon="-1.60188">
        <ele>46.8</ele>
        <time>2021-12-18T15:11:42Z</time>
      </trkpt>
      <trkpt lat="49.4116" lon="-1.60189">
        <ele>47</ele>
        <time>2021-12-18T15:11:46Z</time>
      </trkpt>
      <trkpt lat="49.41155" lon="-1.60192">
        <ele>47.3</ele>
        <time>2021-12-18T15:11:50Z</time>
      </trkpt>
      <trkpt lat="49.41151" lon="-1.60195">
        <ele>47.5</ele>
        <time>2021-12-18T15:11:53Z</time>
      </trkpt>
      <trkpt lat="49.41147" lon="-1.60199">
        <ele>47.7</ele>
        <time>2021-12-18T15:11:56Z</time>
      </trkpt>
      <trkpt lat="49.41143" lon="-1.60207">
        <ele>47.9</ele>
        <time>2021-12-18T15:12:01Z</time>
      </trkpt>
      <trkpt lat="49.41139" lon="-1.60213">
        <ele>48</ele>
        <time>2021-12-18T15:12:05Z</time>
      </trkpt>
      <trkpt lat="49.41135" lon="-1.60216">
        <ele>48.1</ele>
        <time>2021-12-18T15:12:09Z</time>
      </trkpt>
      <trkpt lat="49.41133" lon="-1.60223">
        <ele>48.2</ele>
        <time>2021-12-18T15:12:13Z</time>
      </trkpt>
      <trkpt lat="49.4113" lon="-1.60229">
        <ele>48.1</ele>
        <time>2021-12-18T15:12:17Z</time>
      </trkpt>
      <trkpt lat="49.41126" lon="-1.60236">
        <ele>47.9</ele>
        <time>2021-12-18T15:12:22Z</time>
      </trkpt>
      <trkpt lat="49.41123" lon="-1.60243">
        <ele>48.1</ele>
        <time>2021-12-18T15:12:25Z</time>
      </trkpt>
      <trkpt lat="49.4112" lon="-1.6025">
        <ele>48.4</ele>
        <time>2021-12-18T15:12:29Z</time>
      </trkpt>
      <trkpt lat="49.41117" lon="-1.60255">
        <ele>48.8</ele>
        <time>2021-12-18T15:12:33Z</time>
      </trkpt>
      <trkpt lat="49.41113" lon="-1.6026">
        <ele>49.3</ele>
        <time>2021-12-18T15:12:37Z</time>
      </trkpt>
      <trkpt lat="49.41109" lon="-1.60266">
        <ele>49.7</ele>
        <time>2021-12-18T15:12:41Z</time>
      </trkpt>
      <trkpt lat="49.41106" lon="-1.60273">
        <ele>50</ele>
        <time>2021-12-18T15:12:46Z</time>
      </trkpt>
      <trkpt lat="49.41104" lon="-1.60279">
        <ele>50.2</ele>
        <time>2021-12-18T15:12:50Z</time>
      </trkpt>
      <trkpt lat="49.41102" lon="-1.60286">
        <ele>50.4</ele>
        <time>2021-12-18T15:12:53Z</time>
      </trkpt>
      <trkpt lat="49.41099" lon="-1.60293">
        <ele>50.8</ele>
        <time>2021-12-18T15:12:58Z</time>
      </trkpt>
      <trkpt lat="49.41097" lon="-1.60301">
        <ele>50.8</ele>
        <time>2021-12-18T15:13:02Z</time>
      </trkpt>
      <trkpt lat="49.41095" lon="-1.60308">
        <ele>50.8</ele>
        <time>2021-12-18T15:13:05Z</time>
      </trkpt>
      <trkpt lat="49.41093" lon="-1.60315">
        <ele>51.4</ele>
        <time>2021-12-18T15:13:09Z</time>
      </trkpt>
      <trkpt lat="49.41089" lon="-1.60321">
        <ele>52.4</ele>
        <time>2021-12-18T15:13:12Z</time>
      </trkpt>
      <trkpt lat="49.41087" lon="-1.60327">
        <ele>53.3</ele>
        <time>2021-12-18T15:13:15Z</time>
      </trkpt>
      <trkpt lat="49.41084" lon="-1.60333">
        <ele>54</ele>
        <time>2021-12-18T15:13:19Z</time>
      </trkpt>
      <trkpt lat="49.41081" lon="-1.60341">
        <ele>54.7</ele>
        <time>2021-12-18T15:13:22Z</time>
      </trkpt>
      <trkpt lat="49.41079" lon="-1.60348">
        <ele>55</ele>
        <time>2021-12-18T15:13:26Z</time>
      </trkpt>
      <trkpt lat="49.41076" lon="-1.60355">
        <ele>55.2</ele>
        <time>2021-12-18T15:13:30Z</time>
      </trkpt>
      <trkpt lat="49.41075" lon="-1.60362">
        <ele>55.3</ele>
        <time>2021-12-18T15:13:35Z</time>
      </trkpt>
      <trkpt lat="49.41073" lon="-1.6037">
        <ele>56.3</ele>
        <time>2021-12-18T15:13:39Z</time>
      </trkpt>
      <trkpt lat="49.41071" lon="-1.60377">
        <ele>57.7</ele>
        <time>2021-12-18T15:13:46Z</time>
      </trkpt>
      <trkpt lat="49.41068" lon="-1.60383">
        <ele>57.8</ele>
        <time>2021-12-18T15:13:50Z</time>
      </trkpt>
      <trkpt lat="49.41065" lon="-1.60389">
        <ele>57.8</ele>
        <time>2021-12-18T15:13:54Z</time>
      </trkpt>
      <trkpt lat="49.41062" lon="-1.60398">
        <ele>57.9</ele>
        <time>2021-12-18T15:13:58Z</time>
      </trkpt>
      <trkpt lat="49.41058" lon="-1.60406">
        <ele>58.2</ele>
        <time>2021-12-18T15:14:02Z</time>
      </trkpt>
      <trkpt lat="49.41055" lon="-1.60412">
        <ele>58.7</ele>
        <time>2021-12-18T15:14:06Z</time>
      </trkpt>
      <trkpt lat="49.41052" lon="-1.60418">
        <ele>59.4</ele>
        <time>2021-12-18T15:14:09Z</time>
      </trkpt>
      <trkpt lat="49.41048" lon="-1.60422">
        <ele>60.1</ele>
        <time>2021-12-18T15:14:13Z</time>
      </trkpt>
      <trkpt lat="49.41045" lon="-1.60427">
        <ele>60.5</ele>
        <time>2021-12-18T15:14:16Z</time>
      </trkpt>
      <trkpt lat="49.41042" lon="-1.60434">
        <ele>60.8</ele>
        <time>2021-12-18T15:14:19Z</time>
      </trkpt>
      <trkpt lat="49.41041" lon="-1.60442">
        <ele>61.2</ele>
        <time>2021-12-18T15:14:23Z</time>
      </trkpt>
      <trkpt lat="49.41039" lon="-1.60448">
        <ele>61.8</ele>
        <time>2021-12-18T15:14:26Z</time>
      </trkpt>
      <trkpt lat="49.41036" lon="-1.60456">
        <ele>62.1</ele>
        <time>2021-12-18T15:14:30Z</time>
      </trkpt>
      <trkpt lat="49.41034" lon="-1.60463">
        <ele>62.4</ele>
        <time>2021-12-18T15:14:34Z</time>
      </trkpt>
      <trkpt lat="49.41032" lon="-1.60469">
        <ele>62.6</ele>
        <time>2021-12-18T15:14:38Z</time>
      </trkpt>
      <trkpt lat="49.41032" lon="-1.60477">
        <ele>62.7</ele>
        <time>2021-12-18T15:14:46Z</time>
      </trkpt>
      <trkpt lat="49.4103" lon="-1.60486">
        <ele>62.8</ele>
        <time>2021-12-18T15:14:49Z</time>
      </trkpt>
      <trkpt lat="49.41027" lon="-1.60495">
        <ele>62.9</ele>
        <time>2021-12-18T15:14:57Z</time>
      </trkpt>
      <trkpt lat="49.41025" lon="-1.60503">
        <ele>63</ele>
        <time>2021-12-18T15:15:01Z</time>
      </trkpt>
      <trkpt lat="49.41027" lon="-1.6051">
        <ele>63.1</ele>
        <time>2021-12-18T15:15:04Z</time>
      </trkpt>
      <trkpt lat="49.41025" lon="-1.60518">
        <ele>63</ele>
        <time>2021-12-18T15:15:08Z</time>
      </trkpt>
      <trkpt lat="49.41022" lon="-1.60524">
        <ele>63.2</ele>
        <time>2021-12-18T15:15:12Z</time>
      </trkpt>
      <trkpt lat="49.41021" lon="-1.60531">
        <ele>63.3</ele>
        <time>2021-12-18T15:15:15Z</time>
      </trkpt>
      <trkpt lat="49.4102" lon="-1.60538">
        <ele>63.2</ele>
        <time>2021-12-18T15:15:19Z</time>
      </trkpt>
      <trkpt lat="49.4102" lon="-1.60547">
        <ele>62.7</ele>
        <time>2021-12-18T15:15:23Z</time>
      </trkpt>
      <trkpt lat="49.41019" lon="-1.60554">
        <ele>62.6</ele>
        <time>2021-12-18T15:15:27Z</time>
      </trkpt>
      <trkpt lat="49.41019" lon="-1.60561">
        <ele>62.8</ele>
        <time>2021-12-18T15:15:31Z</time>
      </trkpt>
      <trkpt lat="49.41015" lon="-1.60567">
        <ele>63.1</ele>
        <time>2021-12-18T15:15:35Z</time>
      </trkpt>
      <trkpt lat="49.41013" lon="-1.60574">
        <ele>63.1</ele>
        <time>2021-12-18T15:15:40Z</time>
      </trkpt>
      <trkpt lat="49.41011" lon="-1.60581">
        <ele>63</ele>
        <time>2021-12-18T15:15:42Z</time>
      </trkpt>
      <trkpt lat="49.41011" lon="-1.60588">
        <ele>62.9</ele>
        <time>2021-12-18T15:15:46Z</time>
      </trkpt>
      <trkpt lat="49.41013" lon="-1.60594">
        <ele>62.7</ele>
        <time>2021-12-18T15:15:50Z</time>
      </trkpt>
      <trkpt lat="49.41015" lon="-1.60601">
        <ele>62.5</ele>
        <time>2021-12-18T15:15:54Z</time>
      </trkpt>
      <trkpt lat="49.41012" lon="-1.60608">
        <ele>63.3</ele>
        <time>2021-12-18T15:16:05Z</time>
      </trkpt>
      <trkpt lat="49.41011" lon="-1.60615">
        <ele>63.6</ele>
        <time>2021-12-18T15:16:08Z</time>
      </trkpt>
      <trkpt lat="49.4101" lon="-1.60622">
        <ele>64.2</ele>
        <time>2021-12-18T15:16:11Z</time>
      </trkpt>
      <trkpt lat="49.4101" lon="-1.60632">
        <ele>64.7</ele>
        <time>2021-12-18T15:16:15Z</time>
      </trkpt>
      <trkpt lat="49.41009" lon="-1.6064">
        <ele>65.3</ele>
        <time>2021-12-18T15:16:18Z</time>
      </trkpt>
      <trkpt lat="49.41008" lon="-1.60646">
        <ele>65.3</ele>
        <time>2021-12-18T15:16:21Z</time>
      </trkpt>
      <trkpt lat="49.41004" lon="-1.60653">
        <ele>65.2</ele>
        <time>2021-12-18T15:16:27Z</time>
      </trkpt>
      <trkpt lat="49.40999" lon="-1.60652">
        <ele>65.2</ele>
        <time>2021-12-18T15:16:33Z</time>
      </trkpt>
      <trkpt lat="49.40995" lon="-1.60648">
        <ele>65.5</ele>
        <time>2021-12-18T15:16:36Z</time>
      </trkpt>
      <trkpt lat="49.4099" lon="-1.60645">
        <ele>65.8</ele>
        <time>2021-12-18T15:16:39Z</time>
      </trkpt>
      <trkpt lat="49.40985" lon="-1.60643">
        <ele>66.1</ele>
        <time>2021-12-18T15:16:42Z</time>
      </trkpt>
      <trkpt lat="49.40982" lon="-1.60639">
        <ele>66.2</ele>
        <time>2021-12-18T15:16:45Z</time>
      </trkpt>
      <trkpt lat="49.40978" lon="-1.60635">
        <ele>66.7</ele>
        <time>2021-12-18T15:16:48Z</time>
      </trkpt>
      <trkpt lat="49.40974" lon="-1.60631">
        <ele>67.3</ele>
        <time>2021-12-18T15:16:52Z</time>
      </trkpt>
      <trkpt lat="49.40969" lon="-1.60628">
        <ele>67.8</ele>
        <time>2021-12-18T15:16:56Z</time>
      </trkpt>
      <trkpt lat="49.40965" lon="-1.60623">
        <ele>68</ele>
        <time>2021-12-18T15:17:00Z</time>
      </trkpt>
      <trkpt lat="49.40961" lon="-1.60618">
        <ele>68.1</ele>
        <time>2021-12-18T15:17:03Z</time>
      </trkpt>
      <trkpt lat="49.40956" lon="-1.60613">
        <ele>68.4</ele>
        <time>2021-12-18T15:17:07Z</time>
      </trkpt>
      <trkpt lat="49.40949" lon="-1.60607">
        <ele>68.6</ele>
        <time>2021-12-18T15:17:11Z</time>
      </trkpt>
      <trkpt lat="49.40944" lon="-1.60603">
        <ele>68.9</ele>
        <time>2021-12-18T15:17:15Z</time>
      </trkpt>
      <trkpt lat="49.4094" lon="-1.60599">
        <ele>69.1</ele>
        <time>2021-12-18T15:17:18Z</time>
      </trkpt>
      <trkpt lat="49.40935" lon="-1.60596">
        <ele>69.2</ele>
        <time>2021-12-18T15:17:22Z</time>
      </trkpt>
      <trkpt lat="49.40931" lon="-1.60591">
        <ele>68.9</ele>
        <time>2021-12-18T15:17:32Z</time>
      </trkpt>
      <trkpt lat="49.40924" lon="-1.60586">
        <ele>68.7</ele>
        <time>2021-12-18T15:17:34Z</time>
      </trkpt>
      <trkpt lat="49.40919" lon="-1.60582">
        <ele>68.6</ele>
        <time>2021-12-18T15:17:37Z</time>
      </trkpt>
      <trkpt lat="49.40914" lon="-1.60578">
        <ele>68.3</ele>
        <time>2021-12-18T15:17:40Z</time>
      </trkpt>
      <trkpt lat="49.40908" lon="-1.60574">
        <ele>68.2</ele>
        <time>2021-12-18T15:17:44Z</time>
      </trkpt>
      <trkpt lat="49.40902" lon="-1.60569">
        <ele>68.2</ele>
        <time>2021-12-18T15:17:47Z</time>
      </trkpt>
      <trkpt lat="49.40898" lon="-1.60566">
        <ele>68.3</ele>
        <time>2021-12-18T15:17:50Z</time>
      </trkpt>
      <trkpt lat="49.40894" lon="-1.60562">
        <ele>68.5</ele>
        <time>2021-12-18T15:17:53Z</time>
      </trkpt>
      <trkpt lat="49.40889" lon="-1.60559">
        <ele>68.7</ele>
        <time>2021-12-18T15:17:56Z</time>
      </trkpt>
      <trkpt lat="49.40883" lon="-1.60555">
        <ele>68.8</ele>
        <time>2021-12-18T15:18:00Z</time>
      </trkpt>
      <trkpt lat="49.40878" lon="-1.60551">
        <ele>68.8</ele>
        <time>2021-12-18T15:18:03Z</time>
      </trkpt>
      <trkpt lat="49.40873" lon="-1.60545">
        <ele>68.8</ele>
        <time>2021-12-18T15:18:06Z</time>
      </trkpt>
      <trkpt lat="49.40868" lon="-1.60541">
        <ele>68.7</ele>
        <time>2021-12-18T15:18:10Z</time>
      </trkpt>
      <trkpt lat="49.40864" lon="-1.60537">
        <ele>68.6</ele>
        <time>2021-12-18T15:18:13Z</time>
      </trkpt>
      <trkpt lat="49.4086" lon="-1.60535">
        <ele>68.5</ele>
        <time>2021-12-18T15:18:16Z</time>
      </trkpt>
      <trkpt lat="49.40854" lon="-1.60534">
        <ele>68.1</ele>
        <time>2021-12-18T15:18:23Z</time>
      </trkpt>
      <trkpt lat="49.40851" lon="-1.60529">
        <ele>67.9</ele>
        <time>2021-12-18T15:18:26Z</time>
      </trkpt>
      <trkpt lat="49.40846" lon="-1.60524">
        <ele>67.7</ele>
        <time>2021-12-18T15:18:28Z</time>
      </trkpt>
      <trkpt lat="49.40842" lon="-1.6052">
        <ele>67.5</ele>
        <time>2021-12-18T15:18:31Z</time>
      </trkpt>
      <trkpt lat="49.40838" lon="-1.60516">
        <ele>67.4</ele>
        <time>2021-12-18T15:18:34Z</time>
      </trkpt>
      <trkpt lat="49.40834" lon="-1.60512">
        <ele>67.2</ele>
        <time>2021-12-18T15:18:36Z</time>
      </trkpt>
      <trkpt lat="49.40829" lon="-1.60507">
        <ele>66.7</ele>
        <time>2021-12-18T15:18:40Z</time>
      </trkpt>
      <trkpt lat="49.40822" lon="-1.60504">
        <ele>66.6</ele>
        <time>2021-12-18T15:18:43Z</time>
      </trkpt>
      <trkpt lat="49.40817" lon="-1.60499">
        <ele>66.4</ele>
        <time>2021-12-18T15:18:46Z</time>
      </trkpt>
      <trkpt lat="49.40811" lon="-1.60494">
        <ele>66.1</ele>
        <time>2021-12-18T15:18:50Z</time>
      </trkpt>
      <trkpt lat="49.40806" lon="-1.60488">
        <ele>65.9</ele>
        <time>2021-12-18T15:18:54Z</time>
      </trkpt>
      <trkpt lat="49.40801" lon="-1.60484">
        <ele>65.6</ele>
        <time>2021-12-18T15:18:58Z</time>
      </trkpt>
      <trkpt lat="49.40796" lon="-1.60479">
        <ele>65.5</ele>
        <time>2021-12-18T15:19:01Z</time>
      </trkpt>
      <trkpt lat="49.4079" lon="-1.60475">
        <ele>65.3</ele>
        <time>2021-12-18T15:19:05Z</time>
      </trkpt>
      <trkpt lat="49.40784" lon="-1.60471">
        <ele>65</ele>
        <time>2021-12-18T15:19:09Z</time>
      </trkpt>
      <trkpt lat="49.40779" lon="-1.60467">
        <ele>64.6</ele>
        <time>2021-12-18T15:19:12Z</time>
      </trkpt>
      <trkpt lat="49.40775" lon="-1.60464">
        <ele>64.3</ele>
        <time>2021-12-18T15:19:15Z</time>
      </trkpt>
      <trkpt lat="49.4077" lon="-1.60459">
        <ele>63.8</ele>
        <time>2021-12-18T15:19:19Z</time>
      </trkpt>
      <trkpt lat="49.40765" lon="-1.60455">
        <ele>63.7</ele>
        <time>2021-12-18T15:19:23Z</time>
      </trkpt>
      <trkpt lat="49.4076" lon="-1.6045">
        <ele>63.6</ele>
        <time>2021-12-18T15:19:26Z</time>
      </trkpt>
      <trkpt lat="49.40756" lon="-1.60447">
        <ele>63.6</ele>
        <time>2021-12-18T15:19:29Z</time>
      </trkpt>
      <trkpt lat="49.40752" lon="-1.60443">
        <ele>63.5</ele>
        <time>2021-12-18T15:19:31Z</time>
      </trkpt>
      <trkpt lat="49.40748" lon="-1.6044">
        <ele>63.3</ele>
        <time>2021-12-18T15:19:34Z</time>
      </trkpt>
      <trkpt lat="49.40744" lon="-1.60436">
        <ele>63</ele>
        <time>2021-12-18T15:19:36Z</time>
      </trkpt>
      <trkpt lat="49.40738" lon="-1.60431">
        <ele>62.6</ele>
        <time>2021-12-18T15:19:40Z</time>
      </trkpt>
      <trkpt lat="49.40733" lon="-1.60426">
        <ele>62.3</ele>
        <time>2021-12-18T15:19:43Z</time>
      </trkpt>
      <trkpt lat="49.40727" lon="-1.6042">
        <ele>62.1</ele>
        <time>2021-12-18T15:19:47Z</time>
      </trkpt>
      <trkpt lat="49.40723" lon="-1.60417">
        <ele>61.9</ele>
        <time>2021-12-18T15:19:50Z</time>
      </trkpt>
      <trkpt lat="49.40719" lon="-1.60414">
        <ele>61.7</ele>
        <time>2021-12-18T15:19:53Z</time>
      </trkpt>
      <trkpt lat="49.40714" lon="-1.60411">
        <ele>61.6</ele>
        <time>2021-12-18T15:19:56Z</time>
      </trkpt>
      <trkpt lat="49.40708" lon="-1.60406">
        <ele>61.5</ele>
        <time>2021-12-18T15:20:00Z</time>
      </trkpt>
      <trkpt lat="49.40703" lon="-1.60403">
        <ele>61.4</ele>
        <time>2021-12-18T15:20:04Z</time>
      </trkpt>
      <trkpt lat="49.40698" lon="-1.60399">
        <ele>61.4</ele>
        <time>2021-12-18T15:20:06Z</time>
      </trkpt>
      <trkpt lat="49.40693" lon="-1.60395">
        <ele>61.4</ele>
        <time>2021-12-18T15:20:10Z</time>
      </trkpt>
      <trkpt lat="49.40689" lon="-1.60391">
        <ele>61.1</ele>
        <time>2021-12-18T15:20:12Z</time>
      </trkpt>
      <trkpt lat="49.40685" lon="-1.60388">
        <ele>60.8</ele>
        <time>2021-12-18T15:20:15Z</time>
      </trkpt>
      <trkpt lat="49.40679" lon="-1.60384">
        <ele>60.2</ele>
        <time>2021-12-18T15:20:19Z</time>
      </trkpt>
      <trkpt lat="49.40674" lon="-1.6038">
        <ele>59.5</ele>
        <time>2021-12-18T15:20:22Z</time>
      </trkpt>
      <trkpt lat="49.40669" lon="-1.60377">
        <ele>59.1</ele>
        <time>2021-12-18T15:20:26Z</time>
      </trkpt>
      <trkpt lat="49.40663" lon="-1.60371">
        <ele>58.6</ele>
        <time>2021-12-18T15:20:30Z</time>
      </trkpt>
      <trkpt lat="49.40658" lon="-1.60365">
        <ele>58.3</ele>
        <time>2021-12-18T15:20:33Z</time>
      </trkpt>
      <trkpt lat="49.40653" lon="-1.6036">
        <ele>58.3</ele>
        <time>2021-12-18T15:20:36Z</time>
      </trkpt>
      <trkpt lat="49.40649" lon="-1.60356">
        <ele>58.4</ele>
        <time>2021-12-18T15:20:39Z</time>
      </trkpt>
      <trkpt lat="49.40644" lon="-1.60352">
        <ele>58.4</ele>
        <time>2021-12-18T15:20:43Z</time>
      </trkpt>
      <trkpt lat="49.40638" lon="-1.60351">
        <ele>58.2</ele>
        <time>2021-12-18T15:20:47Z</time>
      </trkpt>
      <trkpt lat="49.40632" lon="-1.60352">
        <ele>57.7</ele>
        <time>2021-12-18T15:20:52Z</time>
      </trkpt>
      <trkpt lat="49.40628" lon="-1.6036">
        <ele>57.5</ele>
        <time>2021-12-18T15:20:55Z</time>
      </trkpt>
      <trkpt lat="49.40625" lon="-1.60366">
        <ele>57.3</ele>
        <time>2021-12-18T15:20:58Z</time>
      </trkpt>
      <trkpt lat="49.40622" lon="-1.60372">
        <ele>57</ele>
        <time>2021-12-18T15:21:01Z</time>
      </trkpt>
      <trkpt lat="49.4062" lon="-1.60378">
        <ele>56.7</ele>
        <time>2021-12-18T15:21:04Z</time>
      </trkpt>
      <trkpt lat="49.40616" lon="-1.60384">
        <ele>56.5</ele>
        <time>2021-12-18T15:21:07Z</time>
      </trkpt>
      <trkpt lat="49.40613" lon="-1.6039">
        <ele>56.4</ele>
        <time>2021-12-18T15:21:11Z</time>
      </trkpt>
      <trkpt lat="49.4061" lon="-1.60396">
        <ele>56.5</ele>
        <time>2021-12-18T15:21:15Z</time>
      </trkpt>
      <trkpt lat="49.40607" lon="-1.60403">
        <ele>56.4</ele>
        <time>2021-12-18T15:21:19Z</time>
      </trkpt>
      <trkpt lat="49.40603" lon="-1.60408">
        <ele>56.4</ele>
        <time>2021-12-18T15:21:22Z</time>
      </trkpt>
      <trkpt lat="49.406" lon="-1.60414">
        <ele>56.5</ele>
        <time>2021-12-18T15:21:25Z</time>
      </trkpt>
      <trkpt lat="49.40596" lon="-1.60421">
        <ele>56.6</ele>
        <time>2021-12-18T15:21:29Z</time>
      </trkpt>
      <trkpt lat="49.40594" lon="-1.60427">
        <ele>56.6</ele>
        <time>2021-12-18T15:21:32Z</time>
      </trkpt>
      <trkpt lat="49.40591" lon="-1.60434">
        <ele>56.4</ele>
        <time>2021-12-18T15:21:36Z</time>
      </trkpt>
      <trkpt lat="49.40588" lon="-1.60441">
        <ele>56.1</ele>
        <time>2021-12-18T15:21:39Z</time>
      </trkpt>
      <trkpt lat="49.40584" lon="-1.60448">
        <ele>55.8</ele>
        <time>2021-12-18T15:21:43Z</time>
      </trkpt>
      <trkpt lat="49.40582" lon="-1.60455">
        <ele>55.7</ele>
        <time>2021-12-18T15:21:46Z</time>
      </trkpt>
      <trkpt lat="49.40578" lon="-1.60464">
        <ele>55.5</ele>
        <time>2021-12-18T15:21:51Z</time>
      </trkpt>
      <trkpt lat="49.40575" lon="-1.60469">
        <ele>55.1</ele>
        <time>2021-12-18T15:21:54Z</time>
      </trkpt>
      <trkpt lat="49.40572" lon="-1.60475">
        <ele>54.9</ele>
        <time>2021-12-18T15:21:57Z</time>
      </trkpt>
      <trkpt lat="49.40568" lon="-1.60482">
        <ele>54.8</ele>
        <time>2021-12-18T15:22:01Z</time>
      </trkpt>
      <trkpt lat="49.40564" lon="-1.60491">
        <ele>54.5</ele>
        <time>2021-12-18T15:22:05Z</time>
      </trkpt>
      <trkpt lat="49.40562" lon="-1.60498">
        <ele>54.2</ele>
        <time>2021-12-18T15:22:08Z</time>
      </trkpt>
      <trkpt lat="49.40558" lon="-1.60505">
        <ele>53.8</ele>
        <time>2021-12-18T15:22:12Z</time>
      </trkpt>
      <trkpt lat="49.40555" lon="-1.60512">
        <ele>53.7</ele>
        <time>2021-12-18T15:22:15Z</time>
      </trkpt>
      <trkpt lat="49.40552" lon="-1.60518">
        <ele>53.5</ele>
        <time>2021-12-18T15:22:18Z</time>
      </trkpt>
      <trkpt lat="49.40549" lon="-1.60527">
        <ele>53.2</ele>
        <time>2021-12-18T15:22:22Z</time>
      </trkpt>
      <trkpt lat="49.40545" lon="-1.60533">
        <ele>53</ele>
        <time>2021-12-18T15:22:25Z</time>
      </trkpt>
      <trkpt lat="49.40542" lon="-1.60539">
        <ele>52.6</ele>
        <time>2021-12-18T15:22:28Z</time>
      </trkpt>
      <trkpt lat="49.40539" lon="-1.60546">
        <ele>52.2</ele>
        <time>2021-12-18T15:22:31Z</time>
      </trkpt>
      <trkpt lat="49.40534" lon="-1.60552">
        <ele>52</ele>
        <time>2021-12-18T15:22:35Z</time>
      </trkpt>
      <trkpt lat="49.40531" lon="-1.60558">
        <ele>51.9</ele>
        <time>2021-12-18T15:22:38Z</time>
      </trkpt>
      <trkpt lat="49.40526" lon="-1.60566">
        <ele>51.9</ele>
        <time>2021-12-18T15:22:42Z</time>
      </trkpt>
      <trkpt lat="49.40522" lon="-1.60574">
        <ele>51.7</ele>
        <time>2021-12-18T15:22:46Z</time>
      </trkpt>
      <trkpt lat="49.40519" lon="-1.60581">
        <ele>51.7</ele>
        <time>2021-12-18T15:22:49Z</time>
      </trkpt>
      <trkpt lat="49.40516" lon="-1.60587">
        <ele>51.5</ele>
        <time>2021-12-18T15:22:53Z</time>
      </trkpt>
      <trkpt lat="49.40512" lon="-1.60595">
        <ele>51.3</ele>
        <time>2021-12-18T15:22:57Z</time>
      </trkpt>
      <trkpt lat="49.40509" lon="-1.606">
        <ele>51.2</ele>
        <time>2021-12-18T15:23:00Z</time>
      </trkpt>
      <trkpt lat="49.40505" lon="-1.60607">
        <ele>51</ele>
        <time>2021-12-18T15:23:04Z</time>
      </trkpt>
      <trkpt lat="49.40502" lon="-1.60614">
        <ele>50.7</ele>
        <time>2021-12-18T15:23:08Z</time>
      </trkpt>
      <trkpt lat="49.405" lon="-1.6062">
        <ele>50.5</ele>
        <time>2021-12-18T15:23:11Z</time>
      </trkpt>
      <trkpt lat="49.40497" lon="-1.60628">
        <ele>50.4</ele>
        <time>2021-12-18T15:23:14Z</time>
      </trkpt>
      <trkpt lat="49.40494" lon="-1.60632">
        <ele>50.4</ele>
        <time>2021-12-18T15:23:17Z</time>
      </trkpt>
      <trkpt lat="49.4049" lon="-1.6064">
        <ele>50.7</ele>
        <time>2021-12-18T15:23:21Z</time>
      </trkpt>
      <trkpt lat="49.40485" lon="-1.60647">
        <ele>50.9</ele>
        <time>2021-12-18T15:23:25Z</time>
      </trkpt>
      <trkpt lat="49.40481" lon="-1.60654">
        <ele>51.1</ele>
        <time>2021-12-18T15:23:29Z</time>
      </trkpt>
      <trkpt lat="49.40478" lon="-1.6066">
        <ele>51.1</ele>
        <time>2021-12-18T15:23:32Z</time>
      </trkpt>
      <trkpt lat="49.40475" lon="-1.60667">
        <ele>51.1</ele>
        <time>2021-12-18T15:23:36Z</time>
      </trkpt>
      <trkpt lat="49.40471" lon="-1.60674">
        <ele>51.1</ele>
        <time>2021-12-18T15:23:40Z</time>
      </trkpt>
      <trkpt lat="49.40467" lon="-1.60683">
        <ele>51.3</ele>
        <time>2021-12-18T15:23:44Z</time>
      </trkpt>
      <trkpt lat="49.40463" lon="-1.60689">
        <ele>51.5</ele>
        <time>2021-12-18T15:23:48Z</time>
      </trkpt>
      <trkpt lat="49.40459" lon="-1.60696">
        <ele>51.4</ele>
        <time>2021-12-18T15:23:51Z</time>
      </trkpt>
      <trkpt lat="49.40456" lon="-1.60702">
        <ele>51.3</ele>
        <time>2021-12-18T15:23:55Z</time>
      </trkpt>
      <trkpt lat="49.40451" lon="-1.60706">
        <ele>51.1</ele>
        <time>2021-12-18T15:23:59Z</time>
      </trkpt>
      <trkpt lat="49.40447" lon="-1.60709">
        <ele>51</ele>
        <time>2021-12-18T15:24:02Z</time>
      </trkpt>
      <trkpt lat="49.40443" lon="-1.60713">
        <ele>51.1</ele>
        <time>2021-12-18T15:24:06Z</time>
      </trkpt>
      <trkpt lat="49.40439" lon="-1.60718">
        <ele>51.1</ele>
        <time>2021-12-18T15:24:09Z</time>
      </trkpt>
      <trkpt lat="49.40437" lon="-1.60726">
        <ele>50.6</ele>
        <time>2021-12-18T15:24:16Z</time>
      </trkpt>
      <trkpt lat="49.40434" lon="-1.60732">
        <ele>48.9</ele>
        <time>2021-12-18T15:24:27Z</time>
      </trkpt>
      <trkpt lat="49.40429" lon="-1.60736">
        <ele>48.3</ele>
        <time>2021-12-18T15:24:31Z</time>
      </trkpt>
      <trkpt lat="49.40424" lon="-1.60742">
        <ele>48</ele>
        <time>2021-12-18T15:24:33Z</time>
      </trkpt>
      <trkpt lat="49.40419" lon="-1.60748">
        <ele>48</ele>
        <time>2021-12-18T15:24:36Z</time>
      </trkpt>
      <trkpt lat="49.40416" lon="-1.60755">
        <ele>47.9</ele>
        <time>2021-12-18T15:24:39Z</time>
      </trkpt>
      <trkpt lat="49.40411" lon="-1.60762">
        <ele>47.8</ele>
        <time>2021-12-18T15:24:43Z</time>
      </trkpt>
      <trkpt lat="49.40408" lon="-1.60769">
        <ele>47.6</ele>
        <time>2021-12-18T15:24:47Z</time>
      </trkpt>
      <trkpt lat="49.40402" lon="-1.60772">
        <ele>45.9</ele>
        <time>2021-12-18T15:25:08Z</time>
      </trkpt>
      <trkpt lat="49.404" lon="-1.60779">
        <ele>45.6</ele>
        <time>2021-12-18T15:25:11Z</time>
      </trkpt>
      <trkpt lat="49.40398" lon="-1.60787">
        <ele>45</ele>
        <time>2021-12-18T15:25:15Z</time>
      </trkpt>
      <trkpt lat="49.40395" lon="-1.60794">
        <ele>44.6</ele>
        <time>2021-12-18T15:25:18Z</time>
      </trkpt>
      <trkpt lat="49.40391" lon="-1.60803">
        <ele>44.4</ele>
        <time>2021-12-18T15:25:22Z</time>
      </trkpt>
      <trkpt lat="49.40389" lon="-1.60812">
        <ele>44.6</ele>
        <time>2021-12-18T15:25:27Z</time>
      </trkpt>
      <trkpt lat="49.40384" lon="-1.60814">
        <ele>44.3</ele>
        <time>2021-12-18T15:25:43Z</time>
      </trkpt>
      <trkpt lat="49.4038" lon="-1.60821">
        <ele>44.1</ele>
        <time>2021-12-18T15:25:47Z</time>
      </trkpt>
      <trkpt lat="49.40377" lon="-1.6083">
        <ele>43.9</ele>
        <time>2021-12-18T15:25:49Z</time>
      </trkpt>
      <trkpt lat="49.40375" lon="-1.60838">
        <ele>43.7</ele>
        <time>2021-12-18T15:25:52Z</time>
      </trkpt>
      <trkpt lat="49.40373" lon="-1.60845">
        <ele>43.4</ele>
        <time>2021-12-18T15:25:55Z</time>
      </trkpt>
      <trkpt lat="49.4037" lon="-1.60853">
        <ele>43.2</ele>
        <time>2021-12-18T15:25:58Z</time>
      </trkpt>
      <trkpt lat="49.40367" lon="-1.6086">
        <ele>42.9</ele>
        <time>2021-12-18T15:26:01Z</time>
      </trkpt>
      <trkpt lat="49.40364" lon="-1.60866">
        <ele>42.8</ele>
        <time>2021-12-18T15:26:04Z</time>
      </trkpt>
      <trkpt lat="49.4036" lon="-1.60873">
        <ele>42.5</ele>
        <time>2021-12-18T15:26:08Z</time>
      </trkpt>
      <trkpt lat="49.40355" lon="-1.60879">
        <ele>42.1</ele>
        <time>2021-12-18T15:26:13Z</time>
      </trkpt>
      <trkpt lat="49.40349" lon="-1.60884">
        <ele>41.9</ele>
        <time>2021-12-18T15:26:17Z</time>
      </trkpt>
      <trkpt lat="49.40344" lon="-1.60888">
        <ele>41.6</ele>
        <time>2021-12-18T15:26:20Z</time>
      </trkpt>
      <trkpt lat="49.40337" lon="-1.6089">
        <ele>41.4</ele>
        <time>2021-12-18T15:26:23Z</time>
      </trkpt>
      <trkpt lat="49.4033" lon="-1.6089">
        <ele>41.2</ele>
        <time>2021-12-18T15:26:28Z</time>
      </trkpt>
      <trkpt lat="49.40325" lon="-1.60889">
        <ele>40.8</ele>
        <time>2021-12-18T15:26:31Z</time>
      </trkpt>
      <trkpt lat="49.40319" lon="-1.60888">
        <ele>40</ele>
        <time>2021-12-18T15:26:35Z</time>
      </trkpt>
      <trkpt lat="49.40313" lon="-1.60884">
        <ele>39.2</ele>
        <time>2021-12-18T15:26:39Z</time>
      </trkpt>
      <trkpt lat="49.40308" lon="-1.60882">
        <ele>38.9</ele>
        <time>2021-12-18T15:26:41Z</time>
      </trkpt>
      <trkpt lat="49.40301" lon="-1.6088">
        <ele>38.5</ele>
        <time>2021-12-18T15:26:45Z</time>
      </trkpt>
      <trkpt lat="49.40296" lon="-1.60877">
        <ele>38.3</ele>
        <time>2021-12-18T15:26:49Z</time>
      </trkpt>
      <trkpt lat="49.40291" lon="-1.60876">
        <ele>38.4</ele>
        <time>2021-12-18T15:26:52Z</time>
      </trkpt>
      <trkpt lat="49.40284" lon="-1.60874">
        <ele>38.7</ele>
        <time>2021-12-18T15:26:56Z</time>
      </trkpt>
      <trkpt lat="49.40279" lon="-1.60872">
        <ele>39</ele>
        <time>2021-12-18T15:26:59Z</time>
      </trkpt>
      <trkpt lat="49.40274" lon="-1.60871">
        <ele>39.3</ele>
        <time>2021-12-18T15:27:02Z</time>
      </trkpt>
      <trkpt lat="49.40268" lon="-1.60869">
        <ele>38.9</ele>
        <time>2021-12-18T15:27:05Z</time>
      </trkpt>
      <trkpt lat="49.40263" lon="-1.60868">
        <ele>37.8</ele>
        <time>2021-12-18T15:27:09Z</time>
      </trkpt>
      <trkpt lat="49.40257" lon="-1.60868">
        <ele>36.8</ele>
        <time>2021-12-18T15:27:13Z</time>
      </trkpt>
      <trkpt lat="49.40251" lon="-1.60868">
        <ele>36.1</ele>
        <time>2021-12-18T15:27:17Z</time>
      </trkpt>
      <trkpt lat="49.40246" lon="-1.60869">
        <ele>35.5</ele>
        <time>2021-12-18T15:27:20Z</time>
      </trkpt>
      <trkpt lat="49.4024" lon="-1.60875">
        <ele>34.4</ele>
        <time>2021-12-18T15:27:36Z</time>
      </trkpt>
      <trkpt lat="49.40236" lon="-1.60879">
        <ele>34.3</ele>
        <time>2021-12-18T15:27:39Z</time>
      </trkpt>
      <trkpt lat="49.40231" lon="-1.60883">
        <ele>34.1</ele>
        <time>2021-12-18T15:27:42Z</time>
      </trkpt>
      <trkpt lat="49.40227" lon="-1.60888">
        <ele>33.8</ele>
        <time>2021-12-18T15:27:46Z</time>
      </trkpt>
      <trkpt lat="49.40224" lon="-1.60895">
        <ele>33.1</ele>
        <time>2021-12-18T15:27:49Z</time>
      </trkpt>
      <trkpt lat="49.40222" lon="-1.60903">
        <ele>32.3</ele>
        <time>2021-12-18T15:27:53Z</time>
      </trkpt>
      <trkpt lat="49.4022" lon="-1.6091">
        <ele>31.8</ele>
        <time>2021-12-18T15:27:56Z</time>
      </trkpt>
      <trkpt lat="49.40219" lon="-1.60921">
        <ele>31.2</ele>
        <time>2021-12-18T15:28:00Z</time>
      </trkpt>
      <trkpt lat="49.40219" lon="-1.6093">
        <ele>30.7</ele>
        <time>2021-12-18T15:28:03Z</time>
      </trkpt>
      <trkpt lat="49.40219" lon="-1.6094">
        <ele>30.2</ele>
        <time>2021-12-18T15:28:08Z</time>
      </trkpt>
      <trkpt lat="49.40218" lon="-1.60948">
        <ele>29.9</ele>
        <time>2021-12-18T15:28:10Z</time>
      </trkpt>
      <trkpt lat="49.40218" lon="-1.60956">
        <ele>29.6</ele>
        <time>2021-12-18T15:28:13Z</time>
      </trkpt>
      <trkpt lat="49.40219" lon="-1.60965">
        <ele>29.4</ele>
        <time>2021-12-18T15:28:17Z</time>
      </trkpt>
      <trkpt lat="49.40217" lon="-1.60973">
        <ele>28.9</ele>
        <time>2021-12-18T15:28:21Z</time>
      </trkpt>
      <trkpt lat="49.40216" lon="-1.6098">
        <ele>27.5</ele>
        <time>2021-12-18T15:28:33Z</time>
      </trkpt>
      <trkpt lat="49.40217" lon="-1.60989">
        <ele>27.4</ele>
        <time>2021-12-18T15:28:36Z</time>
      </trkpt>
      <trkpt lat="49.40219" lon="-1.60997">
        <ele>27.3</ele>
        <time>2021-12-18T15:28:38Z</time>
      </trkpt>
      <trkpt lat="49.40221" lon="-1.61007">
        <ele>27.2</ele>
        <time>2021-12-18T15:28:41Z</time>
      </trkpt>
      <trkpt lat="49.40222" lon="-1.61015">
        <ele>27</ele>
        <time>2021-12-18T15:28:44Z</time>
      </trkpt>
      <trkpt lat="49.40224" lon="-1.61023">
        <ele>26.5</ele>
        <time>2021-12-18T15:28:48Z</time>
      </trkpt>
      <trkpt lat="49.40228" lon="-1.61028">
        <ele>26.2</ele>
        <time>2021-12-18T15:28:51Z</time>
      </trkpt>
      <trkpt lat="49.40232" lon="-1.61033">
        <ele>25.9</ele>
        <time>2021-12-18T15:28:54Z</time>
      </trkpt>
      <trkpt lat="49.40236" lon="-1.61037">
        <ele>25.8</ele>
        <time>2021-12-18T15:28:57Z</time>
      </trkpt>
      <trkpt lat="49.40241" lon="-1.61042">
        <ele>25.7</ele>
        <time>2021-12-18T15:29:01Z</time>
      </trkpt>
      <trkpt lat="49.40246" lon="-1.61045">
        <ele>25.3</ele>
        <time>2021-12-18T15:29:05Z</time>
      </trkpt>
      <trkpt lat="49.4025" lon="-1.61048">
        <ele>24.9</ele>
        <time>2021-12-18T15:29:09Z</time>
      </trkpt>
      <trkpt lat="49.40254" lon="-1.61052">
        <ele>24.5</ele>
        <time>2021-12-18T15:29:11Z</time>
      </trkpt>
      <trkpt lat="49.40258" lon="-1.61056">
        <ele>24.3</ele>
        <time>2021-12-18T15:29:13Z</time>
      </trkpt>
      <trkpt lat="49.40262" lon="-1.61061">
        <ele>24.1</ele>
        <time>2021-12-18T15:29:16Z</time>
      </trkpt>
      <trkpt lat="49.40267" lon="-1.61068">
        <ele>23.9</ele>
        <time>2021-12-18T15:29:19Z</time>
      </trkpt>
      <trkpt lat="49.4027" lon="-1.61074">
        <ele>23.9</ele>
        <time>2021-12-18T15:29:22Z</time>
      </trkpt>
      <trkpt lat="49.40273" lon="-1.61081">
        <ele>23.5</ele>
        <time>2021-12-18T15:29:26Z</time>
      </trkpt>
      <trkpt lat="49.40274" lon="-1.6109">
        <ele>22.8</ele>
        <time>2021-12-18T15:29:29Z</time>
      </trkpt>
      <trkpt lat="49.40275" lon="-1.61097">
        <ele>22.3</ele>
        <time>2021-12-18T15:29:32Z</time>
      </trkpt>
      <trkpt lat="49.40274" lon="-1.61106">
        <ele>21.9</ele>
        <time>2021-12-18T15:29:36Z</time>
      </trkpt>
      <trkpt lat="49.40273" lon="-1.61113">
        <ele>21.6</ele>
        <time>2021-12-18T15:29:39Z</time>
      </trkpt>
      <trkpt lat="49.40271" lon="-1.61123">
        <ele>21.1</ele>
        <time>2021-12-18T15:29:42Z</time>
      </trkpt>
      <trkpt lat="49.4027" lon="-1.61132">
        <ele>20.7</ele>
        <time>2021-12-18T15:29:46Z</time>
      </trkpt>
      <trkpt lat="49.40267" lon="-1.61142">
        <ele>20.4</ele>
        <time>2021-12-18T15:29:50Z</time>
      </trkpt>
      <trkpt lat="49.40265" lon="-1.6115">
        <ele>19.7</ele>
        <time>2021-12-18T15:29:53Z</time>
      </trkpt>
      <trkpt lat="49.40263" lon="-1.61156">
        <ele>19</ele>
        <time>2021-12-18T15:29:56Z</time>
      </trkpt>
      <trkpt lat="49.4026" lon="-1.61165">
        <ele>18.4</ele>
        <time>2021-12-18T15:30:00Z</time>
      </trkpt>
      <trkpt lat="49.40258" lon="-1.61174">
        <ele>18</ele>
        <time>2021-12-18T15:30:05Z</time>
      </trkpt>
      <trkpt lat="49.40256" lon="-1.61182">
        <ele>17.6</ele>
        <time>2021-12-18T15:30:08Z</time>
      </trkpt>
      <trkpt lat="49.40254" lon="-1.6119">
        <ele>17.1</ele>
        <time>2021-12-18T15:30:12Z</time>
      </trkpt>
      <trkpt lat="49.40253" lon="-1.61197">
        <ele>17.1</ele>
        <time>2021-12-18T15:30:15Z</time>
      </trkpt>
      <trkpt lat="49.40252" lon="-1.61207">
        <ele>17.2</ele>
        <time>2021-12-18T15:30:19Z</time>
      </trkpt>
      <trkpt lat="49.40251" lon="-1.61216">
        <ele>17.6</ele>
        <time>2021-12-18T15:30:24Z</time>
      </trkpt>
      <trkpt lat="49.40248" lon="-1.61222">
        <ele>17.9</ele>
        <time>2021-12-18T15:30:28Z</time>
      </trkpt>
      <trkpt lat="49.40246" lon="-1.61229">
        <ele>18.2</ele>
        <time>2021-12-18T15:30:32Z</time>
      </trkpt>
      <trkpt lat="49.40245" lon="-1.61237">
        <ele>18.3</ele>
        <time>2021-12-18T15:30:36Z</time>
      </trkpt>
      <trkpt lat="49.40243" lon="-1.61247">
        <ele>18.4</ele>
        <time>2021-12-18T15:30:40Z</time>
      </trkpt>
      <trkpt lat="49.40241" lon="-1.61256">
        <ele>18.6</ele>
        <time>2021-12-18T15:30:43Z</time>
      </trkpt>
      <trkpt lat="49.40239" lon="-1.61266">
        <ele>18.7</ele>
        <time>2021-12-18T15:30:48Z</time>
      </trkpt>
      <trkpt lat="49.40238" lon="-1.61275">
        <ele>18.8</ele>
        <time>2021-12-18T15:30:52Z</time>
      </trkpt>
      <trkpt lat="49.40236" lon="-1.61282">
        <ele>18.7</ele>
        <time>2021-12-18T15:30:55Z</time>
      </trkpt>
      <trkpt lat="49.40235" lon="-1.61289">
        <ele>18.6</ele>
        <time>2021-12-18T15:30:58Z</time>
      </trkpt>
      <trkpt lat="49.40233" lon="-1.61295">
        <ele>18.5</ele>
        <time>2021-12-18T15:31:00Z</time>
      </trkpt>
      <trkpt lat="49.40232" lon="-1.61303">
        <ele>18.3</ele>
        <time>2021-12-18T15:31:04Z</time>
      </trkpt>
      <trkpt lat="49.4023" lon="-1.6131">
        <ele>18.1</ele>
        <time>2021-12-18T15:31:08Z</time>
      </trkpt>
      <trkpt lat="49.40228" lon="-1.61318">
        <ele>18</ele>
        <time>2021-12-18T15:31:11Z</time>
      </trkpt>
      <trkpt lat="49.40226" lon="-1.61325">
        <ele>17.9</ele>
        <time>2021-12-18T15:31:14Z</time>
      </trkpt>
      <trkpt lat="49.40224" lon="-1.61335">
        <ele>17.8</ele>
        <time>2021-12-18T15:31:19Z</time>
      </trkpt>
      <trkpt lat="49.40222" lon="-1.61343">
        <ele>17.8</ele>
        <time>2021-12-18T15:31:23Z</time>
      </trkpt>
      <trkpt lat="49.40219" lon="-1.61351">
        <ele>18</ele>
        <time>2021-12-18T15:31:26Z</time>
      </trkpt>
      <trkpt lat="49.40216" lon="-1.61361">
        <ele>18.3</ele>
        <time>2021-12-18T15:31:30Z</time>
      </trkpt>
      <trkpt lat="49.40214" lon="-1.61367">
        <ele>18.4</ele>
        <time>2021-12-18T15:31:33Z</time>
      </trkpt>
      <trkpt lat="49.40211" lon="-1.61373">
        <ele>18.5</ele>
        <time>2021-12-18T15:31:36Z</time>
      </trkpt>
      <trkpt lat="49.40208" lon="-1.61378">
        <ele>18.5</ele>
        <time>2021-12-18T15:31:41Z</time>
      </trkpt>
      <trkpt lat="49.40206" lon="-1.61386">
        <ele>18.6</ele>
        <time>2021-12-18T15:31:45Z</time>
      </trkpt>
      <trkpt lat="49.40203" lon="-1.61393">
        <ele>18.4</ele>
        <time>2021-12-18T15:31:49Z</time>
      </trkpt>
      <trkpt lat="49.40205" lon="-1.61399">
        <ele>18.5</ele>
        <time>2021-12-18T15:31:54Z</time>
      </trkpt>
      <trkpt lat="49.40205" lon="-1.61408">
        <ele>18.5</ele>
        <time>2021-12-18T15:31:57Z</time>
      </trkpt>
      <trkpt lat="49.402" lon="-1.61414">
        <ele>18.5</ele>
        <time>2021-12-18T15:32:00Z</time>
      </trkpt>
      <trkpt lat="49.40196" lon="-1.61421">
        <ele>18.5</ele>
        <time>2021-12-18T15:32:04Z</time>
      </trkpt>
      <trkpt lat="49.40192" lon="-1.61425">
        <ele>18.4</ele>
        <time>2021-12-18T15:32:06Z</time>
      </trkpt>
      <trkpt lat="49.40188" lon="-1.61431">
        <ele>18.2</ele>
        <time>2021-12-18T15:32:10Z</time>
      </trkpt>
      <trkpt lat="49.40184" lon="-1.61438">
        <ele>18</ele>
        <time>2021-12-18T15:32:14Z</time>
      </trkpt>
      <trkpt lat="49.40181" lon="-1.61446">
        <ele>17.9</ele>
        <time>2021-12-18T15:32:17Z</time>
      </trkpt>
      <trkpt lat="49.4018" lon="-1.61453">
        <ele>17.9</ele>
        <time>2021-12-18T15:32:22Z</time>
      </trkpt>
      <trkpt lat="49.40177" lon="-1.6146">
        <ele>18</ele>
        <time>2021-12-18T15:32:25Z</time>
      </trkpt>
      <trkpt lat="49.40174" lon="-1.61466">
        <ele>18</ele>
        <time>2021-12-18T15:32:28Z</time>
      </trkpt>
      <trkpt lat="49.4017" lon="-1.61473">
        <ele>18.3</ele>
        <time>2021-12-18T15:32:31Z</time>
      </trkpt>
      <trkpt lat="49.40166" lon="-1.61481">
        <ele>18.5</ele>
        <time>2021-12-18T15:32:36Z</time>
      </trkpt>
      <trkpt lat="49.40164" lon="-1.61488">
        <ele>18.7</ele>
        <time>2021-12-18T15:32:39Z</time>
      </trkpt>
      <trkpt lat="49.40161" lon="-1.61493">
        <ele>18.6</ele>
        <time>2021-12-18T15:32:42Z</time>
      </trkpt>
      <trkpt lat="49.40158" lon="-1.61501">
        <ele>18.6</ele>
        <time>2021-12-18T15:32:46Z</time>
      </trkpt>
      <trkpt lat="49.40155" lon="-1.61508">
        <ele>18.5</ele>
        <time>2021-12-18T15:32:49Z</time>
      </trkpt>
      <trkpt lat="49.40151" lon="-1.61516">
        <ele>18.5</ele>
        <time>2021-12-18T15:32:53Z</time>
      </trkpt>
      <trkpt lat="49.40148" lon="-1.61523">
        <ele>18.4</ele>
        <time>2021-12-18T15:32:56Z</time>
      </trkpt>
      <trkpt lat="49.40146" lon="-1.61531">
        <ele>18.3</ele>
        <time>2021-12-18T15:33:00Z</time>
      </trkpt>
      <trkpt lat="49.40143" lon="-1.6154">
        <ele>18.3</ele>
        <time>2021-12-18T15:33:03Z</time>
      </trkpt>
      <trkpt lat="49.40141" lon="-1.61546">
        <ele>18.3</ele>
        <time>2021-12-18T15:33:06Z</time>
      </trkpt>
      <trkpt lat="49.40139" lon="-1.61553">
        <ele>18.3</ele>
        <time>2021-12-18T15:33:09Z</time>
      </trkpt>
      <trkpt lat="49.40137" lon="-1.61561">
        <ele>18.2</ele>
        <time>2021-12-18T15:33:12Z</time>
      </trkpt>
      <trkpt lat="49.40134" lon="-1.61568">
        <ele>18</ele>
        <time>2021-12-18T15:33:16Z</time>
      </trkpt>
      <trkpt lat="49.40132" lon="-1.61575">
        <ele>18</ele>
        <time>2021-12-18T15:33:19Z</time>
      </trkpt>
      <trkpt lat="49.40129" lon="-1.61583">
        <ele>17.9</ele>
        <time>2021-12-18T15:33:23Z</time>
      </trkpt>
      <trkpt lat="49.40127" lon="-1.61591">
        <ele>17.9</ele>
        <time>2021-12-18T15:33:27Z</time>
      </trkpt>
      <trkpt lat="49.40125" lon="-1.61599">
        <ele>17.9</ele>
        <time>2021-12-18T15:33:30Z</time>
      </trkpt>
      <trkpt lat="49.40124" lon="-1.61606">
        <ele>17.9</ele>
        <time>2021-12-18T15:33:32Z</time>
      </trkpt>
      <trkpt lat="49.40122" lon="-1.61616">
        <ele>17.9</ele>
        <time>2021-12-18T15:33:36Z</time>
      </trkpt>
      <trkpt lat="49.40121" lon="-1.61625">
        <ele>17.6</ele>
        <time>2021-12-18T15:33:40Z</time>
      </trkpt>
      <trkpt lat="49.4012" lon="-1.61633">
        <ele>17.2</ele>
        <time>2021-12-18T15:33:44Z</time>
      </trkpt>
      <trkpt lat="49.40119" lon="-1.61641">
        <ele>17</ele>
        <time>2021-12-18T15:33:47Z</time>
      </trkpt>
      <trkpt lat="49.40118" lon="-1.6165">
        <ele>17.2</ele>
        <time>2021-12-18T15:33:51Z</time>
      </trkpt>
      <trkpt lat="49.40116" lon="-1.61659">
        <ele>17.3</ele>
        <time>2021-12-18T15:33:55Z</time>
      </trkpt>
      <trkpt lat="49.40115" lon="-1.61667">
        <ele>17.4</ele>
        <time>2021-12-18T15:33:58Z</time>
      </trkpt>
      <trkpt lat="49.40113" lon="-1.61673">
        <ele>17.5</ele>
        <time>2021-12-18T15:34:01Z</time>
      </trkpt>
      <trkpt lat="49.40112" lon="-1.6168">
        <ele>17.4</ele>
        <time>2021-12-18T15:34:04Z</time>
      </trkpt>
      <trkpt lat="49.40107" lon="-1.61687">
        <ele>17</ele>
        <time>2021-12-18T15:34:09Z</time>
      </trkpt>
      <trkpt lat="49.40102" lon="-1.61688">
        <ele>16.7</ele>
        <time>2021-12-18T15:34:12Z</time>
      </trkpt>
      <trkpt lat="49.40097" lon="-1.61692">
        <ele>16.2</ele>
        <time>2021-12-18T15:34:21Z</time>
      </trkpt>
      <trkpt lat="49.40092" lon="-1.61692">
        <ele>16.3</ele>
        <time>2021-12-18T15:34:24Z</time>
      </trkpt>
      <trkpt lat="49.40086" lon="-1.6169">
        <ele>16.3</ele>
        <time>2021-12-18T15:34:27Z</time>
      </trkpt>
      <trkpt lat="49.40081" lon="-1.61688">
        <ele>16.3</ele>
        <time>2021-12-18T15:34:31Z</time>
      </trkpt>
      <trkpt lat="49.40076" lon="-1.61689">
        <ele>16.6</ele>
        <time>2021-12-18T15:34:36Z</time>
      </trkpt>
      <trkpt lat="49.4007" lon="-1.61694">
        <ele>17.2</ele>
        <time>2021-12-18T15:34:41Z</time>
      </trkpt>
      <trkpt lat="49.40066" lon="-1.61698">
        <ele>17.7</ele>
        <time>2021-12-18T15:34:44Z</time>
      </trkpt>
      <trkpt lat="49.40063" lon="-1.61703">
        <ele>17.8</ele>
        <time>2021-12-18T15:34:47Z</time>
      </trkpt>
      <trkpt lat="49.4006" lon="-1.61709">
        <ele>18</ele>
        <time>2021-12-18T15:34:50Z</time>
      </trkpt>
      <trkpt lat="49.40057" lon="-1.61717">
        <ele>18.1</ele>
        <time>2021-12-18T15:34:55Z</time>
      </trkpt>
      <trkpt lat="49.40056" lon="-1.61725">
        <ele>18.8</ele>
        <time>2021-12-18T15:35:12Z</time>
      </trkpt>
      <trkpt lat="49.40054" lon="-1.61732">
        <ele>18.7</ele>
        <time>2021-12-18T15:35:15Z</time>
      </trkpt>
      <trkpt lat="49.40053" lon="-1.6174">
        <ele>18.7</ele>
        <time>2021-12-18T15:35:19Z</time>
      </trkpt>
      <trkpt lat="49.40051" lon="-1.61747">
        <ele>18.9</ele>
        <time>2021-12-18T15:35:22Z</time>
      </trkpt>
      <trkpt lat="49.40048" lon="-1.61754">
        <ele>19</ele>
        <time>2021-12-18T15:35:25Z</time>
      </trkpt>
      <trkpt lat="49.40046" lon="-1.61761">
        <ele>19.4</ele>
        <time>2021-12-18T15:35:28Z</time>
      </trkpt>
      <trkpt lat="49.40043" lon="-1.61768">
        <ele>19.7</ele>
        <time>2021-12-18T15:35:31Z</time>
      </trkpt>
      <trkpt lat="49.40041" lon="-1.61775">
        <ele>20.1</ele>
        <time>2021-12-18T15:35:34Z</time>
      </trkpt>
      <trkpt lat="49.40038" lon="-1.6178">
        <ele>20.4</ele>
        <time>2021-12-18T15:35:38Z</time>
      </trkpt>
      <trkpt lat="49.40035" lon="-1.61787">
        <ele>20.9</ele>
        <time>2021-12-18T15:35:42Z</time>
      </trkpt>
      <trkpt lat="49.40031" lon="-1.61793">
        <ele>21.3</ele>
        <time>2021-12-18T15:35:46Z</time>
      </trkpt>
      <trkpt lat="49.40026" lon="-1.61795">
        <ele>21.7</ele>
        <time>2021-12-18T15:35:50Z</time>
      </trkpt>
      <trkpt lat="49.40021" lon="-1.61794">
        <ele>21.5</ele>
        <time>2021-12-18T15:35:57Z</time>
      </trkpt>
      <trkpt lat="49.40016" lon="-1.61797">
        <ele>20.6</ele>
        <time>2021-12-18T15:36:06Z</time>
      </trkpt>
      <trkpt lat="49.40011" lon="-1.61799">
        <ele>20.4</ele>
        <time>2021-12-18T15:36:10Z</time>
      </trkpt>
      <trkpt lat="49.40006" lon="-1.61798">
        <ele>21.4</ele>
        <time>2021-12-18T15:36:22Z</time>
      </trkpt>
      <trkpt lat="49.40001" lon="-1.61798">
        <ele>21.7</ele>
        <time>2021-12-18T15:36:26Z</time>
      </trkpt>
      <trkpt lat="49.39995" lon="-1.61798">
        <ele>21.9</ele>
        <time>2021-12-18T15:36:29Z</time>
      </trkpt>
      <trkpt lat="49.39989" lon="-1.61798">
        <ele>22</ele>
        <time>2021-12-18T15:36:32Z</time>
      </trkpt>
      <trkpt lat="49.39983" lon="-1.61799">
        <ele>22</ele>
        <time>2021-12-18T15:36:35Z</time>
      </trkpt>
      <trkpt lat="49.39978" lon="-1.61798">
        <ele>21.5</ele>
        <time>2021-12-18T15:36:41Z</time>
      </trkpt>
      <trkpt lat="49.39973" lon="-1.61797">
        <ele>20.9</ele>
        <time>2021-12-18T15:36:46Z</time>
      </trkpt>
      <trkpt lat="49.39968" lon="-1.61796">
        <ele>21.5</ele>
        <time>2021-12-18T15:36:53Z</time>
      </trkpt>
      <trkpt lat="49.39963" lon="-1.61796">
        <ele>22.4</ele>
        <time>2021-12-18T15:36:58Z</time>
      </trkpt>
      <trkpt lat="49.39957" lon="-1.61797">
        <ele>22.7</ele>
        <time>2021-12-18T15:37:02Z</time>
      </trkpt>
      <trkpt lat="49.39951" lon="-1.61798">
        <ele>22.9</ele>
        <time>2021-12-18T15:37:06Z</time>
      </trkpt>
      <trkpt lat="49.39947" lon="-1.61797">
        <ele>23.6</ele>
        <time>2021-12-18T15:37:11Z</time>
      </trkpt>
      <trkpt lat="49.39938" lon="-1.61797">
        <ele>24.7</ele>
        <time>2021-12-18T15:37:16Z</time>
      </trkpt>
      <trkpt lat="49.39934" lon="-1.61797">
        <ele>25.4</ele>
        <time>2021-12-18T15:37:18Z</time>
      </trkpt>
      <trkpt lat="49.39929" lon="-1.61799">
        <ele>27.4</ele>
        <time>2021-12-18T15:37:25Z</time>
      </trkpt>
      <trkpt lat="49.39922" lon="-1.618">
        <ele>27.8</ele>
        <time>2021-12-18T15:37:29Z</time>
      </trkpt>
      <trkpt lat="49.39916" lon="-1.61801">
        <ele>27.5</ele>
        <time>2021-12-18T15:37:32Z</time>
      </trkpt>
      <trkpt lat="49.3991" lon="-1.618">
        <ele>27</ele>
        <time>2021-12-18T15:37:35Z</time>
      </trkpt>
      <trkpt lat="49.39905" lon="-1.61801">
        <ele>26.9</ele>
        <time>2021-12-18T15:37:39Z</time>
      </trkpt>
      <trkpt lat="49.39901" lon="-1.61802">
        <ele>27.4</ele>
        <time>2021-12-18T15:37:45Z</time>
      </trkpt>
      <trkpt lat="49.39896" lon="-1.61804">
        <ele>27.7</ele>
        <time>2021-12-18T15:37:53Z</time>
      </trkpt>
      <trkpt lat="49.3989" lon="-1.61805">
        <ele>27.6</ele>
        <time>2021-12-18T15:37:57Z</time>
      </trkpt>
      <trkpt lat="49.39884" lon="-1.61806">
        <ele>27.4</ele>
        <time>2021-12-18T15:37:59Z</time>
      </trkpt>
      <trkpt lat="49.39878" lon="-1.61806">
        <ele>27.1</ele>
        <time>2021-12-18T15:38:02Z</time>
      </trkpt>
      <trkpt lat="49.39873" lon="-1.61806">
        <ele>26.6</ele>
        <time>2021-12-18T15:38:06Z</time>
      </trkpt>
      <trkpt lat="49.39868" lon="-1.61805">
        <ele>26.5</ele>
        <time>2021-12-18T15:38:11Z</time>
      </trkpt>
      <trkpt lat="49.39863" lon="-1.61803">
        <ele>27.3</ele>
        <time>2021-12-18T15:38:15Z</time>
      </trkpt>
      <trkpt lat="49.39857" lon="-1.61804">
        <ele>27.6</ele>
        <time>2021-12-18T15:38:18Z</time>
      </trkpt>
      <trkpt lat="49.39852" lon="-1.61804">
        <ele>28.1</ele>
        <time>2021-12-18T15:38:22Z</time>
      </trkpt>
      <trkpt lat="49.39847" lon="-1.61806">
        <ele>28.8</ele>
        <time>2021-12-18T15:38:36Z</time>
      </trkpt>
      <trkpt lat="49.39843" lon="-1.61808">
        <ele>28.2</ele>
        <time>2021-12-18T15:38:41Z</time>
      </trkpt>
      <trkpt lat="49.39837" lon="-1.61812">
        <ele>27.8</ele>
        <time>2021-12-18T15:38:44Z</time>
      </trkpt>
      <trkpt lat="49.39833" lon="-1.61816">
        <ele>27.5</ele>
        <time>2021-12-18T15:38:48Z</time>
      </trkpt>
      <trkpt lat="49.39828" lon="-1.61822">
        <ele>27.3</ele>
        <time>2021-12-18T15:38:52Z</time>
      </trkpt>
      <trkpt lat="49.39823" lon="-1.61825">
        <ele>26.9</ele>
        <time>2021-12-18T15:38:55Z</time>
      </trkpt>
      <trkpt lat="49.39818" lon="-1.61828">
        <ele>26.7</ele>
        <time>2021-12-18T15:38:59Z</time>
      </trkpt>
      <trkpt lat="49.39813" lon="-1.61834">
        <ele>26.5</ele>
        <time>2021-12-18T15:39:03Z</time>
      </trkpt>
      <trkpt lat="49.39809" lon="-1.61834">
        <ele>25.2</ele>
        <time>2021-12-18T15:39:14Z</time>
      </trkpt>
      <trkpt lat="49.39812" lon="-1.61829">
        <ele>22</ele>
        <time>2021-12-18T15:40:37Z</time>
      </trkpt>
      <trkpt lat="49.39808" lon="-1.61825">
        <ele>22.9</ele>
        <time>2021-12-18T15:40:50Z</time>
      </trkpt>
      <trkpt lat="49.39802" lon="-1.61825">
        <ele>22.9</ele>
        <time>2021-12-18T15:40:56Z</time>
      </trkpt>
      <trkpt lat="49.39797" lon="-1.61827">
        <ele>22.4</ele>
        <time>2021-12-18T15:41:01Z</time>
      </trkpt>
      <trkpt lat="49.39791" lon="-1.61827">
        <ele>22.1</ele>
        <time>2021-12-18T15:41:04Z</time>
      </trkpt>
      <trkpt lat="49.39776" lon="-1.6182">
        <ele>22.8</ele>
        <time>2021-12-18T15:41:11Z</time>
      </trkpt>
      <trkpt lat="49.3977" lon="-1.6182">
        <ele>23.5</ele>
        <time>2021-12-18T15:41:14Z</time>
      </trkpt>
      <trkpt lat="49.39765" lon="-1.61821">
        <ele>24.3</ele>
        <time>2021-12-18T15:41:18Z</time>
      </trkpt>
      <trkpt lat="49.39759" lon="-1.61822">
        <ele>24.6</ele>
        <time>2021-12-18T15:41:22Z</time>
      </trkpt>
      <trkpt lat="49.39754" lon="-1.61822">
        <ele>24.7</ele>
        <time>2021-12-18T15:41:26Z</time>
      </trkpt>
      <trkpt lat="49.39749" lon="-1.61822">
        <ele>24.8</ele>
        <time>2021-12-18T15:41:29Z</time>
      </trkpt>
      <trkpt lat="49.39744" lon="-1.61825">
        <ele>25.1</ele>
        <time>2021-12-18T15:41:35Z</time>
      </trkpt>
      <trkpt lat="49.39738" lon="-1.61826">
        <ele>25.4</ele>
        <time>2021-12-18T15:41:39Z</time>
      </trkpt>
      <trkpt lat="49.39732" lon="-1.61825">
        <ele>25.8</ele>
        <time>2021-12-18T15:41:42Z</time>
      </trkpt>
      <trkpt lat="49.39727" lon="-1.61825">
        <ele>26.1</ele>
        <time>2021-12-18T15:41:46Z</time>
      </trkpt>
      <trkpt lat="49.39722" lon="-1.61823">
        <ele>26.5</ele>
        <time>2021-12-18T15:41:51Z</time>
      </trkpt>
      <trkpt lat="49.39716" lon="-1.61822">
        <ele>26.7</ele>
        <time>2021-12-18T15:41:56Z</time>
      </trkpt>
      <trkpt lat="49.39709" lon="-1.61819">
        <ele>26.7</ele>
        <time>2021-12-18T15:42:01Z</time>
      </trkpt>
      <trkpt lat="49.39705" lon="-1.61817">
        <ele>26.7</ele>
        <time>2021-12-18T15:42:12Z</time>
      </trkpt>
      <trkpt lat="49.39699" lon="-1.61814">
        <ele>25.6</ele>
        <time>2021-12-18T15:42:18Z</time>
      </trkpt>
      <trkpt lat="49.39694" lon="-1.61812">
        <ele>25</ele>
        <time>2021-12-18T15:42:22Z</time>
      </trkpt>
      <trkpt lat="49.39689" lon="-1.61811">
        <ele>24.6</ele>
        <time>2021-12-18T15:42:29Z</time>
      </trkpt>
      <trkpt lat="49.39683" lon="-1.6181">
        <ele>24.2</ele>
        <time>2021-12-18T15:42:37Z</time>
      </trkpt>
      <trkpt lat="49.39678" lon="-1.61809">
        <ele>24.1</ele>
        <time>2021-12-18T15:42:40Z</time>
      </trkpt>
      <trkpt lat="49.39673" lon="-1.61806">
        <ele>23.7</ele>
        <time>2021-12-18T15:42:44Z</time>
      </trkpt>
      <trkpt lat="49.39668" lon="-1.61805">
        <ele>23.3</ele>
        <time>2021-12-18T15:42:46Z</time>
      </trkpt>
      <trkpt lat="49.39663" lon="-1.61802">
        <ele>22.7</ele>
        <time>2021-12-18T15:42:50Z</time>
      </trkpt>
      <trkpt lat="49.39656" lon="-1.61796">
        <ele>22.5</ele>
        <time>2021-12-18T15:42:53Z</time>
      </trkpt>
      <trkpt lat="49.39651" lon="-1.61792">
        <ele>22.5</ele>
        <time>2021-12-18T15:42:56Z</time>
      </trkpt>
      <trkpt lat="49.39647" lon="-1.61788">
        <ele>23.8</ele>
        <time>2021-12-18T15:43:02Z</time>
      </trkpt>
      <trkpt lat="49.39643" lon="-1.61783">
        <ele>24.5</ele>
        <time>2021-12-18T15:43:15Z</time>
      </trkpt>
      <trkpt lat="49.39635" lon="-1.61779">
        <ele>24.3</ele>
        <time>2021-12-18T15:43:19Z</time>
      </trkpt>
      <trkpt lat="49.3963" lon="-1.61775">
        <ele>24.2</ele>
        <time>2021-12-18T15:43:22Z</time>
      </trkpt>
      <trkpt lat="49.39625" lon="-1.61772">
        <ele>24.2</ele>
        <time>2021-12-18T15:43:25Z</time>
      </trkpt>
      <trkpt lat="49.39617" lon="-1.61767">
        <ele>24.4</ele>
        <time>2021-12-18T15:43:30Z</time>
      </trkpt>
      <trkpt lat="49.39612" lon="-1.61764">
        <ele>24.7</ele>
        <time>2021-12-18T15:43:35Z</time>
      </trkpt>
      <trkpt lat="49.39608" lon="-1.6176">
        <ele>24.9</ele>
        <time>2021-12-18T15:43:39Z</time>
      </trkpt>
      <trkpt lat="49.39603" lon="-1.61757">
        <ele>25</ele>
        <time>2021-12-18T15:43:46Z</time>
      </trkpt>
      <trkpt lat="49.39598" lon="-1.61753">
        <ele>25</ele>
        <time>2021-12-18T15:43:50Z</time>
      </trkpt>
      <trkpt lat="49.39594" lon="-1.6175">
        <ele>25.7</ele>
        <time>2021-12-18T15:43:59Z</time>
      </trkpt>
      <trkpt lat="49.3959" lon="-1.61746">
        <ele>26.3</ele>
        <time>2021-12-18T15:44:08Z</time>
      </trkpt>
      <trkpt lat="49.39586" lon="-1.61743">
        <ele>25.9</ele>
        <time>2021-12-18T15:44:16Z</time>
      </trkpt>
      <trkpt lat="49.39581" lon="-1.61741">
        <ele>25.8</ele>
        <time>2021-12-18T15:44:21Z</time>
      </trkpt>
      <trkpt lat="49.39575" lon="-1.61744">
        <ele>25.5</ele>
        <time>2021-12-18T15:44:30Z</time>
      </trkpt>
      <trkpt lat="49.3957" lon="-1.61749">
        <ele>25.5</ele>
        <time>2021-12-18T15:44:33Z</time>
      </trkpt>
      <trkpt lat="49.39567" lon="-1.61754">
        <ele>25.5</ele>
        <time>2021-12-18T15:44:36Z</time>
      </trkpt>
      <trkpt lat="49.39556" lon="-1.61759">
        <ele>25.7</ele>
        <time>2021-12-18T15:44:40Z</time>
      </trkpt>
      <trkpt lat="49.39551" lon="-1.61759">
        <ele>25.6</ele>
        <time>2021-12-18T15:44:43Z</time>
      </trkpt>
      <trkpt lat="49.39546" lon="-1.61756">
        <ele>25.6</ele>
        <time>2021-12-18T15:44:45Z</time>
      </trkpt>
      <trkpt lat="49.39542" lon="-1.61754">
        <ele>25.5</ele>
        <time>2021-12-18T15:44:47Z</time>
      </trkpt>
      <trkpt lat="49.39535" lon="-1.61753">
        <ele>25.1</ele>
        <time>2021-12-18T15:44:51Z</time>
      </trkpt>
      <trkpt lat="49.3953" lon="-1.61754">
        <ele>24.8</ele>
        <time>2021-12-18T15:44:54Z</time>
      </trkpt>
      <trkpt lat="49.39525" lon="-1.61754">
        <ele>24.6</ele>
        <time>2021-12-18T15:44:57Z</time>
      </trkpt>
      <trkpt lat="49.3952" lon="-1.61755">
        <ele>24.6</ele>
        <time>2021-12-18T15:45:01Z</time>
      </trkpt>
      <trkpt lat="49.39515" lon="-1.61755">
        <ele>24.6</ele>
        <time>2021-12-18T15:45:05Z</time>
      </trkpt>
      <trkpt lat="49.3951" lon="-1.61756">
        <ele>24.4</ele>
        <time>2021-12-18T15:45:08Z</time>
      </trkpt>
      <trkpt lat="49.39503" lon="-1.61757">
        <ele>24.4</ele>
        <time>2021-12-18T15:45:13Z</time>
      </trkpt>
      <trkpt lat="49.39497" lon="-1.6176">
        <ele>24.4</ele>
        <time>2021-12-18T15:45:17Z</time>
      </trkpt>
      <trkpt lat="49.39492" lon="-1.61761">
        <ele>24.7</ele>
        <time>2021-12-18T15:45:20Z</time>
      </trkpt>
      <trkpt lat="49.39487" lon="-1.61761">
        <ele>25.1</ele>
        <time>2021-12-18T15:45:24Z</time>
      </trkpt>
      <trkpt lat="49.39483" lon="-1.61762">
        <ele>25.3</ele>
        <time>2021-12-18T15:45:28Z</time>
      </trkpt>
      <trkpt lat="49.39477" lon="-1.61761">
        <ele>25</ele>
        <time>2021-12-18T15:45:33Z</time>
      </trkpt>
      <trkpt lat="49.39472" lon="-1.61759">
        <ele>24.6</ele>
        <time>2021-12-18T15:45:36Z</time>
      </trkpt>
      <trkpt lat="49.39467" lon="-1.61757">
        <ele>24</ele>
        <time>2021-12-18T15:45:40Z</time>
      </trkpt>
      <trkpt lat="49.39462" lon="-1.61756">
        <ele>23.6</ele>
        <time>2021-12-18T15:45:44Z</time>
      </trkpt>
      <trkpt lat="49.39457" lon="-1.61754">
        <ele>23.3</ele>
        <time>2021-12-18T15:45:48Z</time>
      </trkpt>
      <trkpt lat="49.39452" lon="-1.61752">
        <ele>23.3</ele>
        <time>2021-12-18T15:45:52Z</time>
      </trkpt>
      <trkpt lat="49.39447" lon="-1.6175">
        <ele>23.5</ele>
        <time>2021-12-18T15:45:56Z</time>
      </trkpt>
      <trkpt lat="49.39442" lon="-1.6175">
        <ele>23.8</ele>
        <time>2021-12-18T15:46:00Z</time>
      </trkpt>
      <trkpt lat="49.39436" lon="-1.61748">
        <ele>24</ele>
        <time>2021-12-18T15:46:04Z</time>
      </trkpt>
      <trkpt lat="49.39431" lon="-1.61747">
        <ele>24</ele>
        <time>2021-12-18T15:46:08Z</time>
      </trkpt>
      <trkpt lat="49.39426" lon="-1.61746">
        <ele>24.3</ele>
        <time>2021-12-18T15:46:12Z</time>
      </trkpt>
      <trkpt lat="49.3942" lon="-1.61745">
        <ele>24.6</ele>
        <time>2021-12-18T15:46:16Z</time>
      </trkpt>
      <trkpt lat="49.39416" lon="-1.61743">
        <ele>24.9</ele>
        <time>2021-12-18T15:46:20Z</time>
      </trkpt>
      <trkpt lat="49.39411" lon="-1.61743">
        <ele>25.1</ele>
        <time>2021-12-18T15:46:24Z</time>
      </trkpt>
      <trkpt lat="49.39406" lon="-1.61743">
        <ele>25.3</ele>
        <time>2021-12-18T15:46:28Z</time>
      </trkpt>
      <trkpt lat="49.39401" lon="-1.61742">
        <ele>25.5</ele>
        <time>2021-12-18T15:46:31Z</time>
      </trkpt>
      <trkpt lat="49.39396" lon="-1.6174">
        <ele>25.8</ele>
        <time>2021-12-18T15:46:35Z</time>
      </trkpt>
      <trkpt lat="49.3939" lon="-1.61737">
        <ele>26.2</ele>
        <time>2021-12-18T15:46:40Z</time>
      </trkpt>
      <trkpt lat="49.39385" lon="-1.61736">
        <ele>26.7</ele>
        <time>2021-12-18T15:46:45Z</time>
      </trkpt>
      <trkpt lat="49.3938" lon="-1.61734">
        <ele>27.1</ele>
        <time>2021-12-18T15:46:49Z</time>
      </trkpt>
      <trkpt lat="49.39375" lon="-1.61734">
        <ele>27.3</ele>
        <time>2021-12-18T15:46:52Z</time>
      </trkpt>
      <trkpt lat="49.3937" lon="-1.61734">
        <ele>27.5</ele>
        <time>2021-12-18T15:46:56Z</time>
      </trkpt>
      <trkpt lat="49.39365" lon="-1.61733">
        <ele>27.8</ele>
        <time>2021-12-18T15:47:00Z</time>
      </trkpt>
      <trkpt lat="49.3936" lon="-1.6173">
        <ele>28.4</ele>
        <time>2021-12-18T15:47:03Z</time>
      </trkpt>
      <trkpt lat="49.39356" lon="-1.61728">
        <ele>29</ele>
        <time>2021-12-18T15:47:06Z</time>
      </trkpt>
      <trkpt lat="49.3935" lon="-1.61728">
        <ele>29.6</ele>
        <time>2021-12-18T15:47:10Z</time>
      </trkpt>
      <trkpt lat="49.39345" lon="-1.61728">
        <ele>29.8</ele>
        <time>2021-12-18T15:47:15Z</time>
      </trkpt>
      <trkpt lat="49.3934" lon="-1.61726">
        <ele>30</ele>
        <time>2021-12-18T15:47:18Z</time>
      </trkpt>
      <trkpt lat="49.39335" lon="-1.61724">
        <ele>30.4</ele>
        <time>2021-12-18T15:47:23Z</time>
      </trkpt>
      <trkpt lat="49.39329" lon="-1.61722">
        <ele>31.3</ele>
        <time>2021-12-18T15:47:28Z</time>
      </trkpt>
      <trkpt lat="49.39324" lon="-1.6172">
        <ele>31.7</ele>
        <time>2021-12-18T15:47:31Z</time>
      </trkpt>
      <trkpt lat="49.39319" lon="-1.61717">
        <ele>31.9</ele>
        <time>2021-12-18T15:47:35Z</time>
      </trkpt>
      <trkpt lat="49.39313" lon="-1.61715">
        <ele>32.4</ele>
        <time>2021-12-18T15:47:40Z</time>
      </trkpt>
      <trkpt lat="49.39308" lon="-1.61714">
        <ele>33.2</ele>
        <time>2021-12-18T15:47:44Z</time>
      </trkpt>
      <trkpt lat="49.39303" lon="-1.61713">
        <ele>33.7</ele>
        <time>2021-12-18T15:47:48Z</time>
      </trkpt>
      <trkpt lat="49.39299" lon="-1.61712">
        <ele>34.1</ele>
        <time>2021-12-18T15:47:51Z</time>
      </trkpt>
      <trkpt lat="49.39293" lon="-1.61712">
        <ele>34.5</ele>
        <time>2021-12-18T15:47:55Z</time>
      </trkpt>
      <trkpt lat="49.39288" lon="-1.61711">
        <ele>35</ele>
        <time>2021-12-18T15:47:58Z</time>
      </trkpt>
      <trkpt lat="49.39282" lon="-1.61709">
        <ele>35.5</ele>
        <time>2021-12-18T15:48:03Z</time>
      </trkpt>
      <trkpt lat="49.39277" lon="-1.61706">
        <ele>35.9</ele>
        <time>2021-12-18T15:48:07Z</time>
      </trkpt>
      <trkpt lat="49.39271" lon="-1.61705">
        <ele>36.6</ele>
        <time>2021-12-18T15:48:12Z</time>
      </trkpt>
      <trkpt lat="49.39266" lon="-1.61705">
        <ele>36.8</ele>
        <time>2021-12-18T15:48:16Z</time>
      </trkpt>
      <trkpt lat="49.39261" lon="-1.61704">
        <ele>36.8</ele>
        <time>2021-12-18T15:48:20Z</time>
      </trkpt>
      <trkpt lat="49.39256" lon="-1.61705">
        <ele>36.7</ele>
        <time>2021-12-18T15:48:23Z</time>
      </trkpt>
      <trkpt lat="49.39251" lon="-1.61704">
        <ele>36.7</ele>
        <time>2021-12-18T15:48:27Z</time>
      </trkpt>
      <trkpt lat="49.39246" lon="-1.61704">
        <ele>36.7</ele>
        <time>2021-12-18T15:48:31Z</time>
      </trkpt>
      <trkpt lat="49.39242" lon="-1.61703">
        <ele>36.6</ele>
        <time>2021-12-18T15:48:35Z</time>
      </trkpt>
      <trkpt lat="49.39236" lon="-1.61701">
        <ele>36.8</ele>
        <time>2021-12-18T15:48:39Z</time>
      </trkpt>
      <trkpt lat="49.39231" lon="-1.61701">
        <ele>37.2</ele>
        <time>2021-12-18T15:48:43Z</time>
      </trkpt>
      <trkpt lat="49.39225" lon="-1.61698">
        <ele>37.9</ele>
        <time>2021-12-18T15:48:47Z</time>
      </trkpt>
      <trkpt lat="49.39221" lon="-1.61696">
        <ele>38.3</ele>
        <time>2021-12-18T15:48:50Z</time>
      </trkpt>
      <trkpt lat="49.39215" lon="-1.61695">
        <ele>38.7</ele>
        <time>2021-12-18T15:48:54Z</time>
      </trkpt>
      <trkpt lat="49.39209" lon="-1.61694">
        <ele>39</ele>
        <time>2021-12-18T15:48:59Z</time>
      </trkpt>
      <trkpt lat="49.39204" lon="-1.61693">
        <ele>39.5</ele>
        <time>2021-12-18T15:49:03Z</time>
      </trkpt>
      <trkpt lat="49.39198" lon="-1.61691">
        <ele>39.8</ele>
        <time>2021-12-18T15:49:08Z</time>
      </trkpt>
      <trkpt lat="49.39194" lon="-1.6169">
        <ele>40.1</ele>
        <time>2021-12-18T15:49:12Z</time>
      </trkpt>
      <trkpt lat="49.39189" lon="-1.61688">
        <ele>40.4</ele>
        <time>2021-12-18T15:49:15Z</time>
      </trkpt>
      <trkpt lat="49.39183" lon="-1.61687">
        <ele>40.8</ele>
        <time>2021-12-18T15:49:19Z</time>
      </trkpt>
      <trkpt lat="49.39178" lon="-1.61685">
        <ele>41.1</ele>
        <time>2021-12-18T15:49:22Z</time>
      </trkpt>
      <trkpt lat="49.3917" lon="-1.61683">
        <ele>41.8</ele>
        <time>2021-12-18T15:49:26Z</time>
      </trkpt>
      <trkpt lat="49.39165" lon="-1.61681">
        <ele>42.4</ele>
        <time>2021-12-18T15:49:29Z</time>
      </trkpt>
      <trkpt lat="49.3916" lon="-1.61679">
        <ele>43.1</ele>
        <time>2021-12-18T15:49:33Z</time>
      </trkpt>
      <trkpt lat="49.39155" lon="-1.61678">
        <ele>43.8</ele>
        <time>2021-12-18T15:49:38Z</time>
      </trkpt>
      <trkpt lat="49.3915" lon="-1.61676">
        <ele>44.3</ele>
        <time>2021-12-18T15:49:41Z</time>
      </trkpt>
      <trkpt lat="49.39144" lon="-1.61675">
        <ele>45.4</ele>
        <time>2021-12-18T15:49:48Z</time>
      </trkpt>
      <trkpt lat="49.39139" lon="-1.61674">
        <ele>45.7</ele>
        <time>2021-12-18T15:49:51Z</time>
      </trkpt>
      <trkpt lat="49.39133" lon="-1.61674">
        <ele>45.6</ele>
        <time>2021-12-18T15:49:55Z</time>
      </trkpt>
      <trkpt lat="49.39128" lon="-1.61673">
        <ele>45.3</ele>
        <time>2021-12-18T15:49:58Z</time>
      </trkpt>
      <trkpt lat="49.39124" lon="-1.61671">
        <ele>44.9</ele>
        <time>2021-12-18T15:50:02Z</time>
      </trkpt>
      <trkpt lat="49.39118" lon="-1.61669">
        <ele>44.9</ele>
        <time>2021-12-18T15:50:07Z</time>
      </trkpt>
      <trkpt lat="49.39113" lon="-1.61668">
        <ele>45</ele>
        <time>2021-12-18T15:50:11Z</time>
      </trkpt>
      <trkpt lat="49.39108" lon="-1.61667">
        <ele>45.4</ele>
        <time>2021-12-18T15:50:15Z</time>
      </trkpt>
      <trkpt lat="49.39103" lon="-1.61663">
        <ele>45.6</ele>
        <time>2021-12-18T15:50:18Z</time>
      </trkpt>
      <trkpt lat="49.39097" lon="-1.61662">
        <ele>45.8</ele>
        <time>2021-12-18T15:50:30Z</time>
      </trkpt>
      <trkpt lat="49.39091" lon="-1.61662">
        <ele>45.6</ele>
        <time>2021-12-18T15:50:34Z</time>
      </trkpt>
      <trkpt lat="49.39087" lon="-1.6166">
        <ele>45.4</ele>
        <time>2021-12-18T15:50:37Z</time>
      </trkpt>
      <trkpt lat="49.39081" lon="-1.61659">
        <ele>45.1</ele>
        <time>2021-12-18T15:50:41Z</time>
      </trkpt>
      <trkpt lat="49.39075" lon="-1.61657">
        <ele>44.9</ele>
        <time>2021-12-18T15:50:45Z</time>
      </trkpt>
      <trkpt lat="49.39071" lon="-1.61654">
        <ele>44.8</ele>
        <time>2021-12-18T15:50:48Z</time>
      </trkpt>
      <trkpt lat="49.39066" lon="-1.61654">
        <ele>44.7</ele>
        <time>2021-12-18T15:50:51Z</time>
      </trkpt>
      <trkpt lat="49.39061" lon="-1.61652">
        <ele>44.8</ele>
        <time>2021-12-18T15:50:55Z</time>
      </trkpt>
      <trkpt lat="49.39056" lon="-1.61652">
        <ele>44.7</ele>
        <time>2021-12-18T15:50:59Z</time>
      </trkpt>
      <trkpt lat="49.39051" lon="-1.61649">
        <ele>44.8</ele>
        <time>2021-12-18T15:51:03Z</time>
      </trkpt>
      <trkpt lat="49.39046" lon="-1.61646">
        <ele>44.9</ele>
        <time>2021-12-18T15:51:07Z</time>
      </trkpt>
      <trkpt lat="49.39041" lon="-1.61646">
        <ele>45.2</ele>
        <time>2021-12-18T15:51:12Z</time>
      </trkpt>
      <trkpt lat="49.39036" lon="-1.61646">
        <ele>45.4</ele>
        <time>2021-12-18T15:51:16Z</time>
      </trkpt>
      <trkpt lat="49.39031" lon="-1.61646">
        <ele>45.5</ele>
        <time>2021-12-18T15:51:20Z</time>
      </trkpt>
      <trkpt lat="49.39026" lon="-1.61645">
        <ele>45.6</ele>
        <time>2021-12-18T15:51:23Z</time>
      </trkpt>
      <trkpt lat="49.39021" lon="-1.61645">
        <ele>45.8</ele>
        <time>2021-12-18T15:51:27Z</time>
      </trkpt>
      <trkpt lat="49.39016" lon="-1.61644">
        <ele>46.4</ele>
        <time>2021-12-18T15:51:31Z</time>
      </trkpt>
      <trkpt lat="49.39011" lon="-1.61642">
        <ele>47.3</ele>
        <time>2021-12-18T15:51:35Z</time>
      </trkpt>
      <trkpt lat="49.39005" lon="-1.61641">
        <ele>48.1</ele>
        <time>2021-12-18T15:51:39Z</time>
      </trkpt>
      <trkpt lat="49.39" lon="-1.61638">
        <ele>48.3</ele>
        <time>2021-12-18T15:51:43Z</time>
      </trkpt>
      <trkpt lat="49.38995" lon="-1.61636">
        <ele>48.5</ele>
        <time>2021-12-18T15:51:48Z</time>
      </trkpt>
      <trkpt lat="49.3899" lon="-1.61636">
        <ele>48.7</ele>
        <time>2021-12-18T15:51:53Z</time>
      </trkpt>
      <trkpt lat="49.38984" lon="-1.61636">
        <ele>48.9</ele>
        <time>2021-12-18T15:51:57Z</time>
      </trkpt>
      <trkpt lat="49.38979" lon="-1.61635">
        <ele>49.3</ele>
        <time>2021-12-18T15:52:01Z</time>
      </trkpt>
      <trkpt lat="49.38974" lon="-1.61634">
        <ele>49.4</ele>
        <time>2021-12-18T15:52:04Z</time>
      </trkpt>
      <trkpt lat="49.38969" lon="-1.61633">
        <ele>49.2</ele>
        <time>2021-12-18T15:52:08Z</time>
      </trkpt>
      <trkpt lat="49.38964" lon="-1.61631">
        <ele>48.6</ele>
        <time>2021-12-18T15:52:12Z</time>
      </trkpt>
      <trkpt lat="49.38959" lon="-1.6163">
        <ele>48.1</ele>
        <time>2021-12-18T15:52:15Z</time>
      </trkpt>
      <trkpt lat="49.38955" lon="-1.61629">
        <ele>47.8</ele>
        <time>2021-12-18T15:52:19Z</time>
      </trkpt>
      <trkpt lat="49.3895" lon="-1.61627">
        <ele>47.9</ele>
        <time>2021-12-18T15:52:23Z</time>
      </trkpt>
      <trkpt lat="49.38945" lon="-1.61626">
        <ele>48.1</ele>
        <time>2021-12-18T15:52:26Z</time>
      </trkpt>
      <trkpt lat="49.38939" lon="-1.61625">
        <ele>48.9</ele>
        <time>2021-12-18T15:52:29Z</time>
      </trkpt>
      <trkpt lat="49.38934" lon="-1.61625">
        <ele>50</ele>
        <time>2021-12-18T15:52:33Z</time>
      </trkpt>
      <trkpt lat="49.38928" lon="-1.61623">
        <ele>50.9</ele>
        <time>2021-12-18T15:52:36Z</time>
      </trkpt>
      <trkpt lat="49.38924" lon="-1.6162">
        <ele>51</ele>
        <time>2021-12-18T15:52:40Z</time>
      </trkpt>
      <trkpt lat="49.3892" lon="-1.61621">
        <ele>52.9</ele>
        <time>2021-12-18T15:52:52Z</time>
      </trkpt>
      <trkpt lat="49.38914" lon="-1.61621">
        <ele>53.6</ele>
        <time>2021-12-18T15:53:00Z</time>
      </trkpt>
      <trkpt lat="49.38908" lon="-1.6162">
        <ele>53.8</ele>
        <time>2021-12-18T15:53:04Z</time>
      </trkpt>
      <trkpt lat="49.38903" lon="-1.61619">
        <ele>53.7</ele>
        <time>2021-12-18T15:53:09Z</time>
      </trkpt>
      <trkpt lat="49.38899" lon="-1.61619">
        <ele>53.6</ele>
        <time>2021-12-18T15:53:13Z</time>
      </trkpt>
      <trkpt lat="49.38894" lon="-1.61615">
        <ele>53.4</ele>
        <time>2021-12-18T15:53:17Z</time>
      </trkpt>
      <trkpt lat="49.3889" lon="-1.61611">
        <ele>53.6</ele>
        <time>2021-12-18T15:53:20Z</time>
      </trkpt>
      <trkpt lat="49.38885" lon="-1.61605">
        <ele>53.8</ele>
        <time>2021-12-18T15:53:24Z</time>
      </trkpt>
      <trkpt lat="49.38881" lon="-1.61601">
        <ele>54.6</ele>
        <time>2021-12-18T15:53:28Z</time>
      </trkpt>
      <trkpt lat="49.38875" lon="-1.61597">
        <ele>55.7</ele>
        <time>2021-12-18T15:53:32Z</time>
      </trkpt>
      <trkpt lat="49.3887" lon="-1.61595">
        <ele>56.3</ele>
        <time>2021-12-18T15:53:35Z</time>
      </trkpt>
      <trkpt lat="49.38863" lon="-1.6159">
        <ele>57</ele>
        <time>2021-12-18T15:53:38Z</time>
      </trkpt>
      <trkpt lat="49.38858" lon="-1.61585">
        <ele>57.6</ele>
        <time>2021-12-18T15:53:41Z</time>
      </trkpt>
      <trkpt lat="49.38853" lon="-1.61578">
        <ele>58</ele>
        <time>2021-12-18T15:53:47Z</time>
      </trkpt>
      <trkpt lat="49.3885" lon="-1.61572">
        <ele>58.2</ele>
        <time>2021-12-18T15:53:51Z</time>
      </trkpt>
      <trkpt lat="49.38846" lon="-1.61568">
        <ele>58.5</ele>
        <time>2021-12-18T15:53:56Z</time>
      </trkpt>
      <trkpt lat="49.38843" lon="-1.61561">
        <ele>59.1</ele>
        <time>2021-12-18T15:54:00Z</time>
      </trkpt>
      <trkpt lat="49.38838" lon="-1.61558">
        <ele>59.4</ele>
        <time>2021-12-18T15:54:03Z</time>
      </trkpt>
      <trkpt lat="49.38833" lon="-1.61555">
        <ele>59.6</ele>
        <time>2021-12-18T15:54:06Z</time>
      </trkpt>
      <trkpt lat="49.38829" lon="-1.61552">
        <ele>59.7</ele>
        <time>2021-12-18T15:54:12Z</time>
      </trkpt>
      <trkpt lat="49.38823" lon="-1.61549">
        <ele>59.9</ele>
        <time>2021-12-18T15:54:16Z</time>
      </trkpt>
      <trkpt lat="49.38818" lon="-1.61547">
        <ele>60.5</ele>
        <time>2021-12-18T15:54:20Z</time>
      </trkpt>
      <trkpt lat="49.38813" lon="-1.61544">
        <ele>60.8</ele>
        <time>2021-12-18T15:54:24Z</time>
      </trkpt>
      <trkpt lat="49.38808" lon="-1.61539">
        <ele>61.3</ele>
        <time>2021-12-18T15:54:29Z</time>
      </trkpt>
      <trkpt lat="49.38802" lon="-1.61536">
        <ele>61.5</ele>
        <time>2021-12-18T15:54:32Z</time>
      </trkpt>
      <trkpt lat="49.38796" lon="-1.6153">
        <ele>61.5</ele>
        <time>2021-12-18T15:54:36Z</time>
      </trkpt>
      <trkpt lat="49.38792" lon="-1.61527">
        <ele>61.5</ele>
        <time>2021-12-18T15:54:39Z</time>
      </trkpt>
      <trkpt lat="49.38787" lon="-1.61524">
        <ele>61.4</ele>
        <time>2021-12-18T15:54:43Z</time>
      </trkpt>
      <trkpt lat="49.38782" lon="-1.6152">
        <ele>61.3</ele>
        <time>2021-12-18T15:54:47Z</time>
      </trkpt>
      <trkpt lat="49.38777" lon="-1.61516">
        <ele>61.5</ele>
        <time>2021-12-18T15:54:51Z</time>
      </trkpt>
      <trkpt lat="49.38772" lon="-1.61514">
        <ele>61.3</ele>
        <time>2021-12-18T15:54:55Z</time>
      </trkpt>
      <trkpt lat="49.38767" lon="-1.61512">
        <ele>60.9</ele>
        <time>2021-12-18T15:54:58Z</time>
      </trkpt>
      <trkpt lat="49.38762" lon="-1.61509">
        <ele>60.2</ele>
        <time>2021-12-18T15:55:02Z</time>
      </trkpt>
      <trkpt lat="49.38757" lon="-1.61505">
        <ele>59.6</ele>
        <time>2021-12-18T15:55:06Z</time>
      </trkpt>
      <trkpt lat="49.38752" lon="-1.61503">
        <ele>59.2</ele>
        <time>2021-12-18T15:55:09Z</time>
      </trkpt>
      <trkpt lat="49.38747" lon="-1.61501">
        <ele>57.9</ele>
        <time>2021-12-18T15:55:14Z</time>
      </trkpt>
      <trkpt lat="49.38743" lon="-1.61506">
        <ele>57</ele>
        <time>2021-12-18T15:56:25Z</time>
      </trkpt>
      <trkpt lat="49.38738" lon="-1.61502">
        <ele>59.8</ele>
        <time>2021-12-18T15:57:47Z</time>
      </trkpt>
      <trkpt lat="49.38732" lon="-1.61499">
        <ele>59.7</ele>
        <time>2021-12-18T15:57:52Z</time>
      </trkpt>
      <trkpt lat="49.38727" lon="-1.61496">
        <ele>59.9</ele>
        <time>2021-12-18T15:57:55Z</time>
      </trkpt>
      <trkpt lat="49.38722" lon="-1.61493">
        <ele>60.3</ele>
        <time>2021-12-18T15:58:07Z</time>
      </trkpt>
      <trkpt lat="49.38722" lon="-1.61486">
        <ele>60.2</ele>
        <time>2021-12-18T15:58:09Z</time>
      </trkpt>
      <trkpt lat="49.38725" lon="-1.61479">
        <ele>60.1</ele>
        <time>2021-12-18T15:58:11Z</time>
      </trkpt>
      <trkpt lat="49.38728" lon="-1.61472">
        <ele>59.9</ele>
        <time>2021-12-18T15:58:15Z</time>
      </trkpt>
      <trkpt lat="49.3873" lon="-1.61466">
        <ele>59.5</ele>
        <time>2021-12-18T15:58:22Z</time>
      </trkpt>
      <trkpt lat="49.38735" lon="-1.61454">
        <ele>59.5</ele>
        <time>2021-12-18T15:58:24Z</time>
      </trkpt>
      <trkpt lat="49.3874" lon="-1.61438">
        <ele>59.5</ele>
        <time>2021-12-18T15:58:26Z</time>
      </trkpt>
      <trkpt lat="49.38744" lon="-1.61428">
        <ele>59.5</ele>
        <time>2021-12-18T15:58:27Z</time>
      </trkpt>
      <trkpt lat="49.38752" lon="-1.61403">
        <ele>59.4</ele>
        <time>2021-12-18T15:58:29Z</time>
      </trkpt>
      <trkpt lat="49.38763" lon="-1.61372">
        <ele>59.3</ele>
        <time>2021-12-18T15:58:31Z</time>
      </trkpt>
      <trkpt lat="49.38778" lon="-1.6133">
        <ele>59.2</ele>
        <time>2021-12-18T15:58:33Z</time>
      </trkpt>
      <trkpt lat="49.38785" lon="-1.6131">
        <ele>59</ele>
        <time>2021-12-18T15:58:34Z</time>
      </trkpt>
      <trkpt lat="49.38792" lon="-1.61289">
        <ele>58.9</ele>
        <time>2021-12-18T15:58:35Z</time>
      </trkpt>
      <trkpt lat="49.38807" lon="-1.61246">
        <ele>58.7</ele>
        <time>2021-12-18T15:58:37Z</time>
      </trkpt>
      <trkpt lat="49.38816" lon="-1.61223">
        <ele>58.5</ele>
        <time>2021-12-18T15:58:38Z</time>
      </trkpt>
      <trkpt lat="49.38824" lon="-1.61199">
        <ele>58.3</ele>
        <time>2021-12-18T15:58:39Z</time>
      </trkpt>
      <trkpt lat="49.3884" lon="-1.61149">
        <ele>58.3</ele>
        <time>2021-12-18T15:58:41Z</time>
      </trkpt>
      <trkpt lat="49.38849" lon="-1.61123">
        <ele>58.2</ele>
        <time>2021-12-18T15:58:42Z</time>
      </trkpt>
      <trkpt lat="49.38857" lon="-1.61097">
        <ele>58.2</ele>
        <time>2021-12-18T15:58:43Z</time>
      </trkpt>
      <trkpt lat="49.38873" lon="-1.61048">
        <ele>58.1</ele>
        <time>2021-12-18T15:58:45Z</time>
      </trkpt>
      <trkpt lat="49.3889" lon="-1.61001">
        <ele>58.1</ele>
        <time>2021-12-18T15:58:47Z</time>
      </trkpt>
      <trkpt lat="49.38898" lon="-1.60976">
        <ele>58</ele>
        <time>2021-12-18T15:58:48Z</time>
      </trkpt>
      <trkpt lat="49.38915" lon="-1.60925">
        <ele>58</ele>
        <time>2021-12-18T15:58:50Z</time>
      </trkpt>
      <trkpt lat="49.38929" lon="-1.60873">
        <ele>57.9</ele>
        <time>2021-12-18T15:58:52Z</time>
      </trkpt>
      <trkpt lat="49.38935" lon="-1.60848">
        <ele>57.8</ele>
        <time>2021-12-18T15:58:53Z</time>
      </trkpt>
      <trkpt lat="49.38948" lon="-1.60801">
        <ele>57.6</ele>
        <time>2021-12-18T15:58:55Z</time>
      </trkpt>
      <trkpt lat="49.38959" lon="-1.60757">
        <ele>57.5</ele>
        <time>2021-12-18T15:58:57Z</time>
      </trkpt>
      <trkpt lat="49.38965" lon="-1.60712">
        <ele>57.4</ele>
        <time>2021-12-18T15:58:59Z</time>
      </trkpt>
      <trkpt lat="49.38967" lon="-1.60688">
        <ele>57.3</ele>
        <time>2021-12-18T15:59:00Z</time>
      </trkpt>
      <trkpt lat="49.38969" lon="-1.60636">
        <ele>57.2</ele>
        <time>2021-12-18T15:59:02Z</time>
      </trkpt>
      <trkpt lat="49.38969" lon="-1.60609">
        <ele>57</ele>
        <time>2021-12-18T15:59:03Z</time>
      </trkpt>
      <trkpt lat="49.3897" lon="-1.60555">
        <ele>57</ele>
        <time>2021-12-18T15:59:05Z</time>
      </trkpt>
      <trkpt lat="49.3897" lon="-1.60529">
        <ele>57</ele>
        <time>2021-12-18T15:59:06Z</time>
      </trkpt>
      <trkpt lat="49.38971" lon="-1.60481">
        <ele>57</ele>
        <time>2021-12-18T15:59:08Z</time>
      </trkpt>
      <trkpt lat="49.38971" lon="-1.60434">
        <ele>57.1</ele>
        <time>2021-12-18T15:59:10Z</time>
      </trkpt>
      <trkpt lat="49.38972" lon="-1.60389">
        <ele>57.1</ele>
        <time>2021-12-18T15:59:12Z</time>
      </trkpt>
      <trkpt lat="49.38971" lon="-1.60367">
        <ele>57</ele>
        <time>2021-12-18T15:59:13Z</time>
      </trkpt>
      <trkpt lat="49.38971" lon="-1.60324">
        <ele>56.9</ele>
        <time>2021-12-18T15:59:15Z</time>
      </trkpt>
      <trkpt lat="49.38971" lon="-1.60303">
        <ele>56.8</ele>
        <time>2021-12-18T15:59:16Z</time>
      </trkpt>
      <trkpt lat="49.38972" lon="-1.6028">
        <ele>56.7</ele>
        <time>2021-12-18T15:59:17Z</time>
      </trkpt>
      <trkpt lat="49.38971" lon="-1.60237">
        <ele>56.5</ele>
        <time>2021-12-18T15:59:19Z</time>
      </trkpt>
      <trkpt lat="49.38972" lon="-1.60193">
        <ele>56.1</ele>
        <time>2021-12-18T15:59:21Z</time>
      </trkpt>
      <trkpt lat="49.38973" lon="-1.60148">
        <ele>55.5</ele>
        <time>2021-12-18T15:59:23Z</time>
      </trkpt>
      <trkpt lat="49.38973" lon="-1.60126">
        <ele>54.9</ele>
        <time>2021-12-18T15:59:24Z</time>
      </trkpt>
      <trkpt lat="49.38973" lon="-1.6008">
        <ele>54.4</ele>
        <time>2021-12-18T15:59:26Z</time>
      </trkpt>
      <trkpt lat="49.38972" lon="-1.60031">
        <ele>53.8</ele>
        <time>2021-12-18T15:59:28Z</time>
      </trkpt>
      <trkpt lat="49.38971" lon="-1.59984">
        <ele>53.2</ele>
        <time>2021-12-18T15:59:30Z</time>
      </trkpt>
      <trkpt lat="49.38971" lon="-1.59961">
        <ele>52.7</ele>
        <time>2021-12-18T15:59:31Z</time>
      </trkpt>
      <trkpt lat="49.3897" lon="-1.59913">
        <ele>52.3</ele>
        <time>2021-12-18T15:59:33Z</time>
      </trkpt>
      <trkpt lat="49.38968" lon="-1.59864">
        <ele>52</ele>
        <time>2021-12-18T15:59:35Z</time>
      </trkpt>
      <trkpt lat="49.38965" lon="-1.59814">
        <ele>51.8</ele>
        <time>2021-12-18T15:59:37Z</time>
      </trkpt>
      <trkpt lat="49.38963" lon="-1.59789">
        <ele>51.5</ele>
        <time>2021-12-18T15:59:38Z</time>
      </trkpt>
      <trkpt lat="49.38961" lon="-1.59739">
        <ele>51.2</ele>
        <time>2021-12-18T15:59:40Z</time>
      </trkpt>
      <trkpt lat="49.38959" lon="-1.59714">
        <ele>50.9</ele>
        <time>2021-12-18T15:59:41Z</time>
      </trkpt>
      <trkpt lat="49.38956" lon="-1.59667">
        <ele>50.6</ele>
        <time>2021-12-18T15:59:43Z</time>
      </trkpt>
      <trkpt lat="49.38955" lon="-1.59645">
        <ele>50.4</ele>
        <time>2021-12-18T15:59:44Z</time>
      </trkpt>
      <trkpt lat="49.38952" lon="-1.59599">
        <ele>50</ele>
        <time>2021-12-18T15:59:46Z</time>
      </trkpt>
      <trkpt lat="49.38951" lon="-1.59577">
        <ele>49.8</ele>
        <time>2021-12-18T15:59:47Z</time>
      </trkpt>
      <trkpt lat="49.38948" lon="-1.59534">
        <ele>49.5</ele>
        <time>2021-12-18T15:59:49Z</time>
      </trkpt>
      <trkpt lat="49.38947" lon="-1.59513">
        <ele>49.4</ele>
        <time>2021-12-18T15:59:50Z</time>
      </trkpt>
      <trkpt lat="49.38945" lon="-1.59475">
        <ele>49.3</ele>
        <time>2021-12-18T15:59:52Z</time>
      </trkpt>
      <trkpt lat="49.38944" lon="-1.59457">
        <ele>49.2</ele>
        <time>2021-12-18T15:59:53Z</time>
      </trkpt>
      <trkpt lat="49.38943" lon="-1.59439">
        <ele>49.2</ele>
        <time>2021-12-18T15:59:54Z</time>
      </trkpt>
      <trkpt lat="49.38942" lon="-1.59421">
        <ele>49.2</ele>
        <time>2021-12-18T15:59:55Z</time>
      </trkpt>
      <trkpt lat="49.38941" lon="-1.59405">
        <ele>49.2</ele>
        <time>2021-12-18T15:59:56Z</time>
      </trkpt>
      <trkpt lat="49.38939" lon="-1.59377">
        <ele>49.2</ele>
        <time>2021-12-18T15:59:58Z</time>
      </trkpt>
      <trkpt lat="49.38939" lon="-1.59356">
        <ele>49.3</ele>
        <time>2021-12-18T16:00:00Z</time>
      </trkpt>
      <trkpt lat="49.38938" lon="-1.59342">
        <ele>49.4</ele>
        <time>2021-12-18T16:00:02Z</time>
      </trkpt>
      <trkpt lat="49.38929" lon="-1.59334">
        <ele>49.6</ele>
        <time>2021-12-18T16:00:05Z</time>
      </trkpt>
      <trkpt lat="49.38924" lon="-1.59335">
        <ele>49.7</ele>
        <time>2021-12-18T16:00:06Z</time>
      </trkpt>
      <trkpt lat="49.38913" lon="-1.59338">
        <ele>49.7</ele>
        <time>2021-12-18T16:00:08Z</time>
      </trkpt>
      <trkpt lat="49.38907" lon="-1.59343">
        <ele>49.9</ele>
        <time>2021-12-18T16:00:10Z</time>
      </trkpt>
      <trkpt lat="49.38903" lon="-1.59349">
        <ele>50</ele>
        <time>2021-12-18T16:00:12Z</time>
      </trkpt>
      <trkpt lat="49.38903" lon="-1.5936">
        <ele>50.2</ele>
        <time>2021-12-18T16:00:14Z</time>
      </trkpt>
      <trkpt lat="49.38904" lon="-1.59369">
        <ele>50.8</ele>
        <time>2021-12-18T16:00:17Z</time>
      </trkpt>
      <trkpt lat="49.38908" lon="-1.59373">
        <ele>52.3</ele>
        <time>2021-12-18T16:00:27Z</time>
      </trkpt>
      <trkpt lat="49.38911" lon="-1.59378">
        <ele>51.6</ele>
        <time>2021-12-18T16:00:48Z</time>
      </trkpt>
      <trkpt lat="49.38913" lon="-1.59371">
        <ele>52.5</ele>
        <time>2021-12-18T16:00:55Z</time>
      </trkpt>
      <trkpt lat="49.38917" lon="-1.59374">
        <ele>53.9</ele>
        <time>2021-12-18T16:01:17Z</time>
      </trkpt>
      <trkpt lat="49.38918" lon="-1.59383">
        <ele>52.3</ele>
        <time>2021-12-18T16:01:48Z</time>
      </trkpt>
      <trkpt lat="49.38915" lon="-1.59389">
        <ele>55</ele>
        <time>2021-12-18T16:02:06Z</time>
      </trkpt>
      <trkpt lat="49.38912" lon="-1.59382">
        <ele>55.6</ele>
        <time>2021-12-18T16:02:39Z</time>
      </trkpt>
      <trkpt lat="49.38914" lon="-1.59375">
        <ele>55.3</ele>
        <time>2021-12-18T16:02:44Z</time>
      </trkpt>
      <trkpt lat="49.38917" lon="-1.59381">
        <ele>55.9</ele>
        <time>2021-12-18T16:03:13Z</time>
      </trkpt>
      <trkpt lat="49.38916" lon="-1.59388">
        <ele>56.3</ele>
        <time>2021-12-18T16:03:28Z</time>
      </trkpt>
      <trkpt lat="49.38912" lon="-1.59387">
        <ele>49.9</ele>
        <time>2021-12-18T16:10:22Z</time>
      </trkpt>
      <trkpt lat="49.3892" lon="-1.59383">
        <ele>83.4</ele>
        <time>2021-12-18T16:15:25Z</time>
      </trkpt>
      <trkpt lat="49.38935" lon="-1.5939">
        <ele>95</ele>
        <time>2021-12-18T16:15:27Z</time>
      </trkpt>
    </trkseg>
  </trk>
</gpx>